<?xml version="1.0" encoding="UTF-8" standalone="no" ?>
<gpx xmlns="http://www.topografix.com/GPX/1/1" xmlns:xsi="http://www.w3.org/2001/XMLSchema-instance" xsi:schemaLocation="http://www.topografix.com/GPX/1/1 http://www.topografix.com/GPX/1/1/gpx.xsd" version="1.1" creator="VisuGPX - https://www.visugpx.com">
  <metadata>
    <name>Les monts de Vailhan</name>
    <desc><![CDATA[Attention à la chaleur. Nombreux cailloux quelques fois piégeux pour les moins avertis. Belles descentes, attention le sentier qui mène à Vailhan est un peu engagé car étroit et caillouteux avec du vide par moment. Quelques beaux singles en forêt et en crêtes rendent le parcours joueur.]]></desc>
  </metadata>
  <trk>
    <name><![CDATA[Les Monts de Vailhan]]></name>
    <trkseg>
      <trkpt lat="43.60817" lon="3.35006">
        <ele>273</ele>
        <time>2015-05-02T08:08:42Z</time>
      </trkpt>
      <trkpt lat="43.60828" lon="3.34998">
        <ele>274</ele>
        <time>2015-05-02T08:08:47Z</time>
      </trkpt>
      <trkpt lat="43.60856" lon="3.34953">
        <ele>274</ele>
        <time>2015-05-02T08:09:00Z</time>
      </trkpt>
      <trkpt lat="43.60898" lon="3.34877">
        <ele>275</ele>
        <time>2015-05-02T08:09:19Z</time>
      </trkpt>
      <trkpt lat="43.60934" lon="3.34788">
        <ele>271</ele>
        <time>2015-05-02T08:09:38Z</time>
      </trkpt>
      <trkpt lat="43.60956" lon="3.34664">
        <ele>279</ele>
        <time>2015-05-02T08:10:01Z</time>
      </trkpt>
      <trkpt lat="43.60966" lon="3.34545">
        <ele>283</ele>
        <time>2015-05-02T08:10:21Z</time>
      </trkpt>
      <trkpt lat="43.60976" lon="3.34413">
        <ele>283</ele>
        <time>2015-05-02T08:10:43Z</time>
      </trkpt>
      <trkpt lat="43.60979" lon="3.34298">
        <ele>284</ele>
        <time>2015-05-02T08:11:02Z</time>
      </trkpt>
      <trkpt lat="43.60958" lon="3.34163">
        <ele>283</ele>
        <time>2015-05-02T08:11:24Z</time>
      </trkpt>
      <trkpt lat="43.60957" lon="3.34151">
        <ele>283</ele>
        <time>2015-05-02T08:11:26Z</time>
      </trkpt>
      <trkpt lat="43.60947" lon="3.34074">
        <ele>284</ele>
        <time>2015-05-02T08:11:41Z</time>
      </trkpt>
      <trkpt lat="43.6091" lon="3.34052">
        <ele>287</ele>
        <time>2015-05-02T08:11:56Z</time>
      </trkpt>
      <trkpt lat="43.60882" lon="3.34029">
        <ele>288</ele>
        <time>2015-05-02T08:12:11Z</time>
      </trkpt>
      <trkpt lat="43.60852" lon="3.34003">
        <ele>289</ele>
        <time>2015-05-02T08:12:28Z</time>
      </trkpt>
      <trkpt lat="43.60838" lon="3.33978">
        <ele>285</ele>
        <time>2015-05-02T08:12:42Z</time>
      </trkpt>
      <trkpt lat="43.60838" lon="3.33978">
        <ele>285</ele>
        <time>2015-05-02T08:12:49Z</time>
      </trkpt>
      <trkpt lat="43.60818" lon="3.33987">
        <ele>289</ele>
        <time>2015-05-02T08:26:12Z</time>
      </trkpt>
      <trkpt lat="43.60804" lon="3.34003">
        <ele>296</ele>
        <time>2015-05-02T08:26:29Z</time>
      </trkpt>
      <trkpt lat="43.60786" lon="3.34016">
        <ele>298</ele>
        <time>2015-05-02T08:26:48Z</time>
      </trkpt>
      <trkpt lat="43.60779" lon="3.34016">
        <ele>298</ele>
        <time>2015-05-02T08:27:05Z</time>
      </trkpt>
      <trkpt lat="43.6077" lon="3.34017">
        <ele>298</ele>
        <time>2015-05-02T08:27:22Z</time>
      </trkpt>
      <trkpt lat="43.60752" lon="3.34014">
        <ele>299</ele>
        <time>2015-05-02T08:27:40Z</time>
      </trkpt>
      <trkpt lat="43.60743" lon="3.34006">
        <ele>299</ele>
        <time>2015-05-02T08:27:58Z</time>
      </trkpt>
      <trkpt lat="43.60739" lon="3.34007">
        <ele>299</ele>
        <time>2015-05-02T08:28:02Z</time>
      </trkpt>
      <trkpt lat="43.60734" lon="3.34011">
        <ele>300</ele>
        <time>2015-05-02T08:28:07Z</time>
      </trkpt>
      <trkpt lat="43.60727" lon="3.34037">
        <ele>302</ele>
        <time>2015-05-02T08:28:22Z</time>
      </trkpt>
      <trkpt lat="43.60727" lon="3.34069">
        <ele>304</ele>
        <time>2015-05-02T08:28:40Z</time>
      </trkpt>
      <trkpt lat="43.60727" lon="3.34071">
        <ele>304</ele>
        <time>2015-05-02T08:28:41Z</time>
      </trkpt>
      <trkpt lat="43.60729" lon="3.34086">
        <ele>309</ele>
        <time>2015-05-02T08:28:50Z</time>
      </trkpt>
      <trkpt lat="43.60734" lon="3.34107">
        <ele>310</ele>
        <time>2015-05-02T08:29:05Z</time>
      </trkpt>
      <trkpt lat="43.60742" lon="3.34131">
        <ele>312</ele>
        <time>2015-05-02T08:29:23Z</time>
      </trkpt>
      <trkpt lat="43.60743" lon="3.34139">
        <ele>313</ele>
        <time>2015-05-02T08:29:34Z</time>
      </trkpt>
      <trkpt lat="43.60744" lon="3.34156">
        <ele>316</ele>
        <time>2015-05-02T08:29:53Z</time>
      </trkpt>
      <trkpt lat="43.60748" lon="3.34176">
        <ele>319</ele>
        <time>2015-05-02T08:30:13Z</time>
      </trkpt>
      <trkpt lat="43.6075" lon="3.3419">
        <ele>321</ele>
        <time>2015-05-02T08:30:31Z</time>
      </trkpt>
      <trkpt lat="43.60759" lon="3.34202">
        <ele>322</ele>
        <time>2015-05-02T08:30:50Z</time>
      </trkpt>
      <trkpt lat="43.60764" lon="3.34213">
        <ele>323</ele>
        <time>2015-05-02T08:31:07Z</time>
      </trkpt>
      <trkpt lat="43.6077" lon="3.34223">
        <ele>324</ele>
        <time>2015-05-02T08:31:24Z</time>
      </trkpt>
      <trkpt lat="43.60777" lon="3.34234">
        <ele>324</ele>
        <time>2015-05-02T08:31:43Z</time>
      </trkpt>
      <trkpt lat="43.60782" lon="3.34243">
        <ele>324</ele>
        <time>2015-05-02T08:32:01Z</time>
      </trkpt>
      <trkpt lat="43.60788" lon="3.34258">
        <ele>331</ele>
        <time>2015-05-02T08:32:20Z</time>
      </trkpt>
      <trkpt lat="43.60793" lon="3.34276">
        <ele>331</ele>
        <time>2015-05-02T08:32:40Z</time>
      </trkpt>
      <trkpt lat="43.60799" lon="3.34296">
        <ele>332</ele>
        <time>2015-05-02T08:32:59Z</time>
      </trkpt>
      <trkpt lat="43.60797" lon="3.34307">
        <ele>333</ele>
        <time>2015-05-02T08:33:14Z</time>
      </trkpt>
      <trkpt lat="43.60794" lon="3.34315">
        <ele>333</ele>
        <time>2015-05-02T08:33:32Z</time>
      </trkpt>
      <trkpt lat="43.60793" lon="3.34319">
        <ele>333</ele>
        <time>2015-05-02T08:33:43Z</time>
      </trkpt>
      <trkpt lat="43.60791" lon="3.34334">
        <ele>336</ele>
        <time>2015-05-02T08:33:59Z</time>
      </trkpt>
      <trkpt lat="43.60789" lon="3.34354">
        <ele>336</ele>
        <time>2015-05-02T08:34:16Z</time>
      </trkpt>
      <trkpt lat="43.60784" lon="3.34375">
        <ele>336</ele>
        <time>2015-05-02T08:34:32Z</time>
      </trkpt>
      <trkpt lat="43.60784" lon="3.34376">
        <ele>336</ele>
        <time>2015-05-02T08:34:36Z</time>
      </trkpt>
      <trkpt lat="43.60781" lon="3.34383">
        <ele>336</ele>
        <time>2015-05-02T08:34:40Z</time>
      </trkpt>
      <trkpt lat="43.60772" lon="3.34416">
        <ele>337</ele>
        <time>2015-05-02T08:34:49Z</time>
      </trkpt>
      <trkpt lat="43.60725" lon="3.3447">
        <ele>336</ele>
        <time>2015-05-02T08:35:03Z</time>
      </trkpt>
      <trkpt lat="43.60687" lon="3.34502">
        <ele>335</ele>
        <time>2015-05-02T08:35:16Z</time>
      </trkpt>
      <trkpt lat="43.60642" lon="3.34522">
        <ele>334</ele>
        <time>2015-05-02T08:35:26Z</time>
      </trkpt>
      <trkpt lat="43.60614" lon="3.34528">
        <ele>334</ele>
        <time>2015-05-02T08:35:35Z</time>
      </trkpt>
      <trkpt lat="43.60587" lon="3.34541">
        <ele>334</ele>
        <time>2015-05-02T08:35:47Z</time>
      </trkpt>
      <trkpt lat="43.60548" lon="3.34563">
        <ele>335</ele>
        <time>2015-05-02T08:36:03Z</time>
      </trkpt>
      <trkpt lat="43.60503" lon="3.34582">
        <ele>337</ele>
        <time>2015-05-02T08:36:23Z</time>
      </trkpt>
      <trkpt lat="43.60465" lon="3.34609">
        <ele>334</ele>
        <time>2015-05-02T08:36:39Z</time>
      </trkpt>
      <trkpt lat="43.60429" lon="3.34642">
        <ele>334</ele>
        <time>2015-05-02T08:36:54Z</time>
      </trkpt>
      <trkpt lat="43.60394" lon="3.3466">
        <ele>332</ele>
        <time>2015-05-02T08:37:04Z</time>
      </trkpt>
      <trkpt lat="43.6036" lon="3.34666">
        <ele>330</ele>
        <time>2015-05-02T08:37:11Z</time>
      </trkpt>
      <trkpt lat="43.60347" lon="3.34668">
        <ele>330</ele>
        <time>2015-05-02T08:37:13Z</time>
      </trkpt>
      <trkpt lat="43.60326" lon="3.34672">
        <ele>329</ele>
        <time>2015-05-02T08:37:16Z</time>
      </trkpt>
      <trkpt lat="43.60296" lon="3.34677">
        <ele>327</ele>
        <time>2015-05-02T08:37:20Z</time>
      </trkpt>
      <trkpt lat="43.60273" lon="3.3468">
        <ele>325</ele>
        <time>2015-05-02T08:37:23Z</time>
      </trkpt>
      <trkpt lat="43.60242" lon="3.34692">
        <ele>322</ele>
        <time>2015-05-02T08:37:27Z</time>
      </trkpt>
      <trkpt lat="43.6022" lon="3.34704">
        <ele>321</ele>
        <time>2015-05-02T08:37:30Z</time>
      </trkpt>
      <trkpt lat="43.60198" lon="3.34725">
        <ele>321</ele>
        <time>2015-05-02T08:37:34Z</time>
      </trkpt>
      <trkpt lat="43.60193" lon="3.34731">
        <ele>321</ele>
        <time>2015-05-02T08:37:35Z</time>
      </trkpt>
      <trkpt lat="43.60173" lon="3.34761">
        <ele>321</ele>
        <time>2015-05-02T08:37:40Z</time>
      </trkpt>
      <trkpt lat="43.60156" lon="3.348">
        <ele>323</ele>
        <time>2015-05-02T08:37:51Z</time>
      </trkpt>
      <trkpt lat="43.60143" lon="3.34829">
        <ele>324</ele>
        <time>2015-05-02T08:38:05Z</time>
      </trkpt>
      <trkpt lat="43.60134" lon="3.34857">
        <ele>329</ele>
        <time>2015-05-02T08:38:21Z</time>
      </trkpt>
      <trkpt lat="43.60125" lon="3.34885">
        <ele>330</ele>
        <time>2015-05-02T08:38:38Z</time>
      </trkpt>
      <trkpt lat="43.60114" lon="3.34915">
        <ele>331</ele>
        <time>2015-05-02T08:38:55Z</time>
      </trkpt>
      <trkpt lat="43.60106" lon="3.34944">
        <ele>334</ele>
        <time>2015-05-02T08:39:11Z</time>
      </trkpt>
      <trkpt lat="43.60099" lon="3.3497">
        <ele>334</ele>
        <time>2015-05-02T08:39:26Z</time>
      </trkpt>
      <trkpt lat="43.60087" lon="3.34996">
        <ele>336</ele>
        <time>2015-05-02T08:39:42Z</time>
      </trkpt>
      <trkpt lat="43.60075" lon="3.35017">
        <ele>337</ele>
        <time>2015-05-02T08:39:56Z</time>
      </trkpt>
      <trkpt lat="43.60069" lon="3.3502">
        <ele>337</ele>
        <time>2015-05-02T08:40:02Z</time>
      </trkpt>
      <trkpt lat="43.60065" lon="3.35024">
        <ele>337</ele>
        <time>2015-05-02T08:40:06Z</time>
      </trkpt>
      <trkpt lat="43.60055" lon="3.35028">
        <ele>338</ele>
        <time>2015-05-02T08:40:18Z</time>
      </trkpt>
      <trkpt lat="43.60045" lon="3.35029">
        <ele>338</ele>
        <time>2015-05-02T08:40:28Z</time>
      </trkpt>
      <trkpt lat="43.60046" lon="3.35028">
        <ele>338</ele>
      </trkpt>
      <trkpt lat="43.60017" lon="3.35039">
        <ele>338</ele>
      </trkpt>
      <trkpt lat="43.60001" lon="3.35058">
        <ele>339</ele>
      </trkpt>
      <trkpt lat="43.60002" lon="3.35059">
        <ele>339</ele>
        <time>2015-05-02T08:53:00Z</time>
      </trkpt>
      <trkpt lat="43.59984" lon="3.35092">
        <ele>341</ele>
        <time>2015-05-02T08:53:17Z</time>
      </trkpt>
      <trkpt lat="43.59971" lon="3.35121">
        <ele>341</ele>
        <time>2015-05-02T08:53:33Z</time>
      </trkpt>
      <trkpt lat="43.59963" lon="3.35134">
        <ele>342</ele>
        <time>2015-05-02T08:53:42Z</time>
      </trkpt>
      <trkpt lat="43.59962" lon="3.35141">
        <ele>342</ele>
        <time>2015-05-02T08:53:46Z</time>
      </trkpt>
      <trkpt lat="43.59961" lon="3.35147">
        <ele>342</ele>
        <time>2015-05-02T08:53:50Z</time>
      </trkpt>
      <trkpt lat="43.59963" lon="3.35153">
        <ele>342</ele>
        <time>2015-05-02T08:53:55Z</time>
      </trkpt>
      <trkpt lat="43.5997" lon="3.3516">
        <ele>343</ele>
        <time>2015-05-02T08:54:02Z</time>
      </trkpt>
      <trkpt lat="43.59978" lon="3.35167">
        <ele>346</ele>
        <time>2015-05-02T08:54:11Z</time>
      </trkpt>
      <trkpt lat="43.59982" lon="3.35161">
        <ele>343</ele>
        <time>2015-05-02T08:54:27Z</time>
      </trkpt>
      <trkpt lat="43.59978" lon="3.35162">
        <ele>343</ele>
        <time>2015-05-02T08:54:34Z</time>
      </trkpt>
      <trkpt lat="43.59972" lon="3.35165">
        <ele>343</ele>
        <time>2015-05-02T08:54:39Z</time>
      </trkpt>
      <trkpt lat="43.59956" lon="3.35186">
        <ele>348</ele>
        <time>2015-05-02T08:54:55Z</time>
      </trkpt>
      <trkpt lat="43.59933" lon="3.35208">
        <ele>349</ele>
        <time>2015-05-02T08:55:15Z</time>
      </trkpt>
      <trkpt lat="43.59909" lon="3.35221">
        <ele>355</ele>
        <time>2015-05-02T08:55:33Z</time>
      </trkpt>
      <trkpt lat="43.59875" lon="3.35227">
        <ele>356</ele>
        <time>2015-05-02T08:55:53Z</time>
      </trkpt>
      <trkpt lat="43.59846" lon="3.35231">
        <ele>359</ele>
        <time>2015-05-02T08:56:10Z</time>
      </trkpt>
      <trkpt lat="43.59839" lon="3.35222">
        <ele>358</ele>
        <time>2015-05-02T08:56:16Z</time>
      </trkpt>
      <trkpt lat="43.5982" lon="3.35197">
        <ele>360</ele>
        <time>2015-05-02T08:56:33Z</time>
      </trkpt>
      <trkpt lat="43.59792" lon="3.35183">
        <ele>361</ele>
        <time>2015-05-02T08:56:53Z</time>
      </trkpt>
      <trkpt lat="43.59769" lon="3.35185">
        <ele>361</ele>
        <time>2015-05-02T08:57:11Z</time>
      </trkpt>
      <trkpt lat="43.59744" lon="3.35187">
        <ele>357</ele>
        <time>2015-05-02T08:57:28Z</time>
      </trkpt>
      <trkpt lat="43.59733" lon="3.35194">
        <ele>356</ele>
        <time>2015-05-02T08:57:37Z</time>
      </trkpt>
      <trkpt lat="43.59728" lon="3.352">
        <ele>355</ele>
        <time>2015-05-02T08:57:43Z</time>
      </trkpt>
      <trkpt lat="43.59725" lon="3.3521">
        <ele>355</ele>
        <time>2015-05-02T08:58:01Z</time>
      </trkpt>
      <trkpt lat="43.59724" lon="3.3521">
        <ele>355</ele>
        <time>2015-05-02T08:58:28Z</time>
      </trkpt>
      <trkpt lat="43.59724" lon="3.35208">
        <ele>355</ele>
        <time>2015-05-02T08:59:06Z</time>
      </trkpt>
      <trkpt lat="43.59725" lon="3.35209">
        <ele>355</ele>
        <time>2015-05-02T08:59:49Z</time>
      </trkpt>
      <trkpt lat="43.59724" lon="3.35209">
        <ele>355</ele>
        <time>2015-05-02T09:00:39Z</time>
      </trkpt>
      <trkpt lat="43.59724" lon="3.35208">
        <ele>355</ele>
        <time>2015-05-02T09:00:48Z</time>
      </trkpt>
      <trkpt lat="43.59726" lon="3.35202">
        <ele>355</ele>
        <time>2015-05-02T09:00:52Z</time>
      </trkpt>
      <trkpt lat="43.59725" lon="3.35188">
        <ele>355</ele>
        <time>2015-05-02T09:01:09Z</time>
      </trkpt>
      <trkpt lat="43.59725" lon="3.35189">
        <ele>355</ele>
        <time>2015-05-02T09:01:54Z</time>
      </trkpt>
      <trkpt lat="43.59723" lon="3.35191">
        <ele>354</ele>
        <time>2015-05-02T09:02:39Z</time>
      </trkpt>
      <trkpt lat="43.59722" lon="3.3519">
        <ele>354</ele>
        <time>2015-05-02T09:03:34Z</time>
      </trkpt>
      <trkpt lat="43.59723" lon="3.35189">
        <ele>354</ele>
        <time>2015-05-02T09:05:05Z</time>
      </trkpt>
      <trkpt lat="43.59724" lon="3.3519">
        <ele>355</ele>
        <time>2015-05-02T09:06:01Z</time>
      </trkpt>
      <trkpt lat="43.59726" lon="3.35191">
        <ele>355</ele>
        <time>2015-05-02T09:06:51Z</time>
      </trkpt>
      <trkpt lat="43.59727" lon="3.35189">
        <ele>355</ele>
        <time>2015-05-02T09:07:17Z</time>
      </trkpt>
      <trkpt lat="43.59729" lon="3.35191">
        <ele>355</ele>
        <time>2015-05-02T09:07:46Z</time>
      </trkpt>
      <trkpt lat="43.59728" lon="3.3518">
        <ele>355</ele>
      </trkpt>
      <trkpt lat="43.59741" lon="3.35212">
        <ele>357</ele>
      </trkpt>
      <trkpt lat="43.59782" lon="3.35208">
        <ele>363</ele>
      </trkpt>
      <trkpt lat="43.59806" lon="3.35324">
        <ele>376</ele>
      </trkpt>
      <trkpt lat="43.59886" lon="3.35358">
        <ele>382</ele>
      </trkpt>
      <trkpt lat="43.59966" lon="3.35517">
        <ele>395</ele>
      </trkpt>
      <trkpt lat="43.5996" lon="3.35521">
        <ele>397</ele>
      </trkpt>
      <trkpt lat="43.59836" lon="3.35431">
        <ele>403</ele>
      </trkpt>
      <trkpt lat="43.59828" lon="3.35435">
        <ele>407</ele>
      </trkpt>
      <trkpt lat="43.59892" lon="3.35508">
        <ele>415</ele>
      </trkpt>
      <trkpt lat="43.59933" lon="3.35571">
        <ele>410</ele>
      </trkpt>
      <trkpt lat="43.59957" lon="3.35631">
        <ele>413</ele>
      </trkpt>
      <trkpt lat="43.59953" lon="3.35652">
        <ele>415</ele>
      </trkpt>
      <trkpt lat="43.59933" lon="3.35601">
        <ele>417</ele>
      </trkpt>
      <trkpt lat="43.59825" lon="3.3554">
        <ele>429</ele>
      </trkpt>
      <trkpt lat="43.59803" lon="3.35549">
        <ele>430</ele>
      </trkpt>
      <trkpt lat="43.59844" lon="3.356">
        <ele>441</ele>
      </trkpt>
      <trkpt lat="43.59878" lon="3.3565">
        <ele>439</ele>
      </trkpt>
      <trkpt lat="43.59871" lon="3.3569">
        <ele>438</ele>
      </trkpt>
      <trkpt lat="43.59859" lon="3.35701">
        <ele>438</ele>
      </trkpt>
      <trkpt lat="43.59843" lon="3.35652">
        <ele>447</ele>
      </trkpt>
      <trkpt lat="43.59797" lon="3.35616">
        <ele>440</ele>
      </trkpt>
      <trkpt lat="43.59785" lon="3.35624">
        <ele>439</ele>
      </trkpt>
      <trkpt lat="43.59807" lon="3.35663">
        <ele>445</ele>
      </trkpt>
      <trkpt lat="43.59814" lon="3.3568">
        <ele>439</ele>
      </trkpt>
      <trkpt lat="43.59775" lon="3.35665">
        <ele>437</ele>
      </trkpt>
      <trkpt lat="43.59816" lon="3.35678">
        <ele>440</ele>
      </trkpt>
      <trkpt lat="43.59783" lon="3.35626">
        <ele>439</ele>
      </trkpt>
      <trkpt lat="43.59797" lon="3.35616">
        <ele>440</ele>
      </trkpt>
      <trkpt lat="43.59841" lon="3.35654">
        <ele>448</ele>
      </trkpt>
      <trkpt lat="43.59859" lon="3.35703">
        <ele>437</ele>
      </trkpt>
      <trkpt lat="43.59872" lon="3.35688">
        <ele>438</ele>
      </trkpt>
      <trkpt lat="43.59878" lon="3.3565">
        <ele>439</ele>
      </trkpt>
      <trkpt lat="43.59803" lon="3.35549">
        <ele>430</ele>
      </trkpt>
      <trkpt lat="43.59826" lon="3.3554">
        <ele>430</ele>
      </trkpt>
      <trkpt lat="43.59931" lon="3.35603">
        <ele>417</ele>
      </trkpt>
      <trkpt lat="43.59954" lon="3.35652">
        <ele>414</ele>
      </trkpt>
      <trkpt lat="43.5996" lon="3.35628">
        <ele>412</ele>
      </trkpt>
      <trkpt lat="43.59931" lon="3.35571">
        <ele>411</ele>
      </trkpt>
      <trkpt lat="43.59891" lon="3.35506">
        <ele>415</ele>
      </trkpt>
      <trkpt lat="43.59828" lon="3.35438">
        <ele>407</ele>
      </trkpt>
      <trkpt lat="43.59834" lon="3.35427">
        <ele>403</ele>
      </trkpt>
      <trkpt lat="43.5996" lon="3.35521">
        <ele>397</ele>
      </trkpt>
      <trkpt lat="43.59966" lon="3.35517">
        <ele>395</ele>
      </trkpt>
      <trkpt lat="43.59884" lon="3.35356">
        <ele>382</ele>
      </trkpt>
      <trkpt lat="43.59806" lon="3.35322">
        <ele>376</ele>
      </trkpt>
      <trkpt lat="43.59779" lon="3.35208">
        <ele>363</ele>
      </trkpt>
      <trkpt lat="43.59741" lon="3.35208">
        <ele>357</ele>
      </trkpt>
      <trkpt lat="43.59728" lon="3.35205">
        <ele>355</ele>
        <time>2015-05-02T09:33:54Z</time>
      </trkpt>
      <trkpt lat="43.59753" lon="3.35186">
        <ele>362</ele>
        <time>2015-05-02T09:34:03Z</time>
      </trkpt>
      <trkpt lat="43.59766" lon="3.35185">
        <ele>361</ele>
        <time>2015-05-02T09:34:05Z</time>
      </trkpt>
      <trkpt lat="43.59786" lon="3.35185">
        <ele>361</ele>
        <time>2015-05-02T09:34:08Z</time>
      </trkpt>
      <trkpt lat="43.59807" lon="3.35189">
        <ele>360</ele>
        <time>2015-05-02T09:34:11Z</time>
      </trkpt>
      <trkpt lat="43.59823" lon="3.35198">
        <ele>360</ele>
        <time>2015-05-02T09:34:13Z</time>
      </trkpt>
      <trkpt lat="43.59836" lon="3.35217">
        <ele>357</ele>
        <time>2015-05-02T09:34:15Z</time>
      </trkpt>
      <trkpt lat="43.59867" lon="3.35237">
        <ele>357</ele>
        <time>2015-05-02T09:34:20Z</time>
      </trkpt>
      <trkpt lat="43.59875" lon="3.35235">
        <ele>357</ele>
        <time>2015-05-02T09:34:21Z</time>
      </trkpt>
      <trkpt lat="43.59907" lon="3.35226">
        <ele>355</ele>
        <time>2015-05-02T09:34:25Z</time>
      </trkpt>
      <trkpt lat="43.5995" lon="3.352">
        <ele>348</ele>
        <time>2015-05-02T09:34:31Z</time>
      </trkpt>
      <trkpt lat="43.59972" lon="3.35179">
        <ele>347</ele>
        <time>2015-05-02T09:34:35Z</time>
      </trkpt>
      <trkpt lat="43.59976" lon="3.35174">
        <ele>347</ele>
        <time>2015-05-02T09:34:36Z</time>
      </trkpt>
      <trkpt lat="43.60002" lon="3.35146">
        <ele>342</ele>
        <time>2015-05-02T09:34:42Z</time>
      </trkpt>
      <trkpt lat="43.60007" lon="3.35141">
        <ele>341</ele>
        <time>2015-05-02T09:34:43Z</time>
      </trkpt>
      <trkpt lat="43.6005" lon="3.35155">
        <ele>340</ele>
        <time>2015-05-02T09:34:51Z</time>
      </trkpt>
      <trkpt lat="43.60062" lon="3.35181">
        <ele>339</ele>
        <time>2015-05-02T09:34:54Z</time>
      </trkpt>
      <trkpt lat="43.60078" lon="3.35224">
        <ele>338</ele>
        <time>2015-05-02T09:34:58Z</time>
      </trkpt>
      <trkpt lat="43.60089" lon="3.35246">
        <ele>332</ele>
        <time>2015-05-02T09:35:00Z</time>
      </trkpt>
      <trkpt lat="43.601" lon="3.35265">
        <ele>331</ele>
        <time>2015-05-02T09:35:02Z</time>
      </trkpt>
      <trkpt lat="43.60109" lon="3.35285">
        <ele>330</ele>
        <time>2015-05-02T09:35:05Z</time>
      </trkpt>
      <trkpt lat="43.60103" lon="3.35311">
        <ele>331</ele>
        <time>2015-05-02T09:35:09Z</time>
      </trkpt>
      <trkpt lat="43.60088" lon="3.3534">
        <ele>334</ele>
        <time>2015-05-02T09:35:14Z</time>
      </trkpt>
      <trkpt lat="43.60088" lon="3.35377">
        <ele>333</ele>
        <time>2015-05-02T09:35:19Z</time>
      </trkpt>
      <trkpt lat="43.60125" lon="3.35394">
        <ele>331</ele>
        <time>2015-05-02T09:35:25Z</time>
      </trkpt>
      <trkpt lat="43.60179" lon="3.35427">
        <ele>324</ele>
        <time>2015-05-02T09:35:33Z</time>
      </trkpt>
      <trkpt lat="43.60208" lon="3.35446">
        <ele>322</ele>
        <time>2015-05-02T09:35:37Z</time>
      </trkpt>
      <trkpt lat="43.6023" lon="3.35481">
        <ele>322</ele>
        <time>2015-05-02T09:35:41Z</time>
      </trkpt>
      <trkpt lat="43.60236" lon="3.35502">
        <ele>325</ele>
        <time>2015-05-02T09:35:43Z</time>
      </trkpt>
      <trkpt lat="43.60253" lon="3.35545">
        <ele>321</ele>
        <time>2015-05-02T09:35:48Z</time>
      </trkpt>
      <trkpt lat="43.60273" lon="3.3555">
        <ele>321</ele>
        <time>2015-05-02T09:35:51Z</time>
      </trkpt>
      <trkpt lat="43.60327" lon="3.35549">
        <ele>318</ele>
        <time>2015-05-02T09:35:58Z</time>
      </trkpt>
      <trkpt lat="43.60363" lon="3.35561">
        <ele>308</ele>
        <time>2015-05-02T09:36:03Z</time>
      </trkpt>
      <trkpt lat="43.60386" lon="3.35608">
        <ele>309</ele>
        <time>2015-05-02T09:36:09Z</time>
      </trkpt>
      <trkpt lat="43.60386" lon="3.35631">
        <ele>308</ele>
        <time>2015-05-02T09:36:11Z</time>
      </trkpt>
      <trkpt lat="43.60386" lon="3.35643">
        <ele>308</ele>
        <time>2015-05-02T09:36:12Z</time>
      </trkpt>
      <trkpt lat="43.60357" lon="3.3574">
        <ele>309</ele>
        <time>2015-05-02T09:36:23Z</time>
      </trkpt>
      <trkpt lat="43.60313" lon="3.35804">
        <ele>315</ele>
        <time>2015-05-02T09:36:36Z</time>
      </trkpt>
      <trkpt lat="43.603" lon="3.35824">
        <ele>314</ele>
        <time>2015-05-02T09:36:41Z</time>
      </trkpt>
      <trkpt lat="43.60273" lon="3.3585">
        <ele>309</ele>
        <time>2015-05-02T09:36:47Z</time>
      </trkpt>
      <trkpt lat="43.60249" lon="3.35864">
        <ele>317</ele>
        <time>2015-05-02T09:36:51Z</time>
      </trkpt>
      <trkpt lat="43.60239" lon="3.35892">
        <ele>314</ele>
        <time>2015-05-02T09:36:56Z</time>
      </trkpt>
      <trkpt lat="43.60242" lon="3.35898">
        <ele>312</ele>
        <time>2015-05-02T09:36:57Z</time>
      </trkpt>
      <trkpt lat="43.60255" lon="3.35901">
        <ele>305</ele>
        <time>2015-05-02T09:37:00Z</time>
      </trkpt>
      <trkpt lat="43.60297" lon="3.35893">
        <ele>305</ele>
        <time>2015-05-02T09:37:08Z</time>
      </trkpt>
      <trkpt lat="43.60321" lon="3.35885">
        <ele>305</ele>
        <time>2015-05-02T09:37:13Z</time>
      </trkpt>
      <trkpt lat="43.60334" lon="3.35886">
        <ele>297</ele>
        <time>2015-05-02T09:37:16Z</time>
      </trkpt>
      <trkpt lat="43.60348" lon="3.35909">
        <ele>297</ele>
        <time>2015-05-02T09:37:21Z</time>
      </trkpt>
      <trkpt lat="43.60351" lon="3.3594">
        <ele>292</ele>
        <time>2015-05-02T09:37:27Z</time>
      </trkpt>
      <trkpt lat="43.6033" lon="3.36021">
        <ele>301</ele>
        <time>2015-05-02T09:37:41Z</time>
      </trkpt>
      <trkpt lat="43.6033" lon="3.36041">
        <ele>301</ele>
        <time>2015-05-02T09:37:44Z</time>
      </trkpt>
      <trkpt lat="43.60341" lon="3.36069">
        <ele>295</ele>
        <time>2015-05-02T09:37:49Z</time>
      </trkpt>
      <trkpt lat="43.60378" lon="3.36103">
        <ele>293</ele>
        <time>2015-05-02T09:37:57Z</time>
      </trkpt>
      <trkpt lat="43.60397" lon="3.36146">
        <ele>292</ele>
        <time>2015-05-02T09:38:03Z</time>
      </trkpt>
      <trkpt lat="43.60396" lon="3.36256">
        <ele>292</ele>
        <time>2015-05-02T09:38:15Z</time>
      </trkpt>
      <trkpt lat="43.6039" lon="3.36298">
        <ele>293</ele>
        <time>2015-05-02T09:38:19Z</time>
      </trkpt>
      <trkpt lat="43.6038" lon="3.36386">
        <ele>289</ele>
        <time>2015-05-02T09:38:27Z</time>
      </trkpt>
      <trkpt lat="43.6036" lon="3.36531">
        <ele>279</ele>
        <time>2015-05-02T09:38:42Z</time>
      </trkpt>
      <trkpt lat="43.60333" lon="3.36624">
        <ele>276</ele>
        <time>2015-05-02T09:38:52Z</time>
      </trkpt>
      <trkpt lat="43.60325" lon="3.36643">
        <ele>276</ele>
        <time>2015-05-02T09:38:54Z</time>
      </trkpt>
      <trkpt lat="43.60316" lon="3.36659">
        <ele>275</ele>
        <time>2015-05-02T09:38:56Z</time>
      </trkpt>
      <trkpt lat="43.60311" lon="3.36667">
        <ele>273</ele>
        <time>2015-05-02T09:38:57Z</time>
      </trkpt>
      <trkpt lat="43.60319" lon="3.36713">
        <ele>271</ele>
        <time>2015-05-02T09:39:03Z</time>
      </trkpt>
      <trkpt lat="43.60339" lon="3.36752">
        <ele>269</ele>
        <time>2015-05-02T09:39:08Z</time>
      </trkpt>
      <trkpt lat="43.60351" lon="3.368">
        <ele>267</ele>
        <time>2015-05-02T09:39:13Z</time>
      </trkpt>
      <trkpt lat="43.60392" lon="3.3692">
        <ele>265</ele>
        <time>2015-05-02T09:39:25Z</time>
      </trkpt>
      <trkpt lat="43.60395" lon="3.36941">
        <ele>265</ele>
        <time>2015-05-02T09:39:27Z</time>
      </trkpt>
      <trkpt lat="43.60381" lon="3.37077">
        <ele>260</ele>
        <time>2015-05-02T09:39:40Z</time>
      </trkpt>
      <trkpt lat="43.60373" lon="3.37194">
        <ele>256</ele>
        <time>2015-05-02T09:39:52Z</time>
      </trkpt>
      <trkpt lat="43.60346" lon="3.37307">
        <ele>257</ele>
        <time>2015-05-02T09:40:05Z</time>
      </trkpt>
      <trkpt lat="43.60342" lon="3.37422">
        <ele>258</ele>
        <time>2015-05-02T09:40:17Z</time>
      </trkpt>
      <trkpt lat="43.60343" lon="3.3745">
        <ele>260</ele>
        <time>2015-05-02T09:40:20Z</time>
      </trkpt>
      <trkpt lat="43.60334" lon="3.37529">
        <ele>261</ele>
        <time>2015-05-02T09:40:28Z</time>
      </trkpt>
      <trkpt lat="43.60334" lon="3.37605">
        <ele>261</ele>
        <time>2015-05-02T09:40:35Z</time>
      </trkpt>
      <trkpt lat="43.60329" lon="3.37682">
        <ele>248</ele>
        <time>2015-05-02T09:40:42Z</time>
      </trkpt>
      <trkpt lat="43.60327" lon="3.37714">
        <ele>244</ele>
        <time>2015-05-02T09:40:45Z</time>
      </trkpt>
      <trkpt lat="43.60339" lon="3.37789">
        <ele>259</ele>
        <time>2015-05-02T09:40:52Z</time>
      </trkpt>
      <trkpt lat="43.60352" lon="3.3784">
        <ele>253</ele>
        <time>2015-05-02T09:40:57Z</time>
      </trkpt>
      <trkpt lat="43.6036" lon="3.37929">
        <ele>250</ele>
        <time>2015-05-02T09:41:05Z</time>
      </trkpt>
      <trkpt lat="43.60364" lon="3.37994">
        <ele>249</ele>
        <time>2015-05-02T09:41:10Z</time>
      </trkpt>
      <trkpt lat="43.60376" lon="3.38135">
        <ele>244</ele>
        <time>2015-05-02T09:41:21Z</time>
      </trkpt>
      <trkpt lat="43.60378" lon="3.3816">
        <ele>245</ele>
        <time>2015-05-02T09:41:23Z</time>
      </trkpt>
      <trkpt lat="43.60386" lon="3.38316">
        <ele>239</ele>
        <time>2015-05-02T09:41:36Z</time>
      </trkpt>
      <trkpt lat="43.60406" lon="3.38474">
        <ele>232</ele>
        <time>2015-05-02T09:41:50Z</time>
      </trkpt>
      <trkpt lat="43.60457" lon="3.38628">
        <ele>234</ele>
        <time>2015-05-02T09:42:06Z</time>
      </trkpt>
      <trkpt lat="43.60514" lon="3.38739">
        <ele>233</ele>
        <time>2015-05-02T09:42:18Z</time>
      </trkpt>
      <trkpt lat="43.60515" lon="3.38792">
        <ele>228</ele>
        <time>2015-05-02T09:42:23Z</time>
      </trkpt>
      <trkpt lat="43.60517" lon="3.38826">
        <ele>225</ele>
        <time>2015-05-02T09:42:26Z</time>
      </trkpt>
      <trkpt lat="43.60553" lon="3.38868">
        <ele>222</ele>
        <time>2015-05-02T09:42:32Z</time>
      </trkpt>
      <trkpt lat="43.60584" lon="3.38889">
        <ele>234</ele>
        <time>2015-05-02T09:42:38Z</time>
      </trkpt>
      <trkpt lat="43.60587" lon="3.38952">
        <ele>227</ele>
        <time>2015-05-02T09:42:44Z</time>
      </trkpt>
      <trkpt lat="43.6059" lon="3.39001">
        <ele>216</ele>
        <time>2015-05-02T09:42:48Z</time>
      </trkpt>
      <trkpt lat="43.60591" lon="3.39014">
        <ele>217</ele>
        <time>2015-05-02T09:42:49Z</time>
      </trkpt>
      <trkpt lat="43.60596" lon="3.39064">
        <ele>213</ele>
        <time>2015-05-02T09:42:53Z</time>
      </trkpt>
      <trkpt lat="43.60603" lon="3.39089">
        <ele>204</ele>
        <time>2015-05-02T09:42:55Z</time>
      </trkpt>
      <trkpt lat="43.60616" lon="3.39124">
        <ele>202</ele>
        <time>2015-05-02T09:42:58Z</time>
      </trkpt>
      <trkpt lat="43.60655" lon="3.39159">
        <ele>201</ele>
        <time>2015-05-02T09:43:04Z</time>
      </trkpt>
      <trkpt lat="43.60677" lon="3.39151">
        <ele>209</ele>
        <time>2015-05-02T09:43:07Z</time>
      </trkpt>
      <trkpt lat="43.60684" lon="3.39148">
        <ele>211</ele>
        <time>2015-05-02T09:43:08Z</time>
      </trkpt>
      <trkpt lat="43.60702" lon="3.39167">
        <ele>203</ele>
        <time>2015-05-02T09:43:12Z</time>
      </trkpt>
      <trkpt lat="43.60704" lon="3.39182">
        <ele>203</ele>
        <time>2015-05-02T09:43:13Z</time>
      </trkpt>
      <trkpt lat="43.60714" lon="3.39223">
        <ele>202</ele>
        <time>2015-05-02T09:43:17Z</time>
      </trkpt>
      <trkpt lat="43.60718" lon="3.39235">
        <ele>202</ele>
        <time>2015-05-02T09:43:18Z</time>
      </trkpt>
      <trkpt lat="43.6072" lon="3.39248">
        <ele>202</ele>
        <time>2015-05-02T09:43:19Z</time>
      </trkpt>
      <trkpt lat="43.60728" lon="3.39298">
        <ele>192</ele>
        <time>2015-05-02T09:43:23Z</time>
      </trkpt>
      <trkpt lat="43.60739" lon="3.39344">
        <ele>187</ele>
        <time>2015-05-02T09:43:27Z</time>
      </trkpt>
      <trkpt lat="43.60753" lon="3.39385">
        <ele>189</ele>
        <time>2015-05-02T09:43:31Z</time>
      </trkpt>
      <trkpt lat="43.60758" lon="3.39402">
        <ele>185</ele>
        <time>2015-05-02T09:43:33Z</time>
      </trkpt>
      <trkpt lat="43.60762" lon="3.39422">
        <ele>178</ele>
        <time>2015-05-02T09:43:37Z</time>
      </trkpt>
      <trkpt lat="43.60764" lon="3.39425">
        <ele>178</ele>
        <time>2015-05-02T09:43:46Z</time>
      </trkpt>
      <trkpt lat="43.60765" lon="3.39428">
        <ele>178</ele>
        <time>2015-05-02T09:43:48Z</time>
      </trkpt>
      <trkpt lat="43.60761" lon="3.39431">
        <ele>178</ele>
        <time>2015-05-02T09:44:05Z</time>
      </trkpt>
      <trkpt lat="43.60762" lon="3.39428">
        <ele>178</ele>
        <time>2015-05-02T09:44:32Z</time>
      </trkpt>
      <trkpt lat="43.60761" lon="3.39428">
        <ele>178</ele>
        <time>2015-05-02T09:45:09Z</time>
      </trkpt>
      <trkpt lat="43.60759" lon="3.39429">
        <ele>178</ele>
        <time>2015-05-02T09:45:43Z</time>
      </trkpt>
      <trkpt lat="43.60761" lon="3.39429">
        <ele>178</ele>
        <time>2015-05-02T09:46:10Z</time>
      </trkpt>
      <trkpt lat="43.6076" lon="3.39428">
        <ele>178</ele>
        <time>2015-05-02T09:46:46Z</time>
      </trkpt>
      <trkpt lat="43.60763" lon="3.39429">
        <ele>178</ele>
        <time>2015-05-02T09:47:26Z</time>
      </trkpt>
      <trkpt lat="43.60762" lon="3.3943">
        <ele>178</ele>
        <time>2015-05-02T09:48:06Z</time>
      </trkpt>
      <trkpt lat="43.6076" lon="3.39426">
        <ele>178</ele>
        <time>2015-05-02T09:48:39Z</time>
      </trkpt>
      <trkpt lat="43.60761" lon="3.39425">
        <ele>178</ele>
        <time>2015-05-02T09:49:22Z</time>
      </trkpt>
      <trkpt lat="43.60762" lon="3.39425">
        <ele>178</ele>
        <time>2015-05-02T09:50:00Z</time>
      </trkpt>
      <trkpt lat="43.60762" lon="3.39426">
        <ele>178</ele>
        <time>2015-05-02T09:50:42Z</time>
      </trkpt>
      <trkpt lat="43.60764" lon="3.39426">
        <ele>178</ele>
        <time>2015-05-02T09:50:46Z</time>
      </trkpt>
      <trkpt lat="43.60765" lon="3.39445">
        <ele>177</ele>
        <time>2015-05-02T09:50:52Z</time>
      </trkpt>
      <trkpt lat="43.60759" lon="3.39453">
        <ele>176</ele>
        <time>2015-05-02T09:50:54Z</time>
      </trkpt>
      <trkpt lat="43.60751" lon="3.39463">
        <ele>175</ele>
        <time>2015-05-02T09:50:56Z</time>
      </trkpt>
      <trkpt lat="43.60746" lon="3.39469">
        <ele>169</ele>
        <time>2015-05-02T09:50:57Z</time>
      </trkpt>
      <trkpt lat="43.60736" lon="3.39477">
        <ele>169</ele>
        <time>2015-05-02T09:50:59Z</time>
      </trkpt>
      <trkpt lat="43.60724" lon="3.39483">
        <ele>168</ele>
        <time>2015-05-02T09:51:01Z</time>
      </trkpt>
      <trkpt lat="43.60704" lon="3.39491">
        <ele>167</ele>
        <time>2015-05-02T09:51:04Z</time>
      </trkpt>
      <trkpt lat="43.60685" lon="3.395">
        <ele>164</ele>
        <time>2015-05-02T09:51:07Z</time>
      </trkpt>
      <trkpt lat="43.60667" lon="3.39509">
        <ele>160</ele>
        <time>2015-05-02T09:51:10Z</time>
      </trkpt>
      <trkpt lat="43.60649" lon="3.39531">
        <ele>155</ele>
        <time>2015-05-02T09:51:15Z</time>
      </trkpt>
      <trkpt lat="43.60647" lon="3.3954">
        <ele>155</ele>
        <time>2015-05-02T09:51:17Z</time>
      </trkpt>
      <trkpt lat="43.60604" lon="3.39526">
        <ele>154</ele>
        <time>2015-05-02T10:08:17Z</time>
      </trkpt>
      <trkpt lat="43.60576" lon="3.39523">
        <ele>150</ele>
        <time>2015-05-02T10:08:31Z</time>
      </trkpt>
      <trkpt lat="43.6057" lon="3.39527">
        <ele>150</ele>
        <time>2015-05-02T10:08:33Z</time>
      </trkpt>
      <trkpt lat="43.60565" lon="3.39536">
        <ele>149</ele>
        <time>2015-05-02T10:08:35Z</time>
      </trkpt>
      <trkpt lat="43.60558" lon="3.39554">
        <ele>148</ele>
        <time>2015-05-02T10:08:38Z</time>
      </trkpt>
      <trkpt lat="43.60541" lon="3.39591">
        <ele>144</ele>
        <time>2015-05-02T10:08:44Z</time>
      </trkpt>
      <trkpt lat="43.60521" lon="3.39604">
        <ele>143</ele>
        <time>2015-05-02T10:08:48Z</time>
      </trkpt>
      <trkpt lat="43.60515" lon="3.39599">
        <ele>143</ele>
        <time>2015-05-02T10:08:49Z</time>
      </trkpt>
      <trkpt lat="43.60514" lon="3.39569">
        <ele>145</ele>
        <time>2015-05-02T10:08:52Z</time>
      </trkpt>
      <trkpt lat="43.60508" lon="3.39546">
        <ele>147</ele>
        <time>2015-05-02T10:08:56Z</time>
      </trkpt>
      <trkpt lat="43.60481" lon="3.3957">
        <ele>142</ele>
        <time>2015-05-02T10:09:06Z</time>
      </trkpt>
      <trkpt lat="43.60455" lon="3.39578">
        <ele>141</ele>
        <time>2015-05-02T10:09:12Z</time>
      </trkpt>
      <trkpt lat="43.6043" lon="3.3957">
        <ele>140</ele>
        <time>2015-05-02T10:09:17Z</time>
      </trkpt>
      <trkpt lat="43.60417" lon="3.39561">
        <ele>140</ele>
        <time>2015-05-02T10:09:20Z</time>
      </trkpt>
      <trkpt lat="43.60384" lon="3.39551">
        <ele>142</ele>
        <time>2015-05-02T10:09:29Z</time>
      </trkpt>
      <trkpt lat="43.60383" lon="3.39557">
        <ele>142</ele>
        <time>2015-05-02T10:09:30Z</time>
      </trkpt>
      <trkpt lat="43.60382" lon="3.39627">
        <ele>144</ele>
        <time>2015-05-02T10:09:41Z</time>
      </trkpt>
      <trkpt lat="43.60401" lon="3.39683">
        <ele>143</ele>
        <time>2015-05-02T10:09:50Z</time>
      </trkpt>
      <trkpt lat="43.60394" lon="3.39737">
        <ele>143</ele>
        <time>2015-05-02T10:10:02Z</time>
      </trkpt>
      <trkpt lat="43.60375" lon="3.39799">
        <ele>143</ele>
        <time>2015-05-02T10:10:18Z</time>
      </trkpt>
      <trkpt lat="43.60376" lon="3.39842">
        <ele>139</ele>
        <time>2015-05-02T10:10:27Z</time>
      </trkpt>
      <trkpt lat="43.60382" lon="3.39892">
        <ele>138</ele>
        <time>2015-05-02T10:10:33Z</time>
      </trkpt>
      <trkpt lat="43.60382" lon="3.39901">
        <ele>138</ele>
        <time>2015-05-02T10:10:34Z</time>
      </trkpt>
      <trkpt lat="43.60373" lon="3.39967">
        <ele>137</ele>
        <time>2015-05-02T10:10:40Z</time>
      </trkpt>
      <trkpt lat="43.60367" lon="3.40038">
        <ele>135</ele>
        <time>2015-05-02T10:10:47Z</time>
      </trkpt>
      <trkpt lat="43.60348" lon="3.40054">
        <ele>134</ele>
        <time>2015-05-02T10:10:53Z</time>
      </trkpt>
      <trkpt lat="43.60321" lon="3.40098">
        <ele>131</ele>
        <time>2015-05-02T10:11:06Z</time>
      </trkpt>
      <trkpt lat="43.60309" lon="3.40125">
        <ele>130</ele>
        <time>2015-05-02T10:11:12Z</time>
      </trkpt>
      <trkpt lat="43.60277" lon="3.40173">
        <ele>126</ele>
        <time>2015-05-02T10:11:21Z</time>
      </trkpt>
      <trkpt lat="43.60269" lon="3.40209">
        <ele>125</ele>
        <time>2015-05-02T10:11:26Z</time>
      </trkpt>
      <trkpt lat="43.60274" lon="3.40243">
        <ele>124</ele>
        <time>2015-05-02T10:11:30Z</time>
      </trkpt>
      <trkpt lat="43.60277" lon="3.40309">
        <ele>124</ele>
        <time>2015-05-02T10:11:38Z</time>
      </trkpt>
      <trkpt lat="43.60273" lon="3.40326">
        <ele>123</ele>
        <time>2015-05-02T10:11:40Z</time>
      </trkpt>
      <trkpt lat="43.60257" lon="3.40361">
        <ele>126</ele>
        <time>2015-05-02T10:11:45Z</time>
      </trkpt>
      <trkpt lat="43.60245" lon="3.40369">
        <ele>123</ele>
        <time>2015-05-02T10:11:49Z</time>
      </trkpt>
      <trkpt lat="43.60222" lon="3.40324">
        <ele>123</ele>
        <time>2015-05-02T10:12:06Z</time>
      </trkpt>
      <trkpt lat="43.60215" lon="3.40293">
        <ele>124</ele>
        <time>2015-05-02T10:12:21Z</time>
      </trkpt>
      <trkpt lat="43.60195" lon="3.40262">
        <ele>125</ele>
        <time>2015-05-02T10:12:39Z</time>
      </trkpt>
      <trkpt lat="43.60168" lon="3.40232">
        <ele>128</ele>
        <time>2015-05-02T10:12:59Z</time>
      </trkpt>
      <trkpt lat="43.60139" lon="3.40226">
        <ele>133</ele>
        <time>2015-05-02T10:13:17Z</time>
      </trkpt>
      <trkpt lat="43.60111" lon="3.4023">
        <ele>134</ele>
        <time>2015-05-02T10:13:34Z</time>
      </trkpt>
      <trkpt lat="43.60097" lon="3.40262">
        <ele>133</ele>
        <time>2015-05-02T10:13:49Z</time>
      </trkpt>
      <trkpt lat="43.60096" lon="3.40317">
        <ele>132</ele>
        <time>2015-05-02T10:14:07Z</time>
      </trkpt>
      <trkpt lat="43.60087" lon="3.40373">
        <ele>131</ele>
        <time>2015-05-02T10:14:18Z</time>
      </trkpt>
      <trkpt lat="43.60069" lon="3.40387">
        <ele>136</ele>
        <time>2015-05-02T10:14:27Z</time>
      </trkpt>
      <trkpt lat="43.60046" lon="3.4038">
        <ele>138</ele>
        <time>2015-05-02T10:14:42Z</time>
      </trkpt>
      <trkpt lat="43.60024" lon="3.40376">
        <ele>139</ele>
        <time>2015-05-02T10:14:57Z</time>
      </trkpt>
      <trkpt lat="43.60011" lon="3.40373">
        <ele>140</ele>
        <time>2015-05-02T10:15:07Z</time>
      </trkpt>
      <trkpt lat="43.59992" lon="3.40364">
        <ele>148</ele>
        <time>2015-05-02T10:15:23Z</time>
      </trkpt>
      <trkpt lat="43.59971" lon="3.40351">
        <ele>150</ele>
        <time>2015-05-02T10:15:41Z</time>
      </trkpt>
      <trkpt lat="43.59956" lon="3.40362">
        <ele>151</ele>
        <time>2015-05-02T10:15:55Z</time>
      </trkpt>
      <trkpt lat="43.59949" lon="3.40385">
        <ele>151</ele>
        <time>2015-05-02T10:16:10Z</time>
      </trkpt>
      <trkpt lat="43.59944" lon="3.40396">
        <ele>152</ele>
        <time>2015-05-02T10:16:24Z</time>
      </trkpt>
      <trkpt lat="43.5994" lon="3.40397">
        <ele>152</ele>
        <time>2015-05-02T10:16:39Z</time>
      </trkpt>
      <trkpt lat="43.59939" lon="3.40398">
        <ele>152</ele>
        <time>2015-05-02T10:16:41Z</time>
      </trkpt>
      <trkpt lat="43.59926" lon="3.40399">
        <ele>153</ele>
        <time>2015-05-02T10:16:58Z</time>
      </trkpt>
      <trkpt lat="43.59915" lon="3.40387">
        <ele>163</ele>
        <time>2015-05-02T10:17:18Z</time>
      </trkpt>
      <trkpt lat="43.59907" lon="3.40378">
        <ele>164</ele>
        <time>2015-05-02T10:17:30Z</time>
      </trkpt>
      <trkpt lat="43.5989" lon="3.40362">
        <ele>166</ele>
        <time>2015-05-02T10:17:50Z</time>
      </trkpt>
      <trkpt lat="43.59878" lon="3.4037">
        <ele>167</ele>
        <time>2015-05-02T10:18:09Z</time>
      </trkpt>
      <trkpt lat="43.59875" lon="3.40377">
        <ele>167</ele>
        <time>2015-05-02T10:18:28Z</time>
      </trkpt>
      <trkpt lat="43.5987" lon="3.40383">
        <ele>167</ele>
        <time>2015-05-02T10:18:34Z</time>
      </trkpt>
      <trkpt lat="43.59861" lon="3.40408">
        <ele>168</ele>
        <time>2015-05-02T10:18:53Z</time>
      </trkpt>
      <trkpt lat="43.5986" lon="3.40417">
        <ele>165</ele>
        <time>2015-05-02T10:19:08Z</time>
      </trkpt>
      <trkpt lat="43.59845" lon="3.40431">
        <ele>166</ele>
        <time>2015-05-02T10:19:28Z</time>
      </trkpt>
      <trkpt lat="43.59838" lon="3.4043">
        <ele>167</ele>
        <time>2015-05-02T10:19:35Z</time>
      </trkpt>
      <trkpt lat="43.5983" lon="3.40426">
        <ele>174</ele>
        <time>2015-05-02T10:19:54Z</time>
      </trkpt>
      <trkpt lat="43.59825" lon="3.40423">
        <ele>174</ele>
        <time>2015-05-02T10:20:04Z</time>
      </trkpt>
      <trkpt lat="43.5981" lon="3.40409">
        <ele>180</ele>
        <time>2015-05-02T10:20:24Z</time>
      </trkpt>
      <trkpt lat="43.5981" lon="3.40393">
        <ele>182</ele>
        <time>2015-05-02T10:20:36Z</time>
      </trkpt>
      <trkpt lat="43.59819" lon="3.40373">
        <ele>183</ele>
        <time>2015-05-02T10:20:53Z</time>
      </trkpt>
      <trkpt lat="43.59819" lon="3.4037">
        <ele>183</ele>
        <time>2015-05-02T10:20:55Z</time>
      </trkpt>
      <trkpt lat="43.59818" lon="3.40365">
        <ele>183</ele>
        <time>2015-05-02T10:20:59Z</time>
      </trkpt>
      <trkpt lat="43.5981" lon="3.40365">
        <ele>184</ele>
        <time>2015-05-02T10:21:13Z</time>
      </trkpt>
      <trkpt lat="43.598" lon="3.40372">
        <ele>184</ele>
        <time>2015-05-02T10:21:28Z</time>
      </trkpt>
      <trkpt lat="43.59799" lon="3.40372">
        <ele>184</ele>
        <time>2015-05-02T10:21:29Z</time>
      </trkpt>
      <trkpt lat="43.59784" lon="3.40367">
        <ele>186</ele>
        <time>2015-05-02T10:21:48Z</time>
      </trkpt>
      <trkpt lat="43.59788" lon="3.40349">
        <ele>187</ele>
        <time>2015-05-02T10:22:04Z</time>
      </trkpt>
      <trkpt lat="43.59795" lon="3.40334">
        <ele>186</ele>
        <time>2015-05-02T10:22:19Z</time>
      </trkpt>
      <trkpt lat="43.598" lon="3.4032">
        <ele>192</ele>
        <time>2015-05-02T10:22:35Z</time>
      </trkpt>
      <trkpt lat="43.59802" lon="3.40305">
        <ele>193</ele>
        <time>2015-05-02T10:22:50Z</time>
      </trkpt>
      <trkpt lat="43.59804" lon="3.40286">
        <ele>194</ele>
        <time>2015-05-02T10:23:07Z</time>
      </trkpt>
      <trkpt lat="43.59803" lon="3.40267">
        <ele>195</ele>
        <time>2015-05-02T10:23:24Z</time>
      </trkpt>
      <trkpt lat="43.59804" lon="3.40246">
        <ele>200</ele>
        <time>2015-05-02T10:23:41Z</time>
      </trkpt>
      <trkpt lat="43.59804" lon="3.40245">
        <ele>200</ele>
        <time>2015-05-02T10:23:42Z</time>
      </trkpt>
      <trkpt lat="43.59806" lon="3.40224">
        <ele>201</ele>
        <time>2015-05-02T10:23:59Z</time>
      </trkpt>
      <trkpt lat="43.59807" lon="3.40206">
        <ele>202</ele>
        <time>2015-05-02T10:24:15Z</time>
      </trkpt>
      <trkpt lat="43.59814" lon="3.40176">
        <ele>201</ele>
        <time>2015-05-02T10:24:30Z</time>
      </trkpt>
      <trkpt lat="43.59825" lon="3.40147">
        <ele>203</ele>
        <time>2015-05-02T10:24:45Z</time>
      </trkpt>
      <trkpt lat="43.59837" lon="3.40114">
        <ele>193</ele>
        <time>2015-05-02T10:24:59Z</time>
      </trkpt>
      <trkpt lat="43.5986" lon="3.40064">
        <ele>193</ele>
        <time>2015-05-02T10:25:14Z</time>
      </trkpt>
      <trkpt lat="43.5987" lon="3.40049">
        <ele>192</ele>
        <time>2015-05-02T10:25:17Z</time>
      </trkpt>
      <trkpt lat="43.59892" lon="3.40012">
        <ele>189</ele>
        <time>2015-05-02T10:25:28Z</time>
      </trkpt>
      <trkpt lat="43.59886" lon="3.40006">
        <ele>190</ele>
        <time>2015-05-02T10:25:32Z</time>
      </trkpt>
      <trkpt lat="43.59849" lon="3.40008">
        <ele>195</ele>
        <time>2015-05-02T10:25:51Z</time>
      </trkpt>
      <trkpt lat="43.59812" lon="3.39993">
        <ele>199</ele>
        <time>2015-05-02T10:26:10Z</time>
      </trkpt>
      <trkpt lat="43.59776" lon="3.39969">
        <ele>201</ele>
        <time>2015-05-02T10:26:30Z</time>
      </trkpt>
      <trkpt lat="43.5975" lon="3.39949">
        <ele>214</ele>
        <time>2015-05-02T10:26:51Z</time>
      </trkpt>
      <trkpt lat="43.5973" lon="3.39927">
        <ele>213</ele>
        <time>2015-05-02T10:27:09Z</time>
      </trkpt>
      <trkpt lat="43.59708" lon="3.39896">
        <ele>211</ele>
        <time>2015-05-02T10:27:31Z</time>
      </trkpt>
      <trkpt lat="43.59689" lon="3.39864">
        <ele>211</ele>
        <time>2015-05-02T10:27:52Z</time>
      </trkpt>
      <trkpt lat="43.5967" lon="3.39839">
        <ele>214</ele>
        <time>2015-05-02T10:28:08Z</time>
      </trkpt>
      <trkpt lat="43.59654" lon="3.3982">
        <ele>223</ele>
        <time>2015-05-02T10:28:23Z</time>
      </trkpt>
      <trkpt lat="43.59641" lon="3.39788">
        <ele>228</ele>
        <time>2015-05-02T10:28:41Z</time>
      </trkpt>
      <trkpt lat="43.59636" lon="3.39781">
        <ele>229</ele>
        <time>2015-05-02T10:28:46Z</time>
      </trkpt>
      <trkpt lat="43.59621" lon="3.39756">
        <ele>231</ele>
        <time>2015-05-02T10:29:03Z</time>
      </trkpt>
      <trkpt lat="43.59632" lon="3.39738">
        <ele>230</ele>
        <time>2015-05-02T10:29:11Z</time>
      </trkpt>
      <trkpt lat="43.59675" lon="3.39716">
        <ele>215</ele>
        <time>2015-05-02T10:29:30Z</time>
      </trkpt>
      <trkpt lat="43.59686" lon="3.39688">
        <ele>215</ele>
        <time>2015-05-02T10:29:43Z</time>
      </trkpt>
      <trkpt lat="43.5969" lon="3.39642">
        <ele>213</ele>
        <time>2015-05-02T10:30:01Z</time>
      </trkpt>
      <trkpt lat="43.59676" lon="3.3961">
        <ele>212</ele>
        <time>2015-05-02T10:30:18Z</time>
      </trkpt>
      <trkpt lat="43.59646" lon="3.39597">
        <ele>222</ele>
        <time>2015-05-02T10:30:37Z</time>
      </trkpt>
      <trkpt lat="43.59622" lon="3.39598">
        <ele>224</ele>
        <time>2015-05-02T10:30:54Z</time>
      </trkpt>
      <trkpt lat="43.59604" lon="3.39603">
        <ele>225</ele>
        <time>2015-05-02T10:31:09Z</time>
      </trkpt>
      <trkpt lat="43.59605" lon="3.39598">
        <ele>225</ele>
        <time>2015-05-02T10:31:14Z</time>
      </trkpt>
      <trkpt lat="43.59607" lon="3.39598">
        <ele>225</ele>
        <time>2015-05-02T10:31:16Z</time>
      </trkpt>
      <trkpt lat="43.59605" lon="3.39612">
        <ele>226</ele>
        <time>2015-05-02T10:31:25Z</time>
      </trkpt>
      <trkpt lat="43.5958" lon="3.39619">
        <ele>234</ele>
        <time>2015-05-02T10:31:42Z</time>
      </trkpt>
      <trkpt lat="43.59555" lon="3.39621">
        <ele>236</ele>
        <time>2015-05-02T10:31:59Z</time>
      </trkpt>
      <trkpt lat="43.59529" lon="3.39614">
        <ele>237</ele>
        <time>2015-05-02T10:32:17Z</time>
      </trkpt>
      <trkpt lat="43.595" lon="3.39604">
        <ele>242</ele>
        <time>2015-05-02T10:32:37Z</time>
      </trkpt>
      <trkpt lat="43.59475" lon="3.39597">
        <ele>245</ele>
        <time>2015-05-02T10:32:53Z</time>
      </trkpt>
      <trkpt lat="43.59448" lon="3.3959">
        <ele>248</ele>
        <time>2015-05-02T10:33:12Z</time>
      </trkpt>
      <trkpt lat="43.59413" lon="3.39579">
        <ele>248</ele>
        <time>2015-05-02T10:33:35Z</time>
      </trkpt>
      <trkpt lat="43.59389" lon="3.39571">
        <ele>247</ele>
        <time>2015-05-02T10:33:51Z</time>
      </trkpt>
      <trkpt lat="43.59363" lon="3.39567">
        <ele>248</ele>
        <time>2015-05-02T10:34:09Z</time>
      </trkpt>
      <trkpt lat="43.59338" lon="3.39567">
        <ele>250</ele>
        <time>2015-05-02T10:34:26Z</time>
      </trkpt>
      <trkpt lat="43.59328" lon="3.39565">
        <ele>254</ele>
        <time>2015-05-02T10:34:34Z</time>
      </trkpt>
      <trkpt lat="43.59303" lon="3.39575">
        <ele>254</ele>
        <time>2015-05-02T10:34:52Z</time>
      </trkpt>
      <trkpt lat="43.59293" lon="3.39582">
        <ele>255</ele>
        <time>2015-05-02T10:34:59Z</time>
      </trkpt>
      <trkpt lat="43.59287" lon="3.39582">
        <ele>255</ele>
        <time>2015-05-02T10:35:13Z</time>
      </trkpt>
      <trkpt lat="43.59281" lon="3.39588">
        <ele>263</ele>
        <time>2015-05-02T10:35:35Z</time>
      </trkpt>
      <trkpt lat="43.59271" lon="3.3961">
        <ele>265</ele>
        <time>2015-05-02T10:35:47Z</time>
      </trkpt>
      <trkpt lat="43.59264" lon="3.39614">
        <ele>265</ele>
        <time>2015-05-02T10:35:52Z</time>
      </trkpt>
      <trkpt lat="43.59241" lon="3.39587">
        <ele>266</ele>
        <time>2015-05-02T10:36:10Z</time>
      </trkpt>
      <trkpt lat="43.59221" lon="3.39562">
        <ele>267</ele>
        <time>2015-05-02T10:36:28Z</time>
      </trkpt>
      <trkpt lat="43.59203" lon="3.39534">
        <ele>268</ele>
        <time>2015-05-02T10:36:46Z</time>
      </trkpt>
      <trkpt lat="43.59188" lon="3.39506">
        <ele>269</ele>
        <time>2015-05-02T10:37:04Z</time>
      </trkpt>
      <trkpt lat="43.5917" lon="3.39478">
        <ele>268</ele>
        <time>2015-05-02T10:37:24Z</time>
      </trkpt>
      <trkpt lat="43.59152" lon="3.39451">
        <ele>276</ele>
        <time>2015-05-02T10:37:43Z</time>
      </trkpt>
      <trkpt lat="43.5914" lon="3.39422">
        <ele>275</ele>
        <time>2015-05-02T10:37:58Z</time>
      </trkpt>
      <trkpt lat="43.59134" lon="3.39389">
        <ele>276</ele>
        <time>2015-05-02T10:38:15Z</time>
      </trkpt>
      <trkpt lat="43.59131" lon="3.39365">
        <ele>276</ele>
        <time>2015-05-02T10:38:29Z</time>
      </trkpt>
      <trkpt lat="43.59122" lon="3.39381">
        <ele>276</ele>
        <time>2015-05-02T10:38:41Z</time>
      </trkpt>
      <trkpt lat="43.59122" lon="3.3939">
        <ele>276</ele>
        <time>2015-05-02T10:38:45Z</time>
      </trkpt>
      <trkpt lat="43.59121" lon="3.39434">
        <ele>278</ele>
        <time>2015-05-02T10:39:03Z</time>
      </trkpt>
      <trkpt lat="43.59127" lon="3.39481">
        <ele>278</ele>
        <time>2015-05-02T10:39:21Z</time>
      </trkpt>
      <trkpt lat="43.59139" lon="3.39525">
        <ele>281</ele>
        <time>2015-05-02T10:39:38Z</time>
      </trkpt>
      <trkpt lat="43.59145" lon="3.39561">
        <ele>282</ele>
        <time>2015-05-02T10:39:54Z</time>
      </trkpt>
      <trkpt lat="43.59148" lon="3.39604">
        <ele>284</ele>
        <time>2015-05-02T10:40:12Z</time>
      </trkpt>
      <trkpt lat="43.59147" lon="3.3965">
        <ele>284</ele>
        <time>2015-05-02T10:40:29Z</time>
      </trkpt>
      <trkpt lat="43.59142" lon="3.39703">
        <ele>286</ele>
        <time>2015-05-02T10:40:46Z</time>
      </trkpt>
      <trkpt lat="43.59136" lon="3.3976">
        <ele>288</ele>
        <time>2015-05-02T10:41:03Z</time>
      </trkpt>
      <trkpt lat="43.59101" lon="3.3982">
        <ele>287</ele>
        <time>2015-05-02T10:41:21Z</time>
      </trkpt>
      <trkpt lat="43.59094" lon="3.3983">
        <ele>286</ele>
        <time>2015-05-02T10:41:23Z</time>
      </trkpt>
      <trkpt lat="43.59064" lon="3.39842">
        <ele>283</ele>
        <time>2015-05-02T10:41:29Z</time>
      </trkpt>
      <trkpt lat="43.5904" lon="3.39838">
        <ele>282</ele>
        <time>2015-05-02T10:41:34Z</time>
      </trkpt>
      <trkpt lat="43.59016" lon="3.39846">
        <ele>282</ele>
        <time>2015-05-02T10:41:39Z</time>
      </trkpt>
      <trkpt lat="43.59001" lon="3.3985">
        <ele>282</ele>
        <time>2015-05-02T10:41:43Z</time>
      </trkpt>
      <trkpt lat="43.58962" lon="3.3987">
        <ele>281</ele>
        <time>2015-05-02T10:42:00Z</time>
      </trkpt>
      <trkpt lat="43.58961" lon="3.39873">
        <ele>281</ele>
        <time>2015-05-02T10:42:02Z</time>
      </trkpt>
      <trkpt lat="43.58968" lon="3.3987">
        <ele>281</ele>
        <time>2015-05-02T10:42:07Z</time>
      </trkpt>
      <trkpt lat="43.58994" lon="3.3984">
        <ele>282</ele>
        <time>2015-05-02T10:42:22Z</time>
      </trkpt>
      <trkpt lat="43.58969" lon="3.39809">
        <ele>283</ele>
        <time>2015-05-02T10:42:35Z</time>
      </trkpt>
      <trkpt lat="43.58921" lon="3.39807">
        <ele>282</ele>
        <time>2015-05-02T10:42:49Z</time>
      </trkpt>
      <trkpt lat="43.58871" lon="3.39827">
        <ele>281</ele>
        <time>2015-05-02T10:43:05Z</time>
      </trkpt>
      <trkpt lat="43.58815" lon="3.39836">
        <ele>282</ele>
        <time>2015-05-02T10:43:22Z</time>
      </trkpt>
      <trkpt lat="43.58752" lon="3.39837">
        <ele>281</ele>
        <time>2015-05-02T10:43:39Z</time>
      </trkpt>
      <trkpt lat="43.58692" lon="3.39838">
        <ele>284</ele>
        <time>2015-05-02T10:43:55Z</time>
      </trkpt>
      <trkpt lat="43.58635" lon="3.39842">
        <ele>284</ele>
        <time>2015-05-02T10:44:11Z</time>
      </trkpt>
      <trkpt lat="43.58584" lon="3.39876">
        <ele>285</ele>
        <time>2015-05-02T10:44:28Z</time>
      </trkpt>
      <trkpt lat="43.58524" lon="3.39916">
        <ele>283</ele>
        <time>2015-05-02T10:44:47Z</time>
      </trkpt>
      <trkpt lat="43.58514" lon="3.39919">
        <ele>286</ele>
        <time>2015-05-02T10:44:50Z</time>
      </trkpt>
      <trkpt lat="43.5846" lon="3.39927">
        <ele>287</ele>
        <time>2015-05-02T10:45:07Z</time>
      </trkpt>
      <trkpt lat="43.5841" lon="3.39937">
        <ele>280</ele>
        <time>2015-05-02T10:45:21Z</time>
      </trkpt>
      <trkpt lat="43.58394" lon="3.39936">
        <ele>279</ele>
        <time>2015-05-02T10:45:26Z</time>
      </trkpt>
      <trkpt lat="43.5839" lon="3.3992">
        <ele>278</ele>
        <time>2015-05-02T10:45:29Z</time>
      </trkpt>
      <trkpt lat="43.58393" lon="3.39904">
        <ele>275</ele>
        <time>2015-05-02T10:45:31Z</time>
      </trkpt>
      <trkpt lat="43.58398" lon="3.39891">
        <ele>275</ele>
        <time>2015-05-02T10:45:33Z</time>
      </trkpt>
      <trkpt lat="43.58416" lon="3.39856">
        <ele>273</ele>
        <time>2015-05-02T10:45:39Z</time>
      </trkpt>
      <trkpt lat="43.58431" lon="3.39822">
        <ele>271</ele>
        <time>2015-05-02T10:45:44Z</time>
      </trkpt>
      <trkpt lat="43.58433" lon="3.39815">
        <ele>270</ele>
        <time>2015-05-02T10:45:45Z</time>
      </trkpt>
      <trkpt lat="43.58416" lon="3.39782">
        <ele>267</ele>
        <time>2015-05-02T10:45:51Z</time>
      </trkpt>
      <trkpt lat="43.58403" lon="3.39776">
        <ele>266</ele>
        <time>2015-05-02T10:45:53Z</time>
      </trkpt>
      <trkpt lat="43.58373" lon="3.39736">
        <ele>262</ele>
        <time>2015-05-02T10:46:00Z</time>
      </trkpt>
      <trkpt lat="43.58372" lon="3.39729">
        <ele>262</ele>
        <time>2015-05-02T10:46:01Z</time>
      </trkpt>
      <trkpt lat="43.58373" lon="3.39687">
        <ele>260</ele>
        <time>2015-05-02T10:46:06Z</time>
      </trkpt>
      <trkpt lat="43.5837" lon="3.39656">
        <ele>256</ele>
        <time>2015-05-02T10:46:09Z</time>
      </trkpt>
      <trkpt lat="43.58368" lon="3.39637">
        <ele>256</ele>
        <time>2015-05-02T10:46:11Z</time>
      </trkpt>
      <trkpt lat="43.58381" lon="3.39594">
        <ele>254</ele>
        <time>2015-05-02T10:46:16Z</time>
      </trkpt>
      <trkpt lat="43.58391" lon="3.39582">
        <ele>248</ele>
        <time>2015-05-02T10:46:18Z</time>
      </trkpt>
      <trkpt lat="43.58394" lon="3.39555">
        <ele>247</ele>
        <time>2015-05-02T10:46:22Z</time>
      </trkpt>
      <trkpt lat="43.58386" lon="3.3954">
        <ele>247</ele>
        <time>2015-05-02T10:46:24Z</time>
      </trkpt>
      <trkpt lat="43.58382" lon="3.39532">
        <ele>247</ele>
        <time>2015-05-02T10:46:25Z</time>
      </trkpt>
      <trkpt lat="43.58376" lon="3.39516">
        <ele>247</ele>
        <time>2015-05-02T10:46:27Z</time>
      </trkpt>
      <trkpt lat="43.58359" lon="3.39465">
        <ele>243</ele>
        <time>2015-05-02T10:46:38Z</time>
      </trkpt>
      <trkpt lat="43.58353" lon="3.39444">
        <ele>242</ele>
        <time>2015-05-02T10:46:42Z</time>
      </trkpt>
      <trkpt lat="43.58321" lon="3.39406">
        <ele>244</ele>
        <time>2015-05-02T10:46:55Z</time>
      </trkpt>
      <trkpt lat="43.58285" lon="3.39376">
        <ele>242</ele>
        <time>2015-05-02T10:47:05Z</time>
      </trkpt>
      <trkpt lat="43.58282" lon="3.39373">
        <ele>242</ele>
        <time>2015-05-02T10:47:06Z</time>
      </trkpt>
      <trkpt lat="43.5828" lon="3.39369">
        <ele>242</ele>
        <time>2015-05-02T10:47:07Z</time>
      </trkpt>
      <trkpt lat="43.58284" lon="3.39355">
        <ele>241</ele>
        <time>2015-05-02T10:47:11Z</time>
      </trkpt>
      <trkpt lat="43.583" lon="3.39322">
        <ele>238</ele>
        <time>2015-05-02T10:47:17Z</time>
      </trkpt>
      <trkpt lat="43.58306" lon="3.39298">
        <ele>238</ele>
        <time>2015-05-02T10:47:20Z</time>
      </trkpt>
      <trkpt lat="43.58337" lon="3.39252">
        <ele>232</ele>
        <time>2015-05-02T10:47:27Z</time>
      </trkpt>
      <trkpt lat="43.58358" lon="3.39224">
        <ele>227</ele>
        <time>2015-05-02T10:47:31Z</time>
      </trkpt>
      <trkpt lat="43.58375" lon="3.39205">
        <ele>225</ele>
        <time>2015-05-02T10:47:34Z</time>
      </trkpt>
      <trkpt lat="43.58408" lon="3.39137">
        <ele>224</ele>
        <time>2015-05-02T10:47:42Z</time>
      </trkpt>
      <trkpt lat="43.58418" lon="3.39112">
        <ele>215</ele>
        <time>2015-05-02T10:47:45Z</time>
      </trkpt>
      <trkpt lat="43.58426" lon="3.39072">
        <ele>217</ele>
        <time>2015-05-02T10:47:50Z</time>
      </trkpt>
      <trkpt lat="43.58442" lon="3.39036">
        <ele>214</ele>
        <time>2015-05-02T10:47:54Z</time>
      </trkpt>
      <trkpt lat="43.5845" lon="3.39008">
        <ele>213</ele>
        <time>2015-05-02T10:47:57Z</time>
      </trkpt>
      <trkpt lat="43.58457" lon="3.3896">
        <ele>213</ele>
        <time>2015-05-02T10:48:02Z</time>
      </trkpt>
      <trkpt lat="43.58459" lon="3.3895">
        <ele>212</ele>
        <time>2015-05-02T10:48:03Z</time>
      </trkpt>
      <trkpt lat="43.58476" lon="3.38908">
        <ele>210</ele>
        <time>2015-05-02T10:48:08Z</time>
      </trkpt>
      <trkpt lat="43.58482" lon="3.38902">
        <ele>210</ele>
        <time>2015-05-02T10:48:09Z</time>
      </trkpt>
      <trkpt lat="43.58502" lon="3.38881">
        <ele>200</ele>
        <time>2015-05-02T10:48:13Z</time>
      </trkpt>
      <trkpt lat="43.5851" lon="3.38858">
        <ele>200</ele>
        <time>2015-05-02T10:48:17Z</time>
      </trkpt>
      <trkpt lat="43.58509" lon="3.38826">
        <ele>202</ele>
        <time>2015-05-02T10:48:22Z</time>
      </trkpt>
      <trkpt lat="43.58509" lon="3.38814">
        <ele>201</ele>
        <time>2015-05-02T10:48:25Z</time>
      </trkpt>
      <trkpt lat="43.58511" lon="3.38809">
        <ele>201</ele>
        <time>2015-05-02T10:48:34Z</time>
      </trkpt>
      <trkpt lat="43.58517" lon="3.3879">
        <ele>200</ele>
        <time>2015-05-02T10:48:41Z</time>
      </trkpt>
      <trkpt lat="43.58517" lon="3.38718">
        <ele>201</ele>
        <time>2015-05-02T10:48:55Z</time>
      </trkpt>
      <trkpt lat="43.58501" lon="3.3862">
        <ele>199</ele>
        <time>2015-05-02T10:49:10Z</time>
      </trkpt>
      <trkpt lat="43.58492" lon="3.38551">
        <ele>200</ele>
        <time>2015-05-02T10:49:18Z</time>
      </trkpt>
      <trkpt lat="43.5849" lon="3.38509">
        <ele>194</ele>
        <time>2015-05-02T10:49:24Z</time>
      </trkpt>
      <trkpt lat="43.58484" lon="3.38493">
        <ele>191</ele>
        <time>2015-05-02T10:49:27Z</time>
      </trkpt>
      <trkpt lat="43.58475" lon="3.3848">
        <ele>193</ele>
        <time>2015-05-02T10:49:30Z</time>
      </trkpt>
      <trkpt lat="43.58467" lon="3.38474">
        <ele>194</ele>
        <time>2015-05-02T10:49:32Z</time>
      </trkpt>
      <trkpt lat="43.5845" lon="3.38464">
        <ele>196</ele>
        <time>2015-05-02T10:49:36Z</time>
      </trkpt>
      <trkpt lat="43.58443" lon="3.38463">
        <ele>197</ele>
        <time>2015-05-02T10:49:38Z</time>
      </trkpt>
      <trkpt lat="43.58432" lon="3.38425">
        <ele>199</ele>
        <time>2015-05-02T10:49:46Z</time>
      </trkpt>
      <trkpt lat="43.58437" lon="3.38402">
        <ele>192</ele>
        <time>2015-05-02T10:49:49Z</time>
      </trkpt>
      <trkpt lat="43.58435" lon="3.38357">
        <ele>189</ele>
        <time>2015-05-02T10:49:54Z</time>
      </trkpt>
      <trkpt lat="43.58427" lon="3.38319">
        <ele>186</ele>
        <time>2015-05-02T10:49:59Z</time>
      </trkpt>
      <trkpt lat="43.58426" lon="3.38305">
        <ele>183</ele>
        <time>2015-05-02T10:50:02Z</time>
      </trkpt>
      <trkpt lat="43.58425" lon="3.38284">
        <ele>181</ele>
        <time>2015-05-02T10:50:07Z</time>
      </trkpt>
      <trkpt lat="43.58424" lon="3.38273">
        <ele>180</ele>
        <time>2015-05-02T10:50:09Z</time>
      </trkpt>
      <trkpt lat="43.58417" lon="3.38251">
        <ele>181</ele>
        <time>2015-05-02T10:50:14Z</time>
      </trkpt>
      <trkpt lat="43.58408" lon="3.38233">
        <ele>184</ele>
        <time>2015-05-02T10:50:21Z</time>
      </trkpt>
      <trkpt lat="43.58404" lon="3.38207">
        <ele>183</ele>
        <time>2015-05-02T10:50:28Z</time>
      </trkpt>
      <trkpt lat="43.58404" lon="3.38201">
        <ele>182</ele>
        <time>2015-05-02T10:50:29Z</time>
      </trkpt>
      <trkpt lat="43.58395" lon="3.38183">
        <ele>181</ele>
        <time>2015-05-02T10:50:33Z</time>
      </trkpt>
      <trkpt lat="43.5836" lon="3.38126">
        <ele>176</ele>
        <time>2015-05-02T10:50:48Z</time>
      </trkpt>
      <trkpt lat="43.58353" lon="3.38111">
        <ele>175</ele>
        <time>2015-05-02T10:50:51Z</time>
      </trkpt>
      <trkpt lat="43.58347" lon="3.3808">
        <ele>172</ele>
        <time>2015-05-02T10:50:56Z</time>
      </trkpt>
      <trkpt lat="43.58337" lon="3.3805">
        <ele>169</ele>
        <time>2015-05-02T10:51:01Z</time>
      </trkpt>
      <trkpt lat="43.58331" lon="3.38038">
        <ele>177</ele>
        <time>2015-05-02T10:51:03Z</time>
      </trkpt>
      <trkpt lat="43.58325" lon="3.38024">
        <ele>176</ele>
        <time>2015-05-02T10:51:05Z</time>
      </trkpt>
      <trkpt lat="43.58318" lon="3.3799">
        <ele>170</ele>
        <time>2015-05-02T10:51:09Z</time>
      </trkpt>
      <trkpt lat="43.58305" lon="3.37932">
        <ele>168</ele>
        <time>2015-05-02T10:51:18Z</time>
      </trkpt>
      <trkpt lat="43.5828" lon="3.37906">
        <ele>164</ele>
        <time>2015-05-02T10:51:24Z</time>
      </trkpt>
      <trkpt lat="43.58248" lon="3.37879">
        <ele>172</ele>
        <time>2015-05-02T10:51:38Z</time>
      </trkpt>
      <trkpt lat="43.58215" lon="3.37852">
        <ele>172</ele>
        <time>2015-05-02T10:51:56Z</time>
      </trkpt>
      <trkpt lat="43.58187" lon="3.37819">
        <ele>168</ele>
        <time>2015-05-02T10:52:09Z</time>
      </trkpt>
      <trkpt lat="43.58156" lon="3.37778">
        <ele>173</ele>
        <time>2015-05-02T10:52:21Z</time>
      </trkpt>
      <trkpt lat="43.58122" lon="3.37723">
        <ele>169</ele>
        <time>2015-05-02T10:52:33Z</time>
      </trkpt>
      <trkpt lat="43.58118" lon="3.37668">
        <ele>168</ele>
        <time>2015-05-02T10:52:39Z</time>
      </trkpt>
      <trkpt lat="43.58126" lon="3.37625">
        <ele>160</ele>
        <time>2015-05-02T10:52:43Z</time>
      </trkpt>
      <trkpt lat="43.58116" lon="3.3759">
        <ele>159</ele>
        <time>2015-05-02T10:52:47Z</time>
      </trkpt>
      <trkpt lat="43.581" lon="3.37561">
        <ele>153</ele>
        <time>2015-05-02T10:52:50Z</time>
      </trkpt>
      <trkpt lat="43.58065" lon="3.37517">
        <ele>155</ele>
        <time>2015-05-02T10:52:55Z</time>
      </trkpt>
      <trkpt lat="43.58058" lon="3.37506">
        <ele>155</ele>
        <time>2015-05-02T10:52:56Z</time>
      </trkpt>
      <trkpt lat="43.58034" lon="3.37464">
        <ele>148</ele>
        <time>2015-05-02T10:53:00Z</time>
      </trkpt>
      <trkpt lat="43.58029" lon="3.37453">
        <ele>147</ele>
        <time>2015-05-02T10:53:01Z</time>
      </trkpt>
      <trkpt lat="43.58011" lon="3.374">
        <ele>140</ele>
        <time>2015-05-02T10:53:05Z</time>
      </trkpt>
      <trkpt lat="43.57999" lon="3.37359">
        <ele>141</ele>
        <time>2015-05-02T10:53:08Z</time>
      </trkpt>
      <trkpt lat="43.57996" lon="3.37348">
        <ele>139</ele>
        <time>2015-05-02T10:53:09Z</time>
      </trkpt>
      <trkpt lat="43.5798" lon="3.37328">
        <ele>135</ele>
        <time>2015-05-02T10:53:12Z</time>
      </trkpt>
      <trkpt lat="43.57973" lon="3.37324">
        <ele>135</ele>
        <time>2015-05-02T10:53:13Z</time>
      </trkpt>
      <trkpt lat="43.57882" lon="3.37262">
        <ele>142</ele>
        <time>2015-05-02T10:53:29Z</time>
      </trkpt>
      <trkpt lat="43.57814" lon="3.37211">
        <ele>137</ele>
        <time>2015-05-02T10:53:40Z</time>
      </trkpt>
      <trkpt lat="43.57793" lon="3.3719">
        <ele>136</ele>
        <time>2015-05-02T10:53:43Z</time>
      </trkpt>
      <trkpt lat="43.57773" lon="3.37171">
        <ele>134</ele>
        <time>2015-05-02T10:53:46Z</time>
      </trkpt>
      <trkpt lat="43.57765" lon="3.37127">
        <ele>127</ele>
        <time>2015-05-02T10:53:50Z</time>
      </trkpt>
      <trkpt lat="43.57774" lon="3.37052">
        <ele>123</ele>
        <time>2015-05-02T10:53:55Z</time>
      </trkpt>
      <trkpt lat="43.57786" lon="3.37005">
        <ele>122</ele>
        <time>2015-05-02T10:53:58Z</time>
      </trkpt>
      <trkpt lat="43.57796" lon="3.36979">
        <ele>122</ele>
        <time>2015-05-02T10:54:00Z</time>
      </trkpt>
      <trkpt lat="43.57809" lon="3.36907">
        <ele>124</ele>
        <time>2015-05-02T10:54:08Z</time>
      </trkpt>
      <trkpt lat="43.57799" lon="3.36831">
        <ele>123</ele>
        <time>2015-05-02T10:54:22Z</time>
      </trkpt>
      <trkpt lat="43.57792" lon="3.36812">
        <ele>122</ele>
        <time>2015-05-02T10:54:25Z</time>
      </trkpt>
      <trkpt lat="43.57783" lon="3.36767">
        <ele>121</ele>
        <time>2015-05-02T10:54:30Z</time>
      </trkpt>
      <trkpt lat="43.57771" lon="3.36717">
        <ele>119</ele>
        <time>2015-05-02T10:54:36Z</time>
      </trkpt>
      <trkpt lat="43.57779" lon="3.36686">
        <ele>119</ele>
        <time>2015-05-02T10:54:40Z</time>
      </trkpt>
      <trkpt lat="43.5783" lon="3.36591">
        <ele>118</ele>
        <time>2015-05-02T10:54:53Z</time>
      </trkpt>
      <trkpt lat="43.57837" lon="3.36555">
        <ele>117</ele>
        <time>2015-05-02T10:54:58Z</time>
      </trkpt>
      <trkpt lat="43.57862" lon="3.36524">
        <ele>116</ele>
        <time>2015-05-02T10:55:05Z</time>
      </trkpt>
      <trkpt lat="43.57911" lon="3.36515">
        <ele>115</ele>
        <time>2015-05-02T10:55:15Z</time>
      </trkpt>
      <trkpt lat="43.57916" lon="3.36482">
        <ele>112</ele>
        <time>2015-05-02T10:55:21Z</time>
      </trkpt>
      <trkpt lat="43.57891" lon="3.36435">
        <ele>112</ele>
        <time>2015-05-02T10:55:34Z</time>
      </trkpt>
      <trkpt lat="43.57882" lon="3.36386">
        <ele>114</ele>
        <time>2015-05-02T10:55:50Z</time>
      </trkpt>
      <trkpt lat="43.57873" lon="3.36378">
        <ele>114</ele>
        <time>2015-05-02T10:55:56Z</time>
      </trkpt>
      <trkpt lat="43.57864" lon="3.36378">
        <ele>114</ele>
        <time>2015-05-02T10:56:00Z</time>
      </trkpt>
      <trkpt lat="43.57811" lon="3.3639">
        <ele>114</ele>
        <time>2015-05-02T10:56:16Z</time>
      </trkpt>
      <trkpt lat="43.57751" lon="3.364">
        <ele>113</ele>
        <time>2015-05-02T10:56:33Z</time>
      </trkpt>
      <trkpt lat="43.57677" lon="3.36393">
        <ele>114</ele>
        <time>2015-05-02T10:56:51Z</time>
      </trkpt>
      <trkpt lat="43.57591" lon="3.3638">
        <ele>113</ele>
        <time>2015-05-02T10:57:10Z</time>
      </trkpt>
      <trkpt lat="43.57556" lon="3.36371">
        <ele>110</ele>
        <time>2015-05-02T10:57:23Z</time>
      </trkpt>
      <trkpt lat="43.57552" lon="3.36369">
        <ele>110</ele>
        <time>2015-05-02T10:57:26Z</time>
      </trkpt>
      <trkpt lat="43.57553" lon="3.36372">
        <ele>110</ele>
        <time>2015-05-02T10:57:31Z</time>
      </trkpt>
      <trkpt lat="43.5758" lon="3.36355">
        <ele>111</ele>
        <time>2015-05-02T10:57:43Z</time>
      </trkpt>
      <trkpt lat="43.57581" lon="3.36321">
        <ele>114</ele>
        <time>2015-05-02T10:57:53Z</time>
      </trkpt>
      <trkpt lat="43.57591" lon="3.36273">
        <ele>118</ele>
        <time>2015-05-02T10:58:09Z</time>
      </trkpt>
      <trkpt lat="43.57619" lon="3.36237">
        <ele>120</ele>
        <time>2015-05-02T10:58:27Z</time>
      </trkpt>
      <trkpt lat="43.57636" lon="3.36214">
        <ele>121</ele>
        <time>2015-05-02T10:58:42Z</time>
      </trkpt>
      <trkpt lat="43.57655" lon="3.36196">
        <ele>121</ele>
        <time>2015-05-02T10:58:59Z</time>
      </trkpt>
      <trkpt lat="43.57665" lon="3.36192">
        <ele>122</ele>
        <time>2015-05-02T10:59:13Z</time>
      </trkpt>
      <trkpt lat="43.57664" lon="3.36198">
        <ele>122</ele>
        <time>2015-05-02T10:59:29Z</time>
      </trkpt>
      <trkpt lat="43.57663" lon="3.36192">
        <ele>122</ele>
        <time>2015-05-02T11:00:10Z</time>
      </trkpt>
      <trkpt lat="43.57663" lon="3.36195">
        <ele>122</ele>
        <time>2015-05-02T11:00:44Z</time>
      </trkpt>
      <trkpt lat="43.57663" lon="3.36196">
        <ele>122</ele>
        <time>2015-05-02T11:01:13Z</time>
      </trkpt>
      <trkpt lat="43.5766" lon="3.36192">
        <ele>122</ele>
        <time>2015-05-02T11:01:25Z</time>
      </trkpt>
      <trkpt lat="43.57651" lon="3.36197">
        <ele>121</ele>
        <time>2015-05-02T11:01:31Z</time>
      </trkpt>
      <trkpt lat="43.57606" lon="3.36253">
        <ele>118</ele>
        <time>2015-05-02T11:01:44Z</time>
      </trkpt>
      <trkpt lat="43.57589" lon="3.36276">
        <ele>118</ele>
        <time>2015-05-02T11:01:48Z</time>
      </trkpt>
      <trkpt lat="43.57581" lon="3.36292">
        <ele>115</ele>
        <time>2015-05-02T11:01:50Z</time>
      </trkpt>
      <trkpt lat="43.57575" lon="3.36366">
        <ele>111</ele>
        <time>2015-05-02T11:01:59Z</time>
      </trkpt>
      <trkpt lat="43.57574" lon="3.36371">
        <ele>111</ele>
        <time>2015-05-02T11:02:00Z</time>
      </trkpt>
      <trkpt lat="43.57562" lon="3.36374">
        <ele>110</ele>
        <time>2015-05-02T11:02:04Z</time>
      </trkpt>
      <trkpt lat="43.57492" lon="3.36362">
        <ele>109</ele>
        <time>2015-05-02T11:02:23Z</time>
      </trkpt>
      <trkpt lat="43.57431" lon="3.36351">
        <ele>108</ele>
        <time>2015-05-02T11:02:40Z</time>
      </trkpt>
      <trkpt lat="43.57378" lon="3.36365">
        <ele>108</ele>
        <time>2015-05-02T11:02:54Z</time>
      </trkpt>
      <trkpt lat="43.57344" lon="3.36366">
        <ele>108</ele>
        <time>2015-05-02T11:03:04Z</time>
      </trkpt>
      <trkpt lat="43.57334" lon="3.36345">
        <ele>108</ele>
        <time>2015-05-02T11:03:10Z</time>
      </trkpt>
      <trkpt lat="43.57321" lon="3.36342">
        <ele>108</ele>
        <time>2015-05-02T11:03:16Z</time>
      </trkpt>
      <trkpt lat="43.57291" lon="3.3634">
        <ele>106</ele>
        <time>2015-05-02T11:03:30Z</time>
      </trkpt>
      <trkpt lat="43.57289" lon="3.36338">
        <ele>106</ele>
        <time>2015-05-02T11:03:32Z</time>
      </trkpt>
      <trkpt lat="43.57296" lon="3.36339">
        <ele>107</ele>
        <time>2015-05-02T11:03:36Z</time>
      </trkpt>
      <trkpt lat="43.5731" lon="3.36345">
        <ele>107</ele>
        <time>2015-05-02T11:03:41Z</time>
      </trkpt>
      <trkpt lat="43.5732" lon="3.36341">
        <ele>108</ele>
        <time>2015-05-02T11:03:45Z</time>
      </trkpt>
      <trkpt lat="43.57334" lon="3.36341">
        <ele>109</ele>
        <time>2015-05-02T11:03:51Z</time>
      </trkpt>
      <trkpt lat="43.57338" lon="3.36347">
        <ele>108</ele>
        <time>2015-05-02T11:03:54Z</time>
      </trkpt>
      <trkpt lat="43.57336" lon="3.3634">
        <ele>109</ele>
        <time>2015-05-02T11:04:03Z</time>
      </trkpt>
      <trkpt lat="43.57322" lon="3.36344">
        <ele>108</ele>
        <time>2015-05-02T11:04:14Z</time>
      </trkpt>
      <trkpt lat="43.57324" lon="3.36342">
        <ele>108</ele>
        <time>2015-05-02T11:04:27Z</time>
      </trkpt>
      <trkpt lat="43.57326" lon="3.36339">
        <ele>108</ele>
        <time>2015-05-02T11:04:31Z</time>
      </trkpt>
      <trkpt lat="43.57333" lon="3.36341">
        <ele>108</ele>
        <time>2015-05-02T11:04:35Z</time>
      </trkpt>
      <trkpt lat="43.57343" lon="3.36359">
        <ele>108</ele>
        <time>2015-05-02T11:04:43Z</time>
      </trkpt>
      <trkpt lat="43.57351" lon="3.36365">
        <ele>108</ele>
        <time>2015-05-02T11:04:47Z</time>
      </trkpt>
      <trkpt lat="43.57362" lon="3.36371">
        <ele>108</ele>
        <time>2015-05-02T11:04:51Z</time>
      </trkpt>
      <trkpt lat="43.57364" lon="3.36403">
        <ele>107</ele>
        <time>2015-05-02T11:04:59Z</time>
      </trkpt>
      <trkpt lat="43.57359" lon="3.36433">
        <ele>110</ele>
        <time>2015-05-02T11:05:08Z</time>
      </trkpt>
      <trkpt lat="43.57355" lon="3.36437">
        <ele>110</ele>
        <time>2015-05-02T11:05:11Z</time>
      </trkpt>
      <trkpt lat="43.57363" lon="3.36432">
        <ele>110</ele>
        <time>2015-05-02T11:05:20Z</time>
      </trkpt>
      <trkpt lat="43.57365" lon="3.36423">
        <ele>110</ele>
        <time>2015-05-02T11:05:22Z</time>
      </trkpt>
      <trkpt lat="43.57368" lon="3.36368">
        <ele>108</ele>
        <time>2015-05-02T11:05:34Z</time>
      </trkpt>
      <trkpt lat="43.57343" lon="3.36362">
        <ele>108</ele>
        <time>2015-05-02T11:05:40Z</time>
      </trkpt>
      <trkpt lat="43.57301" lon="3.36359">
        <ele>107</ele>
        <time>2015-05-02T11:05:54Z</time>
      </trkpt>
      <trkpt lat="43.57299" lon="3.36359">
        <ele>107</ele>
        <time>2015-05-02T11:06:07Z</time>
      </trkpt>
      <trkpt lat="43.57296" lon="3.36359">
        <ele>106</ele>
        <time>2015-05-02T11:06:38Z</time>
      </trkpt>
      <trkpt lat="43.57296" lon="3.36357">
        <ele>107</ele>
        <time>2015-05-02T11:07:15Z</time>
      </trkpt>
      <trkpt lat="43.57297" lon="3.36352">
        <ele>107</ele>
        <time>2015-05-02T11:07:59Z</time>
      </trkpt>
      <trkpt lat="43.57297" lon="3.36362">
        <ele>107</ele>
        <time>2015-05-02T11:08:42Z</time>
      </trkpt>
      <trkpt lat="43.57295" lon="3.36362">
        <ele>106</ele>
        <time>2015-05-02T11:09:19Z</time>
      </trkpt>
      <trkpt lat="43.57275" lon="3.36357">
        <ele>106</ele>
        <time>2015-05-02T11:09:38Z</time>
      </trkpt>
      <trkpt lat="43.57271" lon="3.36355">
        <ele>106</ele>
        <time>2015-05-02T11:09:42Z</time>
      </trkpt>
      <trkpt lat="43.57268" lon="3.36355">
        <ele>106</ele>
        <time>2015-05-02T11:09:46Z</time>
      </trkpt>
      <trkpt lat="43.57249" lon="3.36356">
        <ele>104</ele>
        <time>2015-05-02T11:10:03Z</time>
      </trkpt>
      <trkpt lat="43.57247" lon="3.36353">
        <ele>104</ele>
        <time>2015-05-02T11:10:27Z</time>
      </trkpt>
      <trkpt lat="43.57245" lon="3.3635">
        <ele>104</ele>
        <time>2015-05-02T11:11:00Z</time>
      </trkpt>
      <trkpt lat="43.57247" lon="3.36353">
        <ele>104</ele>
        <time>2015-05-02T11:11:35Z</time>
      </trkpt>
      <trkpt lat="43.57245" lon="3.3636">
        <ele>104</ele>
        <time>2015-05-02T11:12:15Z</time>
      </trkpt>
      <trkpt lat="43.57245" lon="3.36361">
        <ele>104</ele>
        <time>2015-05-02T11:12:53Z</time>
      </trkpt>
      <trkpt lat="43.57245" lon="3.36356">
        <ele>104</ele>
        <time>2015-05-02T11:13:28Z</time>
      </trkpt>
      <trkpt lat="43.57247" lon="3.36358">
        <ele>104</ele>
        <time>2015-05-02T11:14:03Z</time>
      </trkpt>
      <trkpt lat="43.5725" lon="3.3636">
        <ele>106</ele>
        <time>2015-05-02T11:14:38Z</time>
      </trkpt>
      <trkpt lat="43.57246" lon="3.36354">
        <ele>104</ele>
        <time>2015-05-02T11:15:20Z</time>
      </trkpt>
      <trkpt lat="43.57251" lon="3.36353">
        <ele>106</ele>
        <time>2015-05-02T11:15:59Z</time>
      </trkpt>
      <trkpt lat="43.57248" lon="3.36356">
        <ele>104</ele>
        <time>2015-05-02T11:16:39Z</time>
      </trkpt>
      <trkpt lat="43.57242" lon="3.36354">
        <ele>104</ele>
        <time>2015-05-02T11:17:23Z</time>
      </trkpt>
      <trkpt lat="43.57243" lon="3.3635">
        <ele>104</ele>
        <time>2015-05-02T11:18:09Z</time>
      </trkpt>
      <trkpt lat="43.57243" lon="3.36355">
        <ele>104</ele>
        <time>2015-05-02T11:18:49Z</time>
      </trkpt>
      <trkpt lat="43.57242" lon="3.36358">
        <ele>104</ele>
        <time>2015-05-02T11:19:27Z</time>
      </trkpt>
      <trkpt lat="43.57247" lon="3.36352">
        <ele>104</ele>
        <time>2015-05-02T11:20:16Z</time>
      </trkpt>
      <trkpt lat="43.57247" lon="3.36352">
        <ele>104</ele>
        <time>2015-05-02T11:20:59Z</time>
      </trkpt>
      <trkpt lat="43.57246" lon="3.36355">
        <ele>104</ele>
        <time>2015-05-02T11:21:34Z</time>
      </trkpt>
      <trkpt lat="43.57241" lon="3.36351">
        <ele>104</ele>
        <time>2015-05-02T11:22:12Z</time>
      </trkpt>
      <trkpt lat="43.57236" lon="3.36344">
        <ele>104</ele>
        <time>2015-05-02T11:22:44Z</time>
      </trkpt>
      <trkpt lat="43.57238" lon="3.36346">
        <ele>104</ele>
        <time>2015-05-02T11:23:21Z</time>
      </trkpt>
      <trkpt lat="43.57243" lon="3.36344">
        <ele>104</ele>
        <time>2015-05-02T11:24:02Z</time>
      </trkpt>
      <trkpt lat="43.57242" lon="3.36353">
        <ele>104</ele>
        <time>2015-05-02T11:24:37Z</time>
      </trkpt>
      <trkpt lat="43.57245" lon="3.36358">
        <ele>104</ele>
        <time>2015-05-02T11:25:21Z</time>
      </trkpt>
      <trkpt lat="43.57246" lon="3.36358">
        <ele>104</ele>
        <time>2015-05-02T11:25:56Z</time>
      </trkpt>
      <trkpt lat="43.57243" lon="3.36354">
        <ele>104</ele>
        <time>2015-05-02T11:26:35Z</time>
      </trkpt>
      <trkpt lat="43.57243" lon="3.36358">
        <ele>104</ele>
        <time>2015-05-02T11:27:15Z</time>
      </trkpt>
      <trkpt lat="43.57241" lon="3.36358">
        <ele>104</ele>
        <time>2015-05-02T11:27:49Z</time>
      </trkpt>
      <trkpt lat="43.57241" lon="3.36358">
        <ele>104</ele>
        <time>2015-05-02T11:28:29Z</time>
      </trkpt>
      <trkpt lat="43.57243" lon="3.36357">
        <ele>104</ele>
        <time>2015-05-02T11:29:12Z</time>
      </trkpt>
      <trkpt lat="43.57244" lon="3.36356">
        <ele>104</ele>
        <time>2015-05-02T11:29:54Z</time>
      </trkpt>
      <trkpt lat="43.57245" lon="3.36359">
        <ele>104</ele>
        <time>2015-05-02T11:30:38Z</time>
      </trkpt>
      <trkpt lat="43.57248" lon="3.36362">
        <ele>104</ele>
        <time>2015-05-02T11:31:19Z</time>
      </trkpt>
      <trkpt lat="43.57246" lon="3.3636">
        <ele>104</ele>
        <time>2015-05-02T11:31:55Z</time>
      </trkpt>
      <trkpt lat="43.57242" lon="3.36356">
        <ele>104</ele>
        <time>2015-05-02T11:32:34Z</time>
      </trkpt>
      <trkpt lat="43.57244" lon="3.36359">
        <ele>104</ele>
        <time>2015-05-02T11:33:10Z</time>
      </trkpt>
      <trkpt lat="43.57249" lon="3.36358">
        <ele>104</ele>
        <time>2015-05-02T11:33:56Z</time>
      </trkpt>
      <trkpt lat="43.57248" lon="3.36359">
        <ele>104</ele>
        <time>2015-05-02T11:34:31Z</time>
      </trkpt>
      <trkpt lat="43.57248" lon="3.36361">
        <ele>104</ele>
        <time>2015-05-02T11:35:07Z</time>
      </trkpt>
      <trkpt lat="43.57248" lon="3.36362">
        <ele>104</ele>
        <time>2015-05-02T11:35:45Z</time>
      </trkpt>
      <trkpt lat="43.57244" lon="3.36364">
        <ele>104</ele>
        <time>2015-05-02T11:36:31Z</time>
      </trkpt>
      <trkpt lat="43.57243" lon="3.36357">
        <ele>104</ele>
        <time>2015-05-02T11:37:09Z</time>
      </trkpt>
      <trkpt lat="43.57245" lon="3.36358">
        <ele>104</ele>
        <time>2015-05-02T11:37:45Z</time>
      </trkpt>
      <trkpt lat="43.57248" lon="3.3636">
        <ele>104</ele>
        <time>2015-05-02T11:38:19Z</time>
      </trkpt>
      <trkpt lat="43.57245" lon="3.3636">
        <ele>104</ele>
        <time>2015-05-02T11:38:53Z</time>
      </trkpt>
      <trkpt lat="43.57241" lon="3.36361">
        <ele>104</ele>
        <time>2015-05-02T11:39:40Z</time>
      </trkpt>
      <trkpt lat="43.57246" lon="3.36362">
        <ele>104</ele>
        <time>2015-05-02T11:40:30Z</time>
      </trkpt>
      <trkpt lat="43.57247" lon="3.36361">
        <ele>104</ele>
        <time>2015-05-02T11:41:16Z</time>
      </trkpt>
      <trkpt lat="43.57252" lon="3.36363">
        <ele>106</ele>
        <time>2015-05-02T11:41:49Z</time>
      </trkpt>
      <trkpt lat="43.57247" lon="3.3636">
        <ele>104</ele>
        <time>2015-05-02T11:42:28Z</time>
      </trkpt>
      <trkpt lat="43.57252" lon="3.36361">
        <ele>106</ele>
        <time>2015-05-02T11:43:10Z</time>
      </trkpt>
      <trkpt lat="43.57244" lon="3.36358">
        <ele>104</ele>
        <time>2015-05-02T11:43:45Z</time>
      </trkpt>
      <trkpt lat="43.57248" lon="3.36365">
        <ele>104</ele>
        <time>2015-05-02T11:44:25Z</time>
      </trkpt>
      <trkpt lat="43.5725" lon="3.36363">
        <ele>106</ele>
        <time>2015-05-02T11:45:01Z</time>
      </trkpt>
      <trkpt lat="43.57245" lon="3.36357">
        <ele>104</ele>
        <time>2015-05-02T11:45:35Z</time>
      </trkpt>
      <trkpt lat="43.57245" lon="3.36357">
        <ele>104</ele>
        <time>2015-05-02T11:46:16Z</time>
      </trkpt>
      <trkpt lat="43.57244" lon="3.36354">
        <ele>104</ele>
        <time>2015-05-02T11:46:52Z</time>
      </trkpt>
      <trkpt lat="43.57244" lon="3.36355">
        <ele>104</ele>
        <time>2015-05-02T11:47:30Z</time>
      </trkpt>
      <trkpt lat="43.57247" lon="3.36357">
        <ele>104</ele>
        <time>2015-05-02T11:48:07Z</time>
      </trkpt>
      <trkpt lat="43.57251" lon="3.36361">
        <ele>106</ele>
        <time>2015-05-02T11:48:48Z</time>
      </trkpt>
      <trkpt lat="43.57247" lon="3.36358">
        <ele>104</ele>
        <time>2015-05-02T11:49:28Z</time>
      </trkpt>
      <trkpt lat="43.57247" lon="3.36355">
        <ele>104</ele>
        <time>2015-05-02T11:50:10Z</time>
      </trkpt>
      <trkpt lat="43.57245" lon="3.36357">
        <ele>104</ele>
        <time>2015-05-02T11:50:55Z</time>
      </trkpt>
      <trkpt lat="43.57249" lon="3.36357">
        <ele>104</ele>
        <time>2015-05-02T11:51:32Z</time>
      </trkpt>
      <trkpt lat="43.57246" lon="3.36354">
        <ele>104</ele>
        <time>2015-05-02T11:52:07Z</time>
      </trkpt>
      <trkpt lat="43.57242" lon="3.36353">
        <ele>104</ele>
        <time>2015-05-02T11:52:47Z</time>
      </trkpt>
      <trkpt lat="43.5724" lon="3.36356">
        <ele>104</ele>
        <time>2015-05-02T11:53:32Z</time>
      </trkpt>
      <trkpt lat="43.57248" lon="3.36359">
        <ele>104</ele>
        <time>2015-05-02T11:54:13Z</time>
      </trkpt>
      <trkpt lat="43.57247" lon="3.36357">
        <ele>104</ele>
        <time>2015-05-02T11:54:56Z</time>
      </trkpt>
      <trkpt lat="43.57249" lon="3.36362">
        <ele>104</ele>
        <time>2015-05-02T11:55:30Z</time>
      </trkpt>
      <trkpt lat="43.57247" lon="3.36361">
        <ele>104</ele>
        <time>2015-05-02T11:56:08Z</time>
      </trkpt>
      <trkpt lat="43.57248" lon="3.3636">
        <ele>104</ele>
        <time>2015-05-02T11:56:43Z</time>
      </trkpt>
      <trkpt lat="43.57247" lon="3.3636">
        <ele>104</ele>
        <time>2015-05-02T11:57:13Z</time>
      </trkpt>
      <trkpt lat="43.57248" lon="3.36363">
        <ele>104</ele>
        <time>2015-05-02T11:57:50Z</time>
      </trkpt>
      <trkpt lat="43.57248" lon="3.36363">
        <ele>104</ele>
        <time>2015-05-02T11:58:35Z</time>
      </trkpt>
      <trkpt lat="43.57245" lon="3.36361">
        <ele>104</ele>
        <time>2015-05-02T11:59:16Z</time>
      </trkpt>
      <trkpt lat="43.57248" lon="3.3636">
        <ele>104</ele>
        <time>2015-05-02T11:59:53Z</time>
      </trkpt>
      <trkpt lat="43.57245" lon="3.36357">
        <ele>104</ele>
        <time>2015-05-02T12:00:27Z</time>
      </trkpt>
      <trkpt lat="43.57246" lon="3.3636">
        <ele>104</ele>
        <time>2015-05-02T12:01:05Z</time>
      </trkpt>
      <trkpt lat="43.57242" lon="3.36355">
        <ele>104</ele>
        <time>2015-05-02T12:01:40Z</time>
      </trkpt>
      <trkpt lat="43.57246" lon="3.36358">
        <ele>104</ele>
        <time>2015-05-02T12:02:16Z</time>
      </trkpt>
      <trkpt lat="43.57246" lon="3.36358">
        <ele>104</ele>
        <time>2015-05-02T12:02:53Z</time>
      </trkpt>
      <trkpt lat="43.57246" lon="3.36362">
        <ele>104</ele>
        <time>2015-05-02T12:03:29Z</time>
      </trkpt>
      <trkpt lat="43.57247" lon="3.3636">
        <ele>104</ele>
        <time>2015-05-02T12:04:04Z</time>
      </trkpt>
      <trkpt lat="43.5725" lon="3.36359">
        <ele>106</ele>
        <time>2015-05-02T12:04:34Z</time>
      </trkpt>
      <trkpt lat="43.57246" lon="3.36358">
        <ele>104</ele>
        <time>2015-05-02T12:05:17Z</time>
      </trkpt>
      <trkpt lat="43.5725" lon="3.36359">
        <ele>106</ele>
        <time>2015-05-02T12:05:58Z</time>
      </trkpt>
      <trkpt lat="43.57251" lon="3.36358">
        <ele>106</ele>
        <time>2015-05-02T12:06:38Z</time>
      </trkpt>
      <trkpt lat="43.57249" lon="3.36358">
        <ele>104</ele>
        <time>2015-05-02T12:07:20Z</time>
      </trkpt>
      <trkpt lat="43.57242" lon="3.36352">
        <ele>104</ele>
        <time>2015-05-02T12:08:02Z</time>
      </trkpt>
      <trkpt lat="43.57245" lon="3.36356">
        <ele>104</ele>
        <time>2015-05-02T12:08:39Z</time>
      </trkpt>
      <trkpt lat="43.57247" lon="3.36356">
        <ele>104</ele>
        <time>2015-05-02T12:09:11Z</time>
      </trkpt>
      <trkpt lat="43.57246" lon="3.36357">
        <ele>104</ele>
        <time>2015-05-02T12:09:44Z</time>
      </trkpt>
      <trkpt lat="43.57245" lon="3.36357">
        <ele>104</ele>
        <time>2015-05-02T12:10:18Z</time>
      </trkpt>
      <trkpt lat="43.57241" lon="3.36352">
        <ele>104</ele>
        <time>2015-05-02T12:10:54Z</time>
      </trkpt>
      <trkpt lat="43.57245" lon="3.36353">
        <ele>104</ele>
        <time>2015-05-02T12:11:25Z</time>
      </trkpt>
      <trkpt lat="43.57248" lon="3.36353">
        <ele>104</ele>
        <time>2015-05-02T12:11:53Z</time>
      </trkpt>
      <trkpt lat="43.5725" lon="3.36351">
        <ele>104</ele>
        <time>2015-05-02T12:12:28Z</time>
      </trkpt>
      <trkpt lat="43.57251" lon="3.36348">
        <ele>105</ele>
        <time>2015-05-02T12:13:02Z</time>
      </trkpt>
      <trkpt lat="43.57247" lon="3.36349">
        <ele>104</ele>
        <time>2015-05-02T12:13:31Z</time>
      </trkpt>
      <trkpt lat="43.57249" lon="3.36357">
        <ele>104</ele>
        <time>2015-05-02T12:14:08Z</time>
      </trkpt>
      <trkpt lat="43.57246" lon="3.36352">
        <ele>104</ele>
        <time>2015-05-02T12:14:39Z</time>
      </trkpt>
      <trkpt lat="43.57248" lon="3.36349">
        <ele>104</ele>
        <time>2015-05-02T12:15:17Z</time>
      </trkpt>
      <trkpt lat="43.57249" lon="3.36354">
        <ele>104</ele>
        <time>2015-05-02T12:15:46Z</time>
      </trkpt>
      <trkpt lat="43.57249" lon="3.36351">
        <ele>104</ele>
        <time>2015-05-02T12:16:19Z</time>
      </trkpt>
      <trkpt lat="43.57249" lon="3.36355">
        <ele>104</ele>
        <time>2015-05-02T12:16:47Z</time>
      </trkpt>
      <trkpt lat="43.57246" lon="3.36355">
        <ele>104</ele>
        <time>2015-05-02T12:17:11Z</time>
      </trkpt>
      <trkpt lat="43.57248" lon="3.36355">
        <ele>104</ele>
        <time>2015-05-02T12:17:41Z</time>
      </trkpt>
      <trkpt lat="43.57253" lon="3.36353">
        <ele>106</ele>
        <time>2015-05-02T12:18:12Z</time>
      </trkpt>
      <trkpt lat="43.5725" lon="3.36356">
        <ele>104</ele>
        <time>2015-05-02T12:18:41Z</time>
      </trkpt>
      <trkpt lat="43.57247" lon="3.36356">
        <ele>104</ele>
        <time>2015-05-02T12:19:11Z</time>
      </trkpt>
      <trkpt lat="43.5725" lon="3.36361">
        <ele>106</ele>
        <time>2015-05-02T12:19:45Z</time>
      </trkpt>
      <trkpt lat="43.57246" lon="3.36359">
        <ele>104</ele>
        <time>2015-05-02T12:20:14Z</time>
      </trkpt>
      <trkpt lat="43.57249" lon="3.36359">
        <ele>104</ele>
        <time>2015-05-02T12:20:50Z</time>
      </trkpt>
      <trkpt lat="43.57249" lon="3.36358">
        <ele>104</ele>
        <time>2015-05-02T12:21:21Z</time>
      </trkpt>
      <trkpt lat="43.57244" lon="3.36354">
        <ele>104</ele>
        <time>2015-05-02T12:21:47Z</time>
      </trkpt>
      <trkpt lat="43.57244" lon="3.36355">
        <ele>104</ele>
        <time>2015-05-02T12:22:15Z</time>
      </trkpt>
      <trkpt lat="43.57245" lon="3.36351">
        <ele>104</ele>
        <time>2015-05-02T12:22:46Z</time>
      </trkpt>
      <trkpt lat="43.57247" lon="3.36357">
        <ele>104</ele>
        <time>2015-05-02T12:23:14Z</time>
      </trkpt>
      <trkpt lat="43.57249" lon="3.36356">
        <ele>104</ele>
        <time>2015-05-02T12:23:41Z</time>
      </trkpt>
      <trkpt lat="43.57248" lon="3.36355">
        <ele>104</ele>
        <time>2015-05-02T12:24:08Z</time>
      </trkpt>
      <trkpt lat="43.5725" lon="3.36353">
        <ele>104</ele>
        <time>2015-05-02T12:24:43Z</time>
      </trkpt>
      <trkpt lat="43.57253" lon="3.36355">
        <ele>106</ele>
        <time>2015-05-02T12:25:15Z</time>
      </trkpt>
      <trkpt lat="43.57249" lon="3.3636">
        <ele>104</ele>
        <time>2015-05-02T12:25:45Z</time>
      </trkpt>
      <trkpt lat="43.57247" lon="3.36359">
        <ele>104</ele>
        <time>2015-05-02T12:26:10Z</time>
      </trkpt>
      <trkpt lat="43.57247" lon="3.36356">
        <ele>104</ele>
        <time>2015-05-02T12:26:36Z</time>
      </trkpt>
      <trkpt lat="43.57245" lon="3.36354">
        <ele>104</ele>
        <time>2015-05-02T12:27:06Z</time>
      </trkpt>
      <trkpt lat="43.57244" lon="3.36352">
        <ele>104</ele>
        <time>2015-05-02T12:27:41Z</time>
      </trkpt>
      <trkpt lat="43.57247" lon="3.36355">
        <ele>104</ele>
        <time>2015-05-02T12:28:19Z</time>
      </trkpt>
      <trkpt lat="43.57243" lon="3.36355">
        <ele>104</ele>
        <time>2015-05-02T12:28:52Z</time>
      </trkpt>
      <trkpt lat="43.57241" lon="3.36354">
        <ele>104</ele>
        <time>2015-05-02T12:29:30Z</time>
      </trkpt>
      <trkpt lat="43.57242" lon="3.36355">
        <ele>104</ele>
        <time>2015-05-02T12:30:03Z</time>
      </trkpt>
      <trkpt lat="43.57244" lon="3.36356">
        <ele>104</ele>
        <time>2015-05-02T12:30:35Z</time>
      </trkpt>
      <trkpt lat="43.57245" lon="3.36355">
        <ele>104</ele>
        <time>2015-05-02T12:31:06Z</time>
      </trkpt>
      <trkpt lat="43.57246" lon="3.36358">
        <ele>104</ele>
        <time>2015-05-02T12:31:31Z</time>
      </trkpt>
      <trkpt lat="43.57243" lon="3.36356">
        <ele>104</ele>
        <time>2015-05-02T12:32:05Z</time>
      </trkpt>
      <trkpt lat="43.57248" lon="3.36359">
        <ele>104</ele>
        <time>2015-05-02T12:32:37Z</time>
      </trkpt>
      <trkpt lat="43.57249" lon="3.3636">
        <ele>104</ele>
        <time>2015-05-02T12:33:08Z</time>
      </trkpt>
      <trkpt lat="43.57247" lon="3.3636">
        <ele>104</ele>
        <time>2015-05-02T12:33:40Z</time>
      </trkpt>
      <trkpt lat="43.57243" lon="3.36359">
        <ele>104</ele>
        <time>2015-05-02T12:34:11Z</time>
      </trkpt>
      <trkpt lat="43.57245" lon="3.36358">
        <ele>104</ele>
        <time>2015-05-02T12:34:43Z</time>
      </trkpt>
      <trkpt lat="43.57246" lon="3.36355">
        <ele>104</ele>
        <time>2015-05-02T12:35:18Z</time>
      </trkpt>
      <trkpt lat="43.57244" lon="3.36351">
        <ele>104</ele>
        <time>2015-05-02T12:35:45Z</time>
      </trkpt>
      <trkpt lat="43.57245" lon="3.36355">
        <ele>104</ele>
        <time>2015-05-02T12:36:17Z</time>
      </trkpt>
      <trkpt lat="43.57247" lon="3.36358">
        <ele>104</ele>
        <time>2015-05-02T12:36:51Z</time>
      </trkpt>
      <trkpt lat="43.57246" lon="3.3636">
        <ele>104</ele>
        <time>2015-05-02T12:37:30Z</time>
      </trkpt>
      <trkpt lat="43.57248" lon="3.36356">
        <ele>104</ele>
        <time>2015-05-02T12:38:09Z</time>
      </trkpt>
      <trkpt lat="43.57248" lon="3.36354">
        <ele>104</ele>
        <time>2015-05-02T12:38:43Z</time>
      </trkpt>
      <trkpt lat="43.57247" lon="3.36353">
        <ele>104</ele>
        <time>2015-05-02T12:39:14Z</time>
      </trkpt>
      <trkpt lat="43.57252" lon="3.36349">
        <ele>106</ele>
        <time>2015-05-02T12:39:42Z</time>
      </trkpt>
      <trkpt lat="43.57251" lon="3.36359">
        <ele>106</ele>
        <time>2015-05-02T12:40:13Z</time>
      </trkpt>
      <trkpt lat="43.57242" lon="3.36359">
        <ele>104</ele>
        <time>2015-05-02T12:40:51Z</time>
      </trkpt>
      <trkpt lat="43.57246" lon="3.36356">
        <ele>104</ele>
        <time>2015-05-02T12:41:31Z</time>
      </trkpt>
      <trkpt lat="43.57247" lon="3.3636">
        <ele>104</ele>
        <time>2015-05-02T12:42:08Z</time>
      </trkpt>
      <trkpt lat="43.57245" lon="3.3636">
        <ele>104</ele>
        <time>2015-05-02T12:42:33Z</time>
      </trkpt>
      <trkpt lat="43.57244" lon="3.36358">
        <ele>104</ele>
        <time>2015-05-02T12:43:01Z</time>
      </trkpt>
      <trkpt lat="43.57243" lon="3.36356">
        <ele>104</ele>
        <time>2015-05-02T12:43:35Z</time>
      </trkpt>
      <trkpt lat="43.57243" lon="3.36355">
        <ele>104</ele>
        <time>2015-05-02T12:44:12Z</time>
      </trkpt>
      <trkpt lat="43.57237" lon="3.36352">
        <ele>104</ele>
        <time>2015-05-02T12:44:43Z</time>
      </trkpt>
      <trkpt lat="43.57241" lon="3.36353">
        <ele>104</ele>
        <time>2015-05-02T12:45:16Z</time>
      </trkpt>
      <trkpt lat="43.57239" lon="3.36352">
        <ele>104</ele>
        <time>2015-05-02T12:45:48Z</time>
      </trkpt>
      <trkpt lat="43.57247" lon="3.36354">
        <ele>104</ele>
        <time>2015-05-02T12:46:17Z</time>
      </trkpt>
      <trkpt lat="43.57242" lon="3.36355">
        <ele>104</ele>
        <time>2015-05-02T12:46:53Z</time>
      </trkpt>
      <trkpt lat="43.57248" lon="3.36353">
        <ele>104</ele>
        <time>2015-05-02T12:47:32Z</time>
      </trkpt>
      <trkpt lat="43.57248" lon="3.36352">
        <ele>104</ele>
        <time>2015-05-02T12:47:58Z</time>
      </trkpt>
      <trkpt lat="43.57246" lon="3.36355">
        <ele>104</ele>
        <time>2015-05-02T12:48:36Z</time>
      </trkpt>
      <trkpt lat="43.57245" lon="3.36355">
        <ele>104</ele>
        <time>2015-05-02T12:49:06Z</time>
      </trkpt>
      <trkpt lat="43.57244" lon="3.3635">
        <ele>104</ele>
        <time>2015-05-02T12:49:43Z</time>
      </trkpt>
      <trkpt lat="43.57243" lon="3.36353">
        <ele>104</ele>
        <time>2015-05-02T12:50:18Z</time>
      </trkpt>
      <trkpt lat="43.57243" lon="3.36352">
        <ele>104</ele>
        <time>2015-05-02T12:50:51Z</time>
      </trkpt>
      <trkpt lat="43.57242" lon="3.3635">
        <ele>104</ele>
        <time>2015-05-02T12:51:20Z</time>
      </trkpt>
      <trkpt lat="43.57242" lon="3.36352">
        <ele>104</ele>
        <time>2015-05-02T12:51:48Z</time>
      </trkpt>
      <trkpt lat="43.57243" lon="3.36356">
        <ele>104</ele>
        <time>2015-05-02T12:52:23Z</time>
      </trkpt>
      <trkpt lat="43.57243" lon="3.36355">
        <ele>104</ele>
        <time>2015-05-02T12:52:57Z</time>
      </trkpt>
      <trkpt lat="43.57246" lon="3.36354">
        <ele>104</ele>
        <time>2015-05-02T12:53:35Z</time>
      </trkpt>
      <trkpt lat="43.57245" lon="3.36354">
        <ele>104</ele>
        <time>2015-05-02T12:53:55Z</time>
      </trkpt>
      <trkpt lat="43.57244" lon="3.36353">
        <ele>104</ele>
        <time>2015-05-02T12:54:31Z</time>
      </trkpt>
      <trkpt lat="43.57246" lon="3.36353">
        <ele>104</ele>
        <time>2015-05-02T12:55:13Z</time>
      </trkpt>
      <trkpt lat="43.57246" lon="3.36355">
        <ele>104</ele>
        <time>2015-05-02T12:55:49Z</time>
      </trkpt>
      <trkpt lat="43.57247" lon="3.36353">
        <ele>104</ele>
        <time>2015-05-02T12:56:28Z</time>
      </trkpt>
      <trkpt lat="43.57248" lon="3.3635">
        <ele>104</ele>
        <time>2015-05-02T12:57:09Z</time>
      </trkpt>
      <trkpt lat="43.57248" lon="3.36351">
        <ele>104</ele>
        <time>2015-05-02T12:57:50Z</time>
      </trkpt>
      <trkpt lat="43.57248" lon="3.36351">
        <ele>104</ele>
        <time>2015-05-02T12:58:33Z</time>
      </trkpt>
      <trkpt lat="43.57248" lon="3.36353">
        <ele>104</ele>
        <time>2015-05-02T12:59:17Z</time>
      </trkpt>
      <trkpt lat="43.57246" lon="3.3635">
        <ele>104</ele>
        <time>2015-05-02T12:59:56Z</time>
      </trkpt>
      <trkpt lat="43.57246" lon="3.36349">
        <ele>104</ele>
        <time>2015-05-02T13:00:33Z</time>
      </trkpt>
      <trkpt lat="43.57247" lon="3.36358">
        <ele>104</ele>
        <time>2015-05-02T13:01:17Z</time>
      </trkpt>
      <trkpt lat="43.5725" lon="3.3636">
        <ele>106</ele>
        <time>2015-05-02T13:01:54Z</time>
      </trkpt>
      <trkpt lat="43.57247" lon="3.36357">
        <ele>104</ele>
        <time>2015-05-02T13:02:31Z</time>
      </trkpt>
      <trkpt lat="43.57243" lon="3.36349">
        <ele>104</ele>
        <time>2015-05-02T13:03:13Z</time>
      </trkpt>
      <trkpt lat="43.57238" lon="3.36343">
        <ele>104</ele>
        <time>2015-05-02T13:03:54Z</time>
      </trkpt>
      <trkpt lat="43.5724" lon="3.36348">
        <ele>104</ele>
        <time>2015-05-02T13:04:33Z</time>
      </trkpt>
      <trkpt lat="43.57246" lon="3.36356">
        <ele>104</ele>
        <time>2015-05-02T13:05:15Z</time>
      </trkpt>
      <trkpt lat="43.57248" lon="3.3636">
        <ele>104</ele>
        <time>2015-05-02T13:05:49Z</time>
      </trkpt>
      <trkpt lat="43.57246" lon="3.36355">
        <ele>104</ele>
        <time>2015-05-02T13:06:29Z</time>
      </trkpt>
      <trkpt lat="43.57244" lon="3.36355">
        <ele>104</ele>
        <time>2015-05-02T13:07:10Z</time>
      </trkpt>
      <trkpt lat="43.57246" lon="3.36357">
        <ele>104</ele>
        <time>2015-05-02T13:07:49Z</time>
      </trkpt>
      <trkpt lat="43.57244" lon="3.36356">
        <ele>104</ele>
        <time>2015-05-02T13:08:24Z</time>
      </trkpt>
      <trkpt lat="43.57247" lon="3.36355">
        <ele>104</ele>
        <time>2015-05-02T13:08:59Z</time>
      </trkpt>
      <trkpt lat="43.57248" lon="3.36359">
        <ele>104</ele>
        <time>2015-05-02T13:09:38Z</time>
      </trkpt>
      <trkpt lat="43.57247" lon="3.36352">
        <ele>104</ele>
        <time>2015-05-02T13:10:20Z</time>
      </trkpt>
      <trkpt lat="43.5725" lon="3.36344">
        <ele>104</ele>
        <time>2015-05-02T13:11:04Z</time>
      </trkpt>
      <trkpt lat="43.57248" lon="3.36351">
        <ele>104</ele>
        <time>2015-05-02T13:11:40Z</time>
      </trkpt>
      <trkpt lat="43.5725" lon="3.36347">
        <ele>105</ele>
        <time>2015-05-02T13:12:17Z</time>
      </trkpt>
      <trkpt lat="43.57251" lon="3.36348">
        <ele>106</ele>
        <time>2015-05-02T13:12:45Z</time>
      </trkpt>
      <trkpt lat="43.57255" lon="3.36342">
        <ele>105</ele>
        <time>2015-05-02T13:13:28Z</time>
      </trkpt>
      <trkpt lat="43.57249" lon="3.36354">
        <ele>104</ele>
        <time>2015-05-02T13:13:57Z</time>
      </trkpt>
      <trkpt lat="43.57248" lon="3.36359">
        <ele>104</ele>
        <time>2015-05-02T13:14:35Z</time>
      </trkpt>
      <trkpt lat="43.57246" lon="3.36357">
        <ele>104</ele>
        <time>2015-05-02T13:14:55Z</time>
      </trkpt>
      <trkpt lat="43.57246" lon="3.36362">
        <ele>104</ele>
        <time>2015-05-02T13:15:21Z</time>
      </trkpt>
      <trkpt lat="43.57245" lon="3.36358">
        <ele>104</ele>
        <time>2015-05-02T13:15:53Z</time>
      </trkpt>
      <trkpt lat="43.57249" lon="3.36354">
        <ele>104</ele>
        <time>2015-05-02T13:16:28Z</time>
      </trkpt>
      <trkpt lat="43.57253" lon="3.36354">
        <ele>106</ele>
        <time>2015-05-02T13:17:04Z</time>
      </trkpt>
      <trkpt lat="43.57249" lon="3.3635">
        <ele>104</ele>
        <time>2015-05-02T13:17:48Z</time>
      </trkpt>
      <trkpt lat="43.5725" lon="3.36348">
        <ele>106</ele>
        <time>2015-05-02T13:18:02Z</time>
      </trkpt>
      <trkpt lat="43.57254" lon="3.36357">
        <ele>106</ele>
        <time>2015-05-02T13:18:18Z</time>
      </trkpt>
      <trkpt lat="43.57253" lon="3.36349">
        <ele>106</ele>
        <time>2015-05-02T13:18:29Z</time>
      </trkpt>
      <trkpt lat="43.57256" lon="3.36342">
        <ele>105</ele>
        <time>2015-05-02T13:18:45Z</time>
      </trkpt>
      <trkpt lat="43.57257" lon="3.36338">
        <ele>105</ele>
        <time>2015-05-02T13:18:53Z</time>
      </trkpt>
      <trkpt lat="43.57251" lon="3.36336">
        <ele>105</ele>
        <time>2015-05-02T13:19:08Z</time>
      </trkpt>
      <trkpt lat="43.57248" lon="3.3634">
        <ele>105</ele>
        <time>2015-05-02T13:19:33Z</time>
      </trkpt>
      <trkpt lat="43.57244" lon="3.36341">
        <ele>105</ele>
        <time>2015-05-02T13:19:36Z</time>
      </trkpt>
      <trkpt lat="43.57207" lon="3.36332">
        <ele>108</ele>
        <time>2015-05-02T13:19:52Z</time>
      </trkpt>
      <trkpt lat="43.57151" lon="3.36318">
        <ele>108</ele>
        <time>2015-05-02T13:20:10Z</time>
      </trkpt>
      <trkpt lat="43.57087" lon="3.36299">
        <ele>111</ele>
        <time>2015-05-02T13:20:30Z</time>
      </trkpt>
      <trkpt lat="43.57024" lon="3.36287">
        <ele>110</ele>
        <time>2015-05-02T13:20:47Z</time>
      </trkpt>
      <trkpt lat="43.56955" lon="3.36296">
        <ele>108</ele>
        <time>2015-05-02T13:21:05Z</time>
      </trkpt>
      <trkpt lat="43.56898" lon="3.36307">
        <ele>108</ele>
        <time>2015-05-02T13:21:24Z</time>
      </trkpt>
      <trkpt lat="43.56851" lon="3.36319">
        <ele>107</ele>
        <time>2015-05-02T13:21:41Z</time>
      </trkpt>
      <trkpt lat="43.56856" lon="3.3632">
        <ele>107</ele>
        <time>2015-05-02T13:21:47Z</time>
      </trkpt>
      <trkpt lat="43.56924" lon="3.36304">
        <ele>107</ele>
        <time>2015-05-02T13:22:07Z</time>
      </trkpt>
      <trkpt lat="43.57009" lon="3.36288">
        <ele>110</ele>
        <time>2015-05-02T13:22:29Z</time>
      </trkpt>
      <trkpt lat="43.57076" lon="3.36299">
        <ele>110</ele>
        <time>2015-05-02T13:22:47Z</time>
      </trkpt>
      <trkpt lat="43.57133" lon="3.36313">
        <ele>109</ele>
        <time>2015-05-02T13:23:03Z</time>
      </trkpt>
      <trkpt lat="43.57129" lon="3.36296">
        <ele>111</ele>
        <time>2015-05-02T13:23:11Z</time>
      </trkpt>
      <trkpt lat="43.57124" lon="3.36293">
        <ele>111</ele>
        <time>2015-05-02T13:23:13Z</time>
      </trkpt>
      <trkpt lat="43.57072" lon="3.36274">
        <ele>113</ele>
        <time>2015-05-02T13:23:34Z</time>
      </trkpt>
      <trkpt lat="43.57018" lon="3.36264">
        <ele>112</ele>
        <time>2015-05-02T13:23:48Z</time>
      </trkpt>
      <trkpt lat="43.56957" lon="3.36264">
        <ele>111</ele>
        <time>2015-05-02T13:24:03Z</time>
      </trkpt>
      <trkpt lat="43.56924" lon="3.36282">
        <ele>110</ele>
        <time>2015-05-02T13:24:18Z</time>
      </trkpt>
      <trkpt lat="43.56891" lon="3.36275">
        <ele>111</ele>
        <time>2015-05-02T13:24:35Z</time>
      </trkpt>
      <trkpt lat="43.56861" lon="3.36247">
        <ele>119</ele>
        <time>2015-05-02T13:24:52Z</time>
      </trkpt>
      <trkpt lat="43.56845" lon="3.36238">
        <ele>118</ele>
        <time>2015-05-02T13:25:02Z</time>
      </trkpt>
      <trkpt lat="43.56843" lon="3.36237">
        <ele>118</ele>
        <time>2015-05-02T13:25:03Z</time>
      </trkpt>
      <trkpt lat="43.56842" lon="3.36236">
        <ele>118</ele>
        <time>2015-05-02T13:25:04Z</time>
      </trkpt>
      <trkpt lat="43.56838" lon="3.36234">
        <ele>118</ele>
        <time>2015-05-02T13:25:06Z</time>
      </trkpt>
      <trkpt lat="43.56815" lon="3.36206">
        <ele>118</ele>
        <time>2015-05-02T13:25:22Z</time>
      </trkpt>
      <trkpt lat="43.56783" lon="3.36148">
        <ele>118</ele>
        <time>2015-05-02T13:25:41Z</time>
      </trkpt>
      <trkpt lat="43.56774" lon="3.36123">
        <ele>118</ele>
        <time>2015-05-02T13:25:45Z</time>
      </trkpt>
      <trkpt lat="43.5677" lon="3.36063">
        <ele>119</ele>
        <time>2015-05-02T13:25:55Z</time>
      </trkpt>
      <trkpt lat="43.56764" lon="3.36024">
        <ele>119</ele>
        <time>2015-05-02T13:26:06Z</time>
      </trkpt>
      <trkpt lat="43.56754" lon="3.35976">
        <ele>122</ele>
        <time>2015-05-02T13:26:24Z</time>
      </trkpt>
      <trkpt lat="43.56741" lon="3.35914">
        <ele>119</ele>
        <time>2015-05-02T13:26:43Z</time>
      </trkpt>
      <trkpt lat="43.56726" lon="3.35853">
        <ele>119</ele>
        <time>2015-05-02T13:26:59Z</time>
      </trkpt>
      <trkpt lat="43.5671" lon="3.35787">
        <ele>120</ele>
        <time>2015-05-02T13:27:13Z</time>
      </trkpt>
      <trkpt lat="43.56702" lon="3.35725">
        <ele>121</ele>
        <time>2015-05-02T13:27:27Z</time>
      </trkpt>
      <trkpt lat="43.5671" lon="3.35651">
        <ele>124</ele>
        <time>2015-05-02T13:27:45Z</time>
      </trkpt>
      <trkpt lat="43.56701" lon="3.356">
        <ele>124</ele>
        <time>2015-05-02T13:27:59Z</time>
      </trkpt>
      <trkpt lat="43.56701" lon="3.35553">
        <ele>127</ele>
        <time>2015-05-02T13:28:16Z</time>
      </trkpt>
      <trkpt lat="43.56701" lon="3.35502">
        <ele>127</ele>
        <time>2015-05-02T13:28:36Z</time>
      </trkpt>
      <trkpt lat="43.56699" lon="3.35444">
        <ele>131</ele>
        <time>2015-05-02T13:29:00Z</time>
      </trkpt>
      <trkpt lat="43.56701" lon="3.35393">
        <ele>135</ele>
        <time>2015-05-02T13:29:21Z</time>
      </trkpt>
      <trkpt lat="43.56693" lon="3.35339">
        <ele>135</ele>
        <time>2015-05-02T13:29:37Z</time>
      </trkpt>
      <trkpt lat="43.56675" lon="3.35295">
        <ele>138</ele>
        <time>2015-05-02T13:29:52Z</time>
      </trkpt>
      <trkpt lat="43.56657" lon="3.35253">
        <ele>133</ele>
        <time>2015-05-02T13:30:09Z</time>
      </trkpt>
      <trkpt lat="43.56629" lon="3.35215">
        <ele>135</ele>
        <time>2015-05-02T13:30:27Z</time>
      </trkpt>
      <trkpt lat="43.56612" lon="3.3521">
        <ele>134</ele>
        <time>2015-05-02T13:30:31Z</time>
      </trkpt>
      <trkpt lat="43.56568" lon="3.35204">
        <ele>128</ele>
        <time>2015-05-02T13:30:40Z</time>
      </trkpt>
      <trkpt lat="43.56528" lon="3.35223">
        <ele>126</ele>
        <time>2015-05-02T13:33:38Z</time>
      </trkpt>
      <trkpt lat="43.56522" lon="3.35228">
        <ele>126</ele>
        <time>2015-05-02T13:33:43Z</time>
      </trkpt>
      <trkpt lat="43.56497" lon="3.35263">
        <ele>122</ele>
        <time>2015-05-02T13:33:57Z</time>
      </trkpt>
      <trkpt lat="43.56487" lon="3.35297">
        <ele>120</ele>
        <time>2015-05-02T13:34:08Z</time>
      </trkpt>
      <trkpt lat="43.56485" lon="3.3531">
        <ele>120</ele>
        <time>2015-05-02T13:34:11Z</time>
      </trkpt>
      <trkpt lat="43.56485" lon="3.35316">
        <ele>120</ele>
        <time>2015-05-02T13:34:13Z</time>
      </trkpt>
      <trkpt lat="43.5648" lon="3.35317">
        <ele>120</ele>
        <time>2015-05-02T13:34:17Z</time>
      </trkpt>
      <trkpt lat="43.56463" lon="3.35269">
        <ele>119</ele>
        <time>2015-05-02T13:34:32Z</time>
      </trkpt>
      <trkpt lat="43.5646" lon="3.35261">
        <ele>119</ele>
        <time>2015-05-02T13:34:36Z</time>
      </trkpt>
      <trkpt lat="43.56455" lon="3.35258">
        <ele>119</ele>
        <time>2015-05-02T13:34:39Z</time>
      </trkpt>
      <trkpt lat="43.56434" lon="3.35213">
        <ele>119</ele>
        <time>2015-05-02T13:34:53Z</time>
      </trkpt>
      <trkpt lat="43.56418" lon="3.35138">
        <ele>119</ele>
        <time>2015-05-02T13:35:11Z</time>
      </trkpt>
      <trkpt lat="43.56396" lon="3.35071">
        <ele>118</ele>
        <time>2015-05-02T13:35:29Z</time>
      </trkpt>
      <trkpt lat="43.56399" lon="3.35023">
        <ele>119</ele>
        <time>2015-05-02T13:35:44Z</time>
      </trkpt>
      <trkpt lat="43.5642" lon="3.35">
        <ele>124</ele>
        <time>2015-05-02T13:35:55Z</time>
      </trkpt>
      <trkpt lat="43.56403" lon="3.34958">
        <ele>123</ele>
        <time>2015-05-02T13:36:07Z</time>
      </trkpt>
      <trkpt lat="43.56362" lon="3.34881">
        <ele>126</ele>
        <time>2015-05-02T13:36:24Z</time>
      </trkpt>
      <trkpt lat="43.56349" lon="3.34846">
        <ele>127</ele>
        <time>2015-05-02T13:36:36Z</time>
      </trkpt>
      <trkpt lat="43.56317" lon="3.34812">
        <ele>129</ele>
        <time>2015-05-02T13:36:53Z</time>
      </trkpt>
      <trkpt lat="43.56274" lon="3.34799">
        <ele>128</ele>
        <time>2015-05-02T13:37:03Z</time>
      </trkpt>
      <trkpt lat="43.56256" lon="3.34766">
        <ele>127</ele>
        <time>2015-05-02T13:37:09Z</time>
      </trkpt>
      <trkpt lat="43.56245" lon="3.34702">
        <ele>131</ele>
        <time>2015-05-02T13:37:20Z</time>
      </trkpt>
      <trkpt lat="43.56247" lon="3.34658">
        <ele>131</ele>
        <time>2015-05-02T13:37:34Z</time>
      </trkpt>
      <trkpt lat="43.56231" lon="3.34636">
        <ele>134</ele>
        <time>2015-05-02T13:37:47Z</time>
      </trkpt>
      <trkpt lat="43.56211" lon="3.34607">
        <ele>135</ele>
        <time>2015-05-02T13:38:02Z</time>
      </trkpt>
      <trkpt lat="43.56202" lon="3.34555">
        <ele>138</ele>
        <time>2015-05-02T13:38:21Z</time>
      </trkpt>
      <trkpt lat="43.56202" lon="3.34491">
        <ele>142</ele>
        <time>2015-05-02T13:38:39Z</time>
      </trkpt>
      <trkpt lat="43.56207" lon="3.3439">
        <ele>145</ele>
        <time>2015-05-02T13:39:00Z</time>
      </trkpt>
      <trkpt lat="43.56204" lon="3.34302">
        <ele>146</ele>
        <time>2015-05-02T13:39:18Z</time>
      </trkpt>
      <trkpt lat="43.56194" lon="3.3423">
        <ele>147</ele>
        <time>2015-05-02T13:39:35Z</time>
      </trkpt>
      <trkpt lat="43.56207" lon="3.34172">
        <ele>147</ele>
        <time>2015-05-02T13:39:50Z</time>
      </trkpt>
      <trkpt lat="43.56237" lon="3.34116">
        <ele>152</ele>
        <time>2015-05-02T13:40:07Z</time>
      </trkpt>
      <trkpt lat="43.56273" lon="3.34068">
        <ele>151</ele>
        <time>2015-05-02T13:40:26Z</time>
      </trkpt>
      <trkpt lat="43.56307" lon="3.34026">
        <ele>149</ele>
        <time>2015-05-02T13:40:42Z</time>
      </trkpt>
      <trkpt lat="43.56341" lon="3.34022">
        <ele>143</ele>
        <time>2015-05-02T13:40:50Z</time>
      </trkpt>
      <trkpt lat="43.56345" lon="3.34024">
        <ele>143</ele>
        <time>2015-05-02T13:40:51Z</time>
      </trkpt>
      <trkpt lat="43.56366" lon="3.34026">
        <ele>143</ele>
        <time>2015-05-02T13:40:57Z</time>
      </trkpt>
      <trkpt lat="43.56374" lon="3.34022">
        <ele>143</ele>
        <time>2015-05-02T13:40:59Z</time>
      </trkpt>
      <trkpt lat="43.56387" lon="3.34004">
        <ele>143</ele>
        <time>2015-05-02T13:41:03Z</time>
      </trkpt>
      <trkpt lat="43.56391" lon="3.33924">
        <ele>142</ele>
        <time>2015-05-02T13:41:19Z</time>
      </trkpt>
      <trkpt lat="43.56391" lon="3.33835">
        <ele>143</ele>
        <time>2015-05-02T13:41:38Z</time>
      </trkpt>
      <trkpt lat="43.56437" lon="3.33803">
        <ele>144</ele>
        <time>2015-05-02T13:41:54Z</time>
      </trkpt>
      <trkpt lat="43.56477" lon="3.33794">
        <ele>145</ele>
        <time>2015-05-02T13:42:08Z</time>
      </trkpt>
      <trkpt lat="43.56515" lon="3.33754">
        <ele>148</ele>
        <time>2015-05-02T13:42:25Z</time>
      </trkpt>
      <trkpt lat="43.56531" lon="3.33707">
        <ele>150</ele>
        <time>2015-05-02T13:42:41Z</time>
      </trkpt>
      <trkpt lat="43.56517" lon="3.33658">
        <ele>152</ele>
        <time>2015-05-02T13:42:59Z</time>
      </trkpt>
      <trkpt lat="43.565" lon="3.33609">
        <ele>155</ele>
        <time>2015-05-02T13:43:18Z</time>
      </trkpt>
      <trkpt lat="43.56473" lon="3.33565">
        <ele>156</ele>
        <time>2015-05-02T13:43:36Z</time>
      </trkpt>
      <trkpt lat="43.56456" lon="3.3352">
        <ele>157</ele>
        <time>2015-05-02T13:43:53Z</time>
      </trkpt>
      <trkpt lat="43.56424" lon="3.3347">
        <ele>160</ele>
        <time>2015-05-02T13:44:14Z</time>
      </trkpt>
      <trkpt lat="43.56392" lon="3.33417">
        <ele>156</ele>
        <time>2015-05-02T13:44:23Z</time>
      </trkpt>
      <trkpt lat="43.56349" lon="3.33317">
        <ele>163</ele>
        <time>2015-05-02T13:44:37Z</time>
      </trkpt>
      <trkpt lat="43.56328" lon="3.33263">
        <ele>163</ele>
        <time>2015-05-02T13:44:49Z</time>
      </trkpt>
      <trkpt lat="43.56313" lon="3.33187">
        <ele>167</ele>
        <time>2015-05-02T13:45:05Z</time>
      </trkpt>
      <trkpt lat="43.56306" lon="3.33124">
        <ele>170</ele>
        <time>2015-05-02T13:45:20Z</time>
      </trkpt>
      <trkpt lat="43.56306" lon="3.33043">
        <ele>171</ele>
        <time>2015-05-02T13:45:37Z</time>
      </trkpt>
      <trkpt lat="43.56303" lon="3.32992">
        <ele>170</ele>
        <time>2015-05-02T13:45:49Z</time>
      </trkpt>
      <trkpt lat="43.56269" lon="3.32968">
        <ele>169</ele>
        <time>2015-05-02T13:46:00Z</time>
      </trkpt>
      <trkpt lat="43.56263" lon="3.32965">
        <ele>169</ele>
        <time>2015-05-02T13:46:02Z</time>
      </trkpt>
      <trkpt lat="43.56261" lon="3.32948">
        <ele>170</ele>
        <time>2015-05-02T13:46:07Z</time>
      </trkpt>
      <trkpt lat="43.56263" lon="3.32892">
        <ele>170</ele>
        <time>2015-05-02T13:46:25Z</time>
      </trkpt>
      <trkpt lat="43.56263" lon="3.3283">
        <ele>172</ele>
        <time>2015-05-02T13:46:45Z</time>
      </trkpt>
      <trkpt lat="43.56274" lon="3.32779">
        <ele>172</ele>
        <time>2015-05-02T13:47:01Z</time>
      </trkpt>
      <trkpt lat="43.56277" lon="3.32726">
        <ele>175</ele>
        <time>2015-05-02T13:47:18Z</time>
      </trkpt>
      <trkpt lat="43.56274" lon="3.32665">
        <ele>179</ele>
        <time>2015-05-02T13:47:38Z</time>
      </trkpt>
      <trkpt lat="43.56271" lon="3.32616">
        <ele>180</ele>
        <time>2015-05-02T13:47:56Z</time>
      </trkpt>
      <trkpt lat="43.56263" lon="3.32564">
        <ele>182</ele>
        <time>2015-05-02T13:48:16Z</time>
      </trkpt>
      <trkpt lat="43.56265" lon="3.32522">
        <ele>182</ele>
        <time>2015-05-02T13:48:30Z</time>
      </trkpt>
      <trkpt lat="43.56268" lon="3.32478">
        <ele>182</ele>
        <time>2015-05-02T13:48:47Z</time>
      </trkpt>
      <trkpt lat="43.56272" lon="3.32434">
        <ele>183</ele>
        <time>2015-05-02T13:49:02Z</time>
      </trkpt>
      <trkpt lat="43.56281" lon="3.32389">
        <ele>185</ele>
        <time>2015-05-02T13:49:17Z</time>
      </trkpt>
      <trkpt lat="43.56279" lon="3.32363">
        <ele>186</ele>
        <time>2015-05-02T13:49:30Z</time>
      </trkpt>
      <trkpt lat="43.56273" lon="3.32366">
        <ele>186</ele>
        <time>2015-05-02T13:49:35Z</time>
      </trkpt>
      <trkpt lat="43.56262" lon="3.32399">
        <ele>186</ele>
        <time>2015-05-02T13:49:50Z</time>
      </trkpt>
      <trkpt lat="43.56249" lon="3.32455">
        <ele>195</ele>
        <time>2015-05-02T13:50:10Z</time>
      </trkpt>
      <trkpt lat="43.56236" lon="3.32496">
        <ele>191</ele>
        <time>2015-05-02T13:50:25Z</time>
      </trkpt>
      <trkpt lat="43.56217" lon="3.32532">
        <ele>195</ele>
        <time>2015-05-02T13:50:43Z</time>
      </trkpt>
      <trkpt lat="43.56216" lon="3.32534">
        <ele>196</ele>
        <time>2015-05-02T13:50:44Z</time>
      </trkpt>
      <trkpt lat="43.56211" lon="3.32515">
        <ele>197</ele>
        <time>2015-05-02T13:50:55Z</time>
      </trkpt>
      <trkpt lat="43.56224" lon="3.32482">
        <ele>197</ele>
        <time>2015-05-02T13:51:13Z</time>
      </trkpt>
      <trkpt lat="43.56226" lon="3.32447">
        <ele>198</ele>
        <time>2015-05-02T13:51:31Z</time>
      </trkpt>
      <trkpt lat="43.56223" lon="3.32414">
        <ele>199</ele>
        <time>2015-05-02T13:51:46Z</time>
      </trkpt>
      <trkpt lat="43.56223" lon="3.32377">
        <ele>201</ele>
        <time>2015-05-02T13:52:04Z</time>
      </trkpt>
      <trkpt lat="43.56223" lon="3.32376">
        <ele>201</ele>
        <time>2015-05-02T13:52:05Z</time>
      </trkpt>
      <trkpt lat="43.56218" lon="3.32371">
        <ele>202</ele>
        <time>2015-05-02T13:52:10Z</time>
      </trkpt>
      <trkpt lat="43.56212" lon="3.3238">
        <ele>203</ele>
        <time>2015-05-02T13:52:16Z</time>
      </trkpt>
      <trkpt lat="43.56204" lon="3.32421">
        <ele>204</ele>
        <time>2015-05-02T13:52:36Z</time>
      </trkpt>
      <trkpt lat="43.56196" lon="3.32459">
        <ele>204</ele>
        <time>2015-05-02T13:52:55Z</time>
      </trkpt>
      <trkpt lat="43.5618" lon="3.32494">
        <ele>209</ele>
        <time>2015-05-02T13:53:14Z</time>
      </trkpt>
      <trkpt lat="43.56166" lon="3.32521">
        <ele>219</ele>
        <time>2015-05-02T13:53:30Z</time>
      </trkpt>
      <trkpt lat="43.56148" lon="3.32551">
        <ele>219</ele>
        <time>2015-05-02T13:53:49Z</time>
      </trkpt>
      <trkpt lat="43.56133" lon="3.32578">
        <ele>220</ele>
        <time>2015-05-02T13:54:06Z</time>
      </trkpt>
      <trkpt lat="43.56111" lon="3.32598">
        <ele>217</ele>
        <time>2015-05-02T13:54:22Z</time>
      </trkpt>
      <trkpt lat="43.56083" lon="3.32612">
        <ele>230</ele>
        <time>2015-05-02T13:54:40Z</time>
      </trkpt>
      <trkpt lat="43.56054" lon="3.32629">
        <ele>231</ele>
        <time>2015-05-02T13:55:01Z</time>
      </trkpt>
      <trkpt lat="43.56036" lon="3.32652">
        <ele>232</ele>
        <time>2015-05-02T13:55:19Z</time>
      </trkpt>
      <trkpt lat="43.56029" lon="3.32694">
        <ele>228</ele>
        <time>2015-05-02T13:55:36Z</time>
      </trkpt>
      <trkpt lat="43.56027" lon="3.32731">
        <ele>229</ele>
        <time>2015-05-02T13:55:53Z</time>
      </trkpt>
      <trkpt lat="43.5604" lon="3.3277">
        <ele>226</ele>
        <time>2015-05-02T13:56:10Z</time>
      </trkpt>
      <trkpt lat="43.56039" lon="3.32808">
        <ele>227</ele>
        <time>2015-05-02T13:56:27Z</time>
      </trkpt>
      <trkpt lat="43.56036" lon="3.3284">
        <ele>228</ele>
        <time>2015-05-02T13:56:42Z</time>
      </trkpt>
      <trkpt lat="43.56022" lon="3.32879">
        <ele>228</ele>
        <time>2015-05-02T13:57:01Z</time>
      </trkpt>
      <trkpt lat="43.55998" lon="3.32907">
        <ele>240</ele>
        <time>2015-05-02T13:57:19Z</time>
      </trkpt>
      <trkpt lat="43.55972" lon="3.3292">
        <ele>240</ele>
        <time>2015-05-02T13:57:36Z</time>
      </trkpt>
      <trkpt lat="43.55947" lon="3.32941">
        <ele>243</ele>
        <time>2015-05-02T13:57:52Z</time>
      </trkpt>
      <trkpt lat="43.55929" lon="3.32979">
        <ele>242</ele>
        <time>2015-05-02T13:58:05Z</time>
      </trkpt>
      <trkpt lat="43.55917" lon="3.32995">
        <ele>243</ele>
        <time>2015-05-02T13:58:14Z</time>
      </trkpt>
      <trkpt lat="43.55903" lon="3.3303">
        <ele>246</ele>
        <time>2015-05-02T13:58:30Z</time>
      </trkpt>
      <trkpt lat="43.55876" lon="3.33077">
        <ele>246</ele>
        <time>2015-05-02T13:58:45Z</time>
      </trkpt>
      <trkpt lat="43.55849" lon="3.33116">
        <ele>244</ele>
        <time>2015-05-02T13:59:00Z</time>
      </trkpt>
      <trkpt lat="43.55826" lon="3.33161">
        <ele>248</ele>
        <time>2015-05-02T13:59:20Z</time>
      </trkpt>
      <trkpt lat="43.55806" lon="3.33199">
        <ele>253</ele>
        <time>2015-05-02T13:59:38Z</time>
      </trkpt>
      <trkpt lat="43.55792" lon="3.3324">
        <ele>255</ele>
        <time>2015-05-02T13:59:55Z</time>
      </trkpt>
      <trkpt lat="43.55784" lon="3.33268">
        <ele>256</ele>
        <time>2015-05-02T14:00:09Z</time>
      </trkpt>
      <trkpt lat="43.55778" lon="3.33297">
        <ele>256</ele>
        <time>2015-05-02T14:00:25Z</time>
      </trkpt>
      <trkpt lat="43.55768" lon="3.33331">
        <ele>256</ele>
        <time>2015-05-02T14:00:43Z</time>
      </trkpt>
      <trkpt lat="43.5575" lon="3.3337">
        <ele>257</ele>
        <time>2015-05-02T14:01:04Z</time>
      </trkpt>
      <trkpt lat="43.5573" lon="3.33405">
        <ele>256</ele>
        <time>2015-05-02T14:01:23Z</time>
      </trkpt>
      <trkpt lat="43.55708" lon="3.33437">
        <ele>258</ele>
        <time>2015-05-02T14:01:41Z</time>
      </trkpt>
      <trkpt lat="43.55703" lon="3.33444">
        <ele>259</ele>
        <time>2015-05-02T14:01:45Z</time>
      </trkpt>
      <trkpt lat="43.55698" lon="3.33427">
        <ele>258</ele>
        <time>2015-05-02T14:01:54Z</time>
      </trkpt>
      <trkpt lat="43.55709" lon="3.33398">
        <ele>256</ele>
        <time>2015-05-02T14:02:08Z</time>
      </trkpt>
      <trkpt lat="43.55703" lon="3.33373">
        <ele>257</ele>
        <time>2015-05-02T14:02:22Z</time>
      </trkpt>
      <trkpt lat="43.55677" lon="3.33344">
        <ele>257</ele>
        <time>2015-05-02T14:02:37Z</time>
      </trkpt>
      <trkpt lat="43.55637" lon="3.33316">
        <ele>259</ele>
        <time>2015-05-02T14:02:52Z</time>
      </trkpt>
      <trkpt lat="43.55582" lon="3.33304">
        <ele>255</ele>
        <time>2015-05-02T14:03:07Z</time>
      </trkpt>
      <trkpt lat="43.55546" lon="3.33295">
        <ele>255</ele>
        <time>2015-05-02T14:03:16Z</time>
      </trkpt>
      <trkpt lat="43.55528" lon="3.33268">
        <ele>255</ele>
        <time>2015-05-02T14:03:23Z</time>
      </trkpt>
      <trkpt lat="43.55516" lon="3.33223">
        <ele>255</ele>
        <time>2015-05-02T14:03:33Z</time>
      </trkpt>
      <trkpt lat="43.55506" lon="3.33209">
        <ele>255</ele>
        <time>2015-05-02T14:03:36Z</time>
      </trkpt>
      <trkpt lat="43.55487" lon="3.33207">
        <ele>252</ele>
        <time>2015-05-02T14:03:44Z</time>
      </trkpt>
      <trkpt lat="43.55494" lon="3.33205">
        <ele>252</ele>
        <time>2015-05-02T14:04:03Z</time>
      </trkpt>
      <trkpt lat="43.55495" lon="3.33206">
        <ele>252</ele>
        <time>2015-05-02T14:04:05Z</time>
      </trkpt>
      <trkpt lat="43.55512" lon="3.33214">
        <ele>256</ele>
        <time>2015-05-02T14:04:22Z</time>
      </trkpt>
      <trkpt lat="43.55522" lon="3.33231">
        <ele>255</ele>
        <time>2015-05-02T14:04:41Z</time>
      </trkpt>
      <trkpt lat="43.55528" lon="3.33256">
        <ele>255</ele>
        <time>2015-05-02T14:04:52Z</time>
      </trkpt>
      <trkpt lat="43.55537" lon="3.33285">
        <ele>255</ele>
        <time>2015-05-02T14:05:05Z</time>
      </trkpt>
      <trkpt lat="43.55536" lon="3.33284">
        <ele>255</ele>
        <time>2015-05-02T14:05:30Z</time>
      </trkpt>
      <trkpt lat="43.55534" lon="3.33282">
        <ele>255</ele>
        <time>2015-05-02T14:06:23Z</time>
      </trkpt>
      <trkpt lat="43.55534" lon="3.33286">
        <ele>255</ele>
        <time>2015-05-02T14:07:05Z</time>
      </trkpt>
      <trkpt lat="43.55534" lon="3.33288">
        <ele>255</ele>
        <time>2015-05-02T14:07:50Z</time>
      </trkpt>
      <trkpt lat="43.55536" lon="3.33283">
        <ele>255</ele>
        <time>2015-05-02T14:08:38Z</time>
      </trkpt>
      <trkpt lat="43.55533" lon="3.33282">
        <ele>255</ele>
        <time>2015-05-02T14:09:04Z</time>
      </trkpt>
      <trkpt lat="43.55532" lon="3.33276">
        <ele>255</ele>
        <time>2015-05-02T14:09:10Z</time>
      </trkpt>
      <trkpt lat="43.55519" lon="3.33231">
        <ele>255</ele>
        <time>2015-05-02T14:09:25Z</time>
      </trkpt>
      <trkpt lat="43.55507" lon="3.33213">
        <ele>255</ele>
        <time>2015-05-02T14:09:31Z</time>
      </trkpt>
      <trkpt lat="43.55476" lon="3.33205">
        <ele>252</ele>
        <time>2015-05-02T14:09:38Z</time>
      </trkpt>
      <trkpt lat="43.55453" lon="3.33207">
        <ele>252</ele>
        <time>2015-05-02T14:09:44Z</time>
      </trkpt>
      <trkpt lat="43.55449" lon="3.33209">
        <ele>252</ele>
        <time>2015-05-02T14:09:45Z</time>
      </trkpt>
      <trkpt lat="43.55426" lon="3.33217">
        <ele>252</ele>
        <time>2015-05-02T14:09:55Z</time>
      </trkpt>
      <trkpt lat="43.55423" lon="3.33206">
        <ele>252</ele>
        <time>2015-05-02T14:10:00Z</time>
      </trkpt>
      <trkpt lat="43.55423" lon="3.33202">
        <ele>252</ele>
        <time>2015-05-02T14:10:02Z</time>
      </trkpt>
      <trkpt lat="43.55422" lon="3.33185">
        <ele>253</ele>
        <time>2015-05-02T14:10:10Z</time>
      </trkpt>
      <trkpt lat="43.5542" lon="3.33171">
        <ele>254</ele>
        <time>2015-05-02T14:10:17Z</time>
      </trkpt>
      <trkpt lat="43.55415" lon="3.33156">
        <ele>256</ele>
        <time>2015-05-02T14:10:30Z</time>
      </trkpt>
      <trkpt lat="43.55414" lon="3.33142">
        <ele>258</ele>
        <time>2015-05-02T14:10:42Z</time>
      </trkpt>
      <trkpt lat="43.55414" lon="3.33141">
        <ele>258</ele>
        <time>2015-05-02T14:10:43Z</time>
      </trkpt>
      <trkpt lat="43.55415" lon="3.33134">
        <ele>259</ele>
        <time>2015-05-02T14:10:47Z</time>
      </trkpt>
      <trkpt lat="43.55428" lon="3.33099">
        <ele>256</ele>
        <time>2015-05-02T14:11:06Z</time>
      </trkpt>
      <trkpt lat="43.55436" lon="3.33074">
        <ele>258</ele>
        <time>2015-05-02T14:11:16Z</time>
      </trkpt>
      <trkpt lat="43.55457" lon="3.3303">
        <ele>259</ele>
        <time>2015-05-02T14:11:32Z</time>
      </trkpt>
      <trkpt lat="43.55475" lon="3.32986">
        <ele>262</ele>
        <time>2015-05-02T14:11:49Z</time>
      </trkpt>
      <trkpt lat="43.55488" lon="3.32936">
        <ele>264</ele>
        <time>2015-05-02T14:12:07Z</time>
      </trkpt>
      <trkpt lat="43.55501" lon="3.32904">
        <ele>264</ele>
        <time>2015-05-02T14:12:22Z</time>
      </trkpt>
      <trkpt lat="43.55508" lon="3.32864">
        <ele>265</ele>
        <time>2015-05-02T14:12:37Z</time>
      </trkpt>
      <trkpt lat="43.55519" lon="3.32823">
        <ele>267</ele>
        <time>2015-05-02T14:12:52Z</time>
      </trkpt>
      <trkpt lat="43.55525" lon="3.3278">
        <ele>266</ele>
        <time>2015-05-02T14:13:04Z</time>
      </trkpt>
      <trkpt lat="43.5554" lon="3.32706">
        <ele>268</ele>
        <time>2015-05-02T14:13:22Z</time>
      </trkpt>
      <trkpt lat="43.55539" lon="3.32647">
        <ele>270</ele>
        <time>2015-05-02T14:13:38Z</time>
      </trkpt>
      <trkpt lat="43.55539" lon="3.32587">
        <ele>271</ele>
        <time>2015-05-02T14:13:55Z</time>
      </trkpt>
      <trkpt lat="43.55539" lon="3.32508">
        <ele>271</ele>
        <time>2015-05-02T14:14:14Z</time>
      </trkpt>
      <trkpt lat="43.55525" lon="3.32452">
        <ele>273</ele>
        <time>2015-05-02T14:14:29Z</time>
      </trkpt>
      <trkpt lat="43.55498" lon="3.324">
        <ele>278</ele>
        <time>2015-05-02T14:14:46Z</time>
      </trkpt>
      <trkpt lat="43.55474" lon="3.32364">
        <ele>278</ele>
        <time>2015-05-02T14:14:59Z</time>
      </trkpt>
      <trkpt lat="43.55443" lon="3.32321">
        <ele>277</ele>
        <time>2015-05-02T14:15:16Z</time>
      </trkpt>
      <trkpt lat="43.55408" lon="3.32289">
        <ele>280</ele>
        <time>2015-05-02T14:15:32Z</time>
      </trkpt>
      <trkpt lat="43.55378" lon="3.32255">
        <ele>281</ele>
        <time>2015-05-02T14:15:48Z</time>
      </trkpt>
      <trkpt lat="43.55365" lon="3.32251">
        <ele>282</ele>
        <time>2015-05-02T14:15:54Z</time>
      </trkpt>
      <trkpt lat="43.55361" lon="3.32246">
        <ele>283</ele>
        <time>2015-05-02T14:15:57Z</time>
      </trkpt>
      <trkpt lat="43.55365" lon="3.32223">
        <ele>283</ele>
        <time>2015-05-02T14:16:07Z</time>
      </trkpt>
      <trkpt lat="43.55359" lon="3.32184">
        <ele>283</ele>
        <time>2015-05-02T14:16:22Z</time>
      </trkpt>
      <trkpt lat="43.55345" lon="3.32156">
        <ele>286</ele>
        <time>2015-05-02T14:16:35Z</time>
      </trkpt>
      <trkpt lat="43.55323" lon="3.32132">
        <ele>290</ele>
        <time>2015-05-02T14:16:51Z</time>
      </trkpt>
      <trkpt lat="43.55299" lon="3.32123">
        <ele>292</ele>
        <time>2015-05-02T14:17:09Z</time>
      </trkpt>
      <trkpt lat="43.5529" lon="3.32131">
        <ele>292</ele>
        <time>2015-05-02T14:17:19Z</time>
      </trkpt>
      <trkpt lat="43.55283" lon="3.3214">
        <ele>293</ele>
        <time>2015-05-02T14:17:29Z</time>
      </trkpt>
      <trkpt lat="43.55266" lon="3.3216">
        <ele>295</ele>
        <time>2015-05-02T14:17:45Z</time>
      </trkpt>
      <trkpt lat="43.55246" lon="3.32163">
        <ele>298</ele>
        <time>2015-05-02T14:18:00Z</time>
      </trkpt>
      <trkpt lat="43.55244" lon="3.32163">
        <ele>298</ele>
        <time>2015-05-02T14:18:01Z</time>
      </trkpt>
      <trkpt lat="43.5522" lon="3.32163">
        <ele>300</ele>
        <time>2015-05-02T14:18:18Z</time>
      </trkpt>
      <trkpt lat="43.55212" lon="3.32158">
        <ele>300</ele>
        <time>2015-05-02T14:18:23Z</time>
      </trkpt>
      <trkpt lat="43.55206" lon="3.3215">
        <ele>300</ele>
        <time>2015-05-02T14:18:28Z</time>
      </trkpt>
      <trkpt lat="43.55206" lon="3.32144">
        <ele>300</ele>
        <time>2015-05-02T14:18:45Z</time>
      </trkpt>
      <trkpt lat="43.55205" lon="3.32137">
        <ele>300</ele>
        <time>2015-05-02T14:19:04Z</time>
      </trkpt>
      <trkpt lat="43.55188" lon="3.3215">
        <ele>301</ele>
        <time>2015-05-02T14:19:18Z</time>
      </trkpt>
      <trkpt lat="43.55181" lon="3.32153">
        <ele>302</ele>
        <time>2015-05-02T14:19:35Z</time>
      </trkpt>
      <trkpt lat="43.55167" lon="3.32153">
        <ele>303</ele>
        <time>2015-05-02T14:19:51Z</time>
      </trkpt>
      <trkpt lat="43.55164" lon="3.32158">
        <ele>305</ele>
        <time>2015-05-02T14:20:12Z</time>
      </trkpt>
      <trkpt lat="43.55152" lon="3.32169">
        <ele>306</ele>
        <time>2015-05-02T14:20:28Z</time>
      </trkpt>
      <trkpt lat="43.55145" lon="3.32178">
        <ele>306</ele>
        <time>2015-05-02T14:20:43Z</time>
      </trkpt>
      <trkpt lat="43.55121" lon="3.32203">
        <ele>307</ele>
        <time>2015-05-02T14:20:58Z</time>
      </trkpt>
      <trkpt lat="43.55088" lon="3.32242">
        <ele>308</ele>
        <time>2015-05-02T14:21:11Z</time>
      </trkpt>
      <trkpt lat="43.55051" lon="3.32287">
        <ele>308</ele>
        <time>2015-05-02T14:21:26Z</time>
      </trkpt>
      <trkpt lat="43.55021" lon="3.32306">
        <ele>307</ele>
        <time>2015-05-02T14:21:41Z</time>
      </trkpt>
      <trkpt lat="43.55008" lon="3.32295">
        <ele>307</ele>
        <time>2015-05-02T14:21:56Z</time>
      </trkpt>
      <trkpt lat="43.55005" lon="3.32288">
        <ele>307</ele>
        <time>2015-05-02T14:21:58Z</time>
      </trkpt>
      <trkpt lat="43.54998" lon="3.32228">
        <ele>303</ele>
        <time>2015-05-02T14:22:12Z</time>
      </trkpt>
      <trkpt lat="43.54974" lon="3.32191">
        <ele>303</ele>
        <time>2015-05-02T14:22:24Z</time>
      </trkpt>
      <trkpt lat="43.54976" lon="3.3219">
        <ele>303</ele>
        <time>2015-05-02T14:22:42Z</time>
      </trkpt>
      <trkpt lat="43.54979" lon="3.32179">
        <ele>304</ele>
        <time>2015-05-02T14:22:47Z</time>
      </trkpt>
      <trkpt lat="43.54984" lon="3.32163">
        <ele>307</ele>
        <time>2015-05-02T14:22:54Z</time>
      </trkpt>
      <trkpt lat="43.54986" lon="3.32158">
        <ele>307</ele>
        <time>2015-05-02T14:22:56Z</time>
      </trkpt>
      <trkpt lat="43.5499" lon="3.32136">
        <ele>306</ele>
        <time>2015-05-02T14:23:06Z</time>
      </trkpt>
      <trkpt lat="43.54987" lon="3.32121">
        <ele>306</ele>
        <time>2015-05-02T14:23:12Z</time>
      </trkpt>
      <trkpt lat="43.54981" lon="3.32076">
        <ele>307</ele>
        <time>2015-05-02T14:23:26Z</time>
      </trkpt>
      <trkpt lat="43.5498" lon="3.32071">
        <ele>308</ele>
        <time>2015-05-02T14:23:37Z</time>
      </trkpt>
      <trkpt lat="43.54973" lon="3.32025">
        <ele>308</ele>
        <time>2015-05-02T14:23:50Z</time>
      </trkpt>
      <trkpt lat="43.54985" lon="3.3197">
        <ele>308</ele>
        <time>2015-05-02T14:24:02Z</time>
      </trkpt>
      <trkpt lat="43.55021" lon="3.31928">
        <ele>307</ele>
        <time>2015-05-02T14:24:16Z</time>
      </trkpt>
      <trkpt lat="43.5507" lon="3.31897">
        <ele>307</ele>
        <time>2015-05-02T14:24:32Z</time>
      </trkpt>
      <trkpt lat="43.55085" lon="3.31888">
        <ele>310</ele>
        <time>2015-05-02T14:24:38Z</time>
      </trkpt>
      <trkpt lat="43.55087" lon="3.31871">
        <ele>311</ele>
        <time>2015-05-02T14:24:44Z</time>
      </trkpt>
      <trkpt lat="43.55087" lon="3.31868">
        <ele>311</ele>
        <time>2015-05-02T14:25:00Z</time>
      </trkpt>
      <trkpt lat="43.55088" lon="3.31871">
        <ele>311</ele>
        <time>2015-05-02T14:25:11Z</time>
      </trkpt>
      <trkpt lat="43.55093" lon="3.31884">
        <ele>310</ele>
        <time>2015-05-02T14:25:17Z</time>
      </trkpt>
      <trkpt lat="43.55103" lon="3.31882">
        <ele>311</ele>
        <time>2015-05-02T14:25:24Z</time>
      </trkpt>
      <trkpt lat="43.55129" lon="3.31867">
        <ele>312</ele>
        <time>2015-05-02T14:25:41Z</time>
      </trkpt>
      <trkpt lat="43.55152" lon="3.3186">
        <ele>313</ele>
        <time>2015-05-02T14:25:57Z</time>
      </trkpt>
      <trkpt lat="43.55169" lon="3.31856">
        <ele>318</ele>
        <time>2015-05-02T14:26:11Z</time>
      </trkpt>
      <trkpt lat="43.55179" lon="3.3186">
        <ele>318</ele>
        <time>2015-05-02T14:26:29Z</time>
      </trkpt>
      <trkpt lat="43.55191" lon="3.31862">
        <ele>318</ele>
        <time>2015-05-02T14:26:45Z</time>
      </trkpt>
      <trkpt lat="43.55199" lon="3.31861">
        <ele>319</ele>
        <time>2015-05-02T14:26:59Z</time>
      </trkpt>
      <trkpt lat="43.55211" lon="3.31857">
        <ele>320</ele>
        <time>2015-05-02T14:27:14Z</time>
      </trkpt>
      <trkpt lat="43.55223" lon="3.31857">
        <ele>321</ele>
        <time>2015-05-02T14:27:33Z</time>
      </trkpt>
      <trkpt lat="43.55247" lon="3.31857">
        <ele>322</ele>
        <time>2015-05-02T14:27:49Z</time>
      </trkpt>
      <trkpt lat="43.55268" lon="3.3186">
        <ele>323</ele>
        <time>2015-05-02T14:28:03Z</time>
      </trkpt>
      <trkpt lat="43.5527" lon="3.3186">
        <ele>323</ele>
        <time>2015-05-02T14:28:04Z</time>
      </trkpt>
      <trkpt lat="43.55274" lon="3.31857">
        <ele>323</ele>
        <time>2015-05-02T14:28:08Z</time>
      </trkpt>
      <trkpt lat="43.55279" lon="3.31831">
        <ele>329</ele>
        <time>2015-05-02T14:28:23Z</time>
      </trkpt>
      <trkpt lat="43.55279" lon="3.31824">
        <ele>329</ele>
        <time>2015-05-02T14:28:28Z</time>
      </trkpt>
      <trkpt lat="43.55273" lon="3.31809">
        <ele>329</ele>
        <time>2015-05-02T14:28:37Z</time>
      </trkpt>
      <trkpt lat="43.55278" lon="3.31775">
        <ele>330</ele>
        <time>2015-05-02T14:28:55Z</time>
      </trkpt>
      <trkpt lat="43.55294" lon="3.31748">
        <ele>331</ele>
        <time>2015-05-02T14:29:13Z</time>
      </trkpt>
      <trkpt lat="43.55309" lon="3.31718">
        <ele>331</ele>
        <time>2015-05-02T14:29:34Z</time>
      </trkpt>
      <trkpt lat="43.55308" lon="3.31716">
        <ele>331</ele>
        <time>2015-05-02T14:30:02Z</time>
      </trkpt>
      <trkpt lat="43.55308" lon="3.31713">
        <ele>331</ele>
        <time>2015-05-02T14:30:15Z</time>
      </trkpt>
      <trkpt lat="43.5531" lon="3.31705">
        <ele>330</ele>
        <time>2015-05-02T14:30:29Z</time>
      </trkpt>
      <trkpt lat="43.55316" lon="3.31695">
        <ele>330</ele>
        <time>2015-05-02T14:30:40Z</time>
      </trkpt>
      <trkpt lat="43.55319" lon="3.31694">
        <ele>331</ele>
        <time>2015-05-02T14:30:49Z</time>
      </trkpt>
      <trkpt lat="43.55346" lon="3.31691">
        <ele>332</ele>
        <time>2015-05-02T14:31:03Z</time>
      </trkpt>
      <trkpt lat="43.5536" lon="3.31684">
        <ele>331</ele>
        <time>2015-05-02T14:31:08Z</time>
      </trkpt>
      <trkpt lat="43.55366" lon="3.31679">
        <ele>331</ele>
        <time>2015-05-02T14:31:10Z</time>
      </trkpt>
      <trkpt lat="43.5537" lon="3.31674">
        <ele>331</ele>
        <time>2015-05-02T14:31:11Z</time>
      </trkpt>
      <trkpt lat="43.55391" lon="3.31667">
        <ele>331</ele>
        <time>2015-05-02T14:31:15Z</time>
      </trkpt>
      <trkpt lat="43.55414" lon="3.31658">
        <ele>329</ele>
        <time>2015-05-02T14:31:23Z</time>
      </trkpt>
      <trkpt lat="43.55431" lon="3.31639">
        <ele>328</ele>
        <time>2015-05-02T14:31:29Z</time>
      </trkpt>
      <trkpt lat="43.55436" lon="3.31631">
        <ele>328</ele>
        <time>2015-05-02T14:31:31Z</time>
      </trkpt>
      <trkpt lat="43.5544" lon="3.3162">
        <ele>327</ele>
        <time>2015-05-02T14:31:33Z</time>
      </trkpt>
      <trkpt lat="43.55446" lon="3.31604">
        <ele>326</ele>
        <time>2015-05-02T14:31:36Z</time>
      </trkpt>
      <trkpt lat="43.55457" lon="3.31581">
        <ele>320</ele>
        <time>2015-05-02T14:31:43Z</time>
      </trkpt>
      <trkpt lat="43.55463" lon="3.31564">
        <ele>319</ele>
        <time>2015-05-02T14:31:48Z</time>
      </trkpt>
      <trkpt lat="43.55478" lon="3.31522">
        <ele>317</ele>
        <time>2015-05-02T14:31:57Z</time>
      </trkpt>
      <trkpt lat="43.55482" lon="3.31505">
        <ele>316</ele>
        <time>2015-05-02T14:32:02Z</time>
      </trkpt>
      <trkpt lat="43.55504" lon="3.31462">
        <ele>312</ele>
        <time>2015-05-02T14:32:14Z</time>
      </trkpt>
      <trkpt lat="43.55507" lon="3.31458">
        <ele>312</ele>
        <time>2015-05-02T14:32:15Z</time>
      </trkpt>
      <trkpt lat="43.55517" lon="3.31439">
        <ele>311</ele>
        <time>2015-05-02T14:32:19Z</time>
      </trkpt>
      <trkpt lat="43.55539" lon="3.31414">
        <ele>304</ele>
        <time>2015-05-02T14:32:25Z</time>
      </trkpt>
      <trkpt lat="43.5555" lon="3.31401">
        <ele>304</ele>
        <time>2015-05-02T14:32:28Z</time>
      </trkpt>
      <trkpt lat="43.55563" lon="3.31375">
        <ele>303</ele>
        <time>2015-05-02T14:32:34Z</time>
      </trkpt>
      <trkpt lat="43.55562" lon="3.31334">
        <ele>301</ele>
        <time>2015-05-02T14:32:39Z</time>
      </trkpt>
      <trkpt lat="43.55556" lon="3.31291">
        <ele>298</ele>
        <time>2015-05-02T14:32:43Z</time>
      </trkpt>
      <trkpt lat="43.55558" lon="3.31252">
        <ele>298</ele>
        <time>2015-05-02T14:32:50Z</time>
      </trkpt>
      <trkpt lat="43.55555" lon="3.31247">
        <ele>298</ele>
        <time>2015-05-02T14:35:47Z</time>
      </trkpt>
      <trkpt lat="43.5555" lon="3.31245">
        <ele>298</ele>
        <time>2015-05-02T14:35:59Z</time>
      </trkpt>
      <trkpt lat="43.55546" lon="3.31245">
        <ele>298</ele>
        <time>2015-05-02T14:36:02Z</time>
      </trkpt>
      <trkpt lat="43.55539" lon="3.31259">
        <ele>296</ele>
        <time>2015-05-02T14:36:18Z</time>
      </trkpt>
      <trkpt lat="43.55532" lon="3.31255">
        <ele>296</ele>
        <time>2015-05-02T14:36:34Z</time>
      </trkpt>
      <trkpt lat="43.55531" lon="3.31255">
        <ele>296</ele>
        <time>2015-05-02T14:36:56Z</time>
      </trkpt>
      <trkpt lat="43.55531" lon="3.31254">
        <ele>296</ele>
        <time>2015-05-02T14:36:59Z</time>
      </trkpt>
      <trkpt lat="43.55521" lon="3.31241">
        <ele>295</ele>
        <time>2015-05-02T14:37:09Z</time>
      </trkpt>
      <trkpt lat="43.55518" lon="3.31235">
        <ele>295</ele>
        <time>2015-05-02T14:37:20Z</time>
      </trkpt>
      <trkpt lat="43.55509" lon="3.31225">
        <ele>295</ele>
        <time>2015-05-02T14:37:36Z</time>
      </trkpt>
      <trkpt lat="43.5549" lon="3.31204">
        <ele>283</ele>
        <time>2015-05-02T14:37:47Z</time>
      </trkpt>
      <trkpt lat="43.55471" lon="3.31177">
        <ele>282</ele>
        <time>2015-05-02T14:37:58Z</time>
      </trkpt>
      <trkpt lat="43.55458" lon="3.3115">
        <ele>283</ele>
        <time>2015-05-02T14:38:08Z</time>
      </trkpt>
      <trkpt lat="43.55459" lon="3.31149">
        <ele>283</ele>
        <time>2015-05-02T14:38:24Z</time>
      </trkpt>
      <trkpt lat="43.55453" lon="3.31148">
        <ele>282</ele>
        <time>2015-05-02T14:38:44Z</time>
      </trkpt>
      <trkpt lat="43.55455" lon="3.31153">
        <ele>282</ele>
        <time>2015-05-02T14:38:53Z</time>
      </trkpt>
      <trkpt lat="43.55457" lon="3.31161">
        <ele>282</ele>
        <time>2015-05-02T14:38:57Z</time>
      </trkpt>
      <trkpt lat="43.55457" lon="3.31189">
        <ele>279</ele>
        <time>2015-05-02T14:39:06Z</time>
      </trkpt>
      <trkpt lat="43.55457" lon="3.31202">
        <ele>279</ele>
        <time>2015-05-02T14:39:17Z</time>
      </trkpt>
      <trkpt lat="43.55449" lon="3.31197">
        <ele>277</ele>
        <time>2015-05-02T14:39:31Z</time>
      </trkpt>
      <trkpt lat="43.55448" lon="3.31196">
        <ele>277</ele>
        <time>2015-05-02T14:39:44Z</time>
      </trkpt>
      <trkpt lat="43.55442" lon="3.31182">
        <ele>276</ele>
        <time>2015-05-02T14:39:57Z</time>
      </trkpt>
      <trkpt lat="43.55438" lon="3.31173">
        <ele>274</ele>
        <time>2015-05-02T14:40:07Z</time>
      </trkpt>
      <trkpt lat="43.55428" lon="3.31158">
        <ele>274</ele>
        <time>2015-05-02T14:40:21Z</time>
      </trkpt>
      <trkpt lat="43.55406" lon="3.31121">
        <ele>262</ele>
        <time>2015-05-02T14:40:32Z</time>
      </trkpt>
      <trkpt lat="43.55392" lon="3.31093">
        <ele>263</ele>
        <time>2015-05-02T14:40:40Z</time>
      </trkpt>
      <trkpt lat="43.5537" lon="3.31067">
        <ele>263</ele>
        <time>2015-05-02T14:40:49Z</time>
      </trkpt>
      <trkpt lat="43.55346" lon="3.31054">
        <ele>260</ele>
        <time>2015-05-02T14:41:00Z</time>
      </trkpt>
      <trkpt lat="43.55329" lon="3.31036">
        <ele>242</ele>
        <time>2015-05-02T14:41:09Z</time>
      </trkpt>
      <trkpt lat="43.55327" lon="3.31032">
        <ele>243</ele>
        <time>2015-05-02T14:41:11Z</time>
      </trkpt>
      <trkpt lat="43.55326" lon="3.30983">
        <ele>252</ele>
        <time>2015-05-02T14:41:24Z</time>
      </trkpt>
      <trkpt lat="43.5532" lon="3.30953">
        <ele>253</ele>
        <time>2015-05-02T14:41:34Z</time>
      </trkpt>
      <trkpt lat="43.55303" lon="3.30942">
        <ele>252</ele>
        <time>2015-05-02T14:41:45Z</time>
      </trkpt>
      <trkpt lat="43.55268" lon="3.30929">
        <ele>247</ele>
        <time>2015-05-02T14:41:57Z</time>
      </trkpt>
      <trkpt lat="43.55255" lon="3.30919">
        <ele>246</ele>
        <time>2015-05-02T14:42:02Z</time>
      </trkpt>
      <trkpt lat="43.55238" lon="3.30906">
        <ele>241</ele>
        <time>2015-05-02T14:42:10Z</time>
      </trkpt>
      <trkpt lat="43.55224" lon="3.30886">
        <ele>239</ele>
        <time>2015-05-02T14:42:19Z</time>
      </trkpt>
      <trkpt lat="43.55204" lon="3.30844">
        <ele>237</ele>
        <time>2015-05-02T14:42:32Z</time>
      </trkpt>
      <trkpt lat="43.55191" lon="3.30802">
        <ele>240</ele>
        <time>2015-05-02T14:42:43Z</time>
      </trkpt>
      <trkpt lat="43.55188" lon="3.3078">
        <ele>240</ele>
        <time>2015-05-02T14:42:50Z</time>
      </trkpt>
      <trkpt lat="43.55183" lon="3.30776">
        <ele>240</ele>
        <time>2015-05-02T14:42:53Z</time>
      </trkpt>
      <trkpt lat="43.55169" lon="3.3075">
        <ele>233</ele>
        <time>2015-05-02T14:43:04Z</time>
      </trkpt>
      <trkpt lat="43.55164" lon="3.30738">
        <ele>230</ele>
        <time>2015-05-02T14:43:10Z</time>
      </trkpt>
      <trkpt lat="43.55167" lon="3.30732">
        <ele>229</ele>
        <time>2015-05-02T14:43:25Z</time>
      </trkpt>
      <trkpt lat="43.55164" lon="3.30722">
        <ele>228</ele>
        <time>2015-05-02T14:43:44Z</time>
      </trkpt>
      <trkpt lat="43.55163" lon="3.30715">
        <ele>227</ele>
        <time>2015-05-02T14:43:55Z</time>
      </trkpt>
      <trkpt lat="43.55154" lon="3.30713">
        <ele>227</ele>
        <time>2015-05-02T14:44:10Z</time>
      </trkpt>
      <trkpt lat="43.55145" lon="3.30708">
        <ele>226</ele>
        <time>2015-05-02T14:44:26Z</time>
      </trkpt>
      <trkpt lat="43.55143" lon="3.30693">
        <ele>225</ele>
        <time>2015-05-02T14:44:41Z</time>
      </trkpt>
      <trkpt lat="43.55142" lon="3.30679">
        <ele>225</ele>
        <time>2015-05-02T14:44:54Z</time>
      </trkpt>
      <trkpt lat="43.55142" lon="3.30682">
        <ele>225</ele>
        <time>2015-05-02T14:45:18Z</time>
      </trkpt>
      <trkpt lat="43.55141" lon="3.3068">
        <ele>225</ele>
        <time>2015-05-02T14:45:52Z</time>
      </trkpt>
      <trkpt lat="43.55142" lon="3.30678">
        <ele>224</ele>
        <time>2015-05-02T14:46:15Z</time>
      </trkpt>
      <trkpt lat="43.55141" lon="3.30677">
        <ele>225</ele>
        <time>2015-05-02T14:46:41Z</time>
      </trkpt>
      <trkpt lat="43.55142" lon="3.30675">
        <ele>224</ele>
        <time>2015-05-02T14:46:50Z</time>
      </trkpt>
      <trkpt lat="43.55158" lon="3.30652">
        <ele>218</ele>
        <time>2015-05-02T14:47:01Z</time>
      </trkpt>
      <trkpt lat="43.55165" lon="3.30643">
        <ele>217</ele>
        <time>2015-05-02T14:47:04Z</time>
      </trkpt>
      <trkpt lat="43.55174" lon="3.3062">
        <ele>218</ele>
        <time>2015-05-02T14:47:11Z</time>
      </trkpt>
      <trkpt lat="43.55176" lon="3.30617">
        <ele>217</ele>
        <time>2015-05-02T14:47:12Z</time>
      </trkpt>
      <trkpt lat="43.55183" lon="3.30593">
        <ele>213</ele>
        <time>2015-05-02T14:47:18Z</time>
      </trkpt>
      <trkpt lat="43.55184" lon="3.30588">
        <ele>213</ele>
        <time>2015-05-02T14:47:19Z</time>
      </trkpt>
      <trkpt lat="43.55186" lon="3.30571">
        <ele>206</ele>
        <time>2015-05-02T14:47:23Z</time>
      </trkpt>
      <trkpt lat="43.55188" lon="3.30554">
        <ele>206</ele>
        <time>2015-05-02T14:47:27Z</time>
      </trkpt>
      <trkpt lat="43.55195" lon="3.30498">
        <ele>196</ele>
        <time>2015-05-02T14:47:38Z</time>
      </trkpt>
      <trkpt lat="43.55196" lon="3.30491">
        <ele>196</ele>
        <time>2015-05-02T14:47:39Z</time>
      </trkpt>
      <trkpt lat="43.55202" lon="3.30443">
        <ele>194</ele>
        <time>2015-05-02T14:47:46Z</time>
      </trkpt>
      <trkpt lat="43.55211" lon="3.30423">
        <ele>194</ele>
        <time>2015-05-02T14:47:50Z</time>
      </trkpt>
      <trkpt lat="43.55215" lon="3.30394">
        <ele>188</ele>
        <time>2015-05-02T14:48:00Z</time>
      </trkpt>
      <trkpt lat="43.55216" lon="3.30361">
        <ele>187</ele>
        <time>2015-05-02T14:48:09Z</time>
      </trkpt>
      <trkpt lat="43.55225" lon="3.30334">
        <ele>186</ele>
        <time>2015-05-02T14:48:14Z</time>
      </trkpt>
      <trkpt lat="43.55232" lon="3.3032">
        <ele>182</ele>
        <time>2015-05-02T14:48:17Z</time>
      </trkpt>
      <trkpt lat="43.55245" lon="3.3029">
        <ele>180</ele>
        <time>2015-05-02T14:48:27Z</time>
      </trkpt>
      <trkpt lat="43.55245" lon="3.30283">
        <ele>180</ele>
        <time>2015-05-02T14:48:31Z</time>
      </trkpt>
      <trkpt lat="43.55251" lon="3.3028">
        <ele>183</ele>
        <time>2015-05-02T14:48:36Z</time>
      </trkpt>
      <trkpt lat="43.55257" lon="3.30287">
        <ele>183</ele>
        <time>2015-05-02T14:48:40Z</time>
      </trkpt>
      <trkpt lat="43.55263" lon="3.30288">
        <ele>183</ele>
        <time>2015-05-02T14:48:44Z</time>
      </trkpt>
      <trkpt lat="43.553" lon="3.3027">
        <ele>183</ele>
        <time>2015-05-02T14:48:56Z</time>
      </trkpt>
      <trkpt lat="43.55305" lon="3.30267">
        <ele>183</ele>
        <time>2015-05-02T14:49:08Z</time>
      </trkpt>
      <trkpt lat="43.55305" lon="3.30267">
        <ele>183</ele>
        <time>2015-05-02T14:49:08Z</time>
      </trkpt>
      <trkpt lat="43.55306" lon="3.30271">
        <ele>183</ele>
        <time>2015-05-02T14:49:31Z</time>
      </trkpt>
      <trkpt lat="43.55304" lon="3.3027">
        <ele>183</ele>
        <time>2015-05-02T14:49:56Z</time>
      </trkpt>
      <trkpt lat="43.55302" lon="3.30273">
        <ele>183</ele>
        <time>2015-05-02T14:50:02Z</time>
      </trkpt>
      <trkpt lat="43.55299" lon="3.30282">
        <ele>183</ele>
        <time>2015-05-02T14:50:10Z</time>
      </trkpt>
      <trkpt lat="43.55302" lon="3.30283">
        <ele>183</ele>
        <time>2015-05-02T14:50:13Z</time>
      </trkpt>
      <trkpt lat="43.55305" lon="3.30278">
        <ele>183</ele>
        <time>2015-05-02T14:50:18Z</time>
      </trkpt>
      <trkpt lat="43.55269" lon="3.30287">
        <ele>183</ele>
        <time>2015-05-02T14:50:33Z</time>
      </trkpt>
      <trkpt lat="43.55229" lon="3.30295">
        <ele>180</ele>
        <time>2015-05-02T14:50:48Z</time>
      </trkpt>
      <trkpt lat="43.55198" lon="3.30311">
        <ele>179</ele>
        <time>2015-05-02T14:50:54Z</time>
      </trkpt>
      <trkpt lat="43.55161" lon="3.30318">
        <ele>174</ele>
        <time>2015-05-02T14:51:00Z</time>
      </trkpt>
      <trkpt lat="43.55141" lon="3.30321">
        <ele>172</ele>
        <time>2015-05-02T14:51:04Z</time>
      </trkpt>
      <trkpt lat="43.55122" lon="3.30353">
        <ele>176</ele>
        <time>2015-05-02T14:51:10Z</time>
      </trkpt>
      <trkpt lat="43.5512" lon="3.30377">
        <ele>178</ele>
        <time>2015-05-02T14:51:13Z</time>
      </trkpt>
      <trkpt lat="43.55089" lon="3.30414">
        <ele>179</ele>
        <time>2015-05-02T14:51:22Z</time>
      </trkpt>
      <trkpt lat="43.55075" lon="3.3039">
        <ele>179</ele>
        <time>2015-05-02T14:51:26Z</time>
      </trkpt>
      <trkpt lat="43.55043" lon="3.30317">
        <ele>168</ele>
        <time>2015-05-02T14:51:36Z</time>
      </trkpt>
      <trkpt lat="43.55036" lon="3.30308">
        <ele>168</ele>
        <time>2015-05-02T14:51:38Z</time>
      </trkpt>
      <trkpt lat="43.55019" lon="3.30277">
        <ele>167</ele>
        <time>2015-05-02T14:51:46Z</time>
      </trkpt>
      <trkpt lat="43.55016" lon="3.30233">
        <ele>162</ele>
        <time>2015-05-02T14:51:52Z</time>
      </trkpt>
      <trkpt lat="43.55024" lon="3.30128">
        <ele>157</ele>
        <time>2015-05-02T14:52:05Z</time>
      </trkpt>
      <trkpt lat="43.55023" lon="3.3012">
        <ele>157</ele>
        <time>2015-05-02T14:52:06Z</time>
      </trkpt>
      <trkpt lat="43.55034" lon="3.30048">
        <ele>154</ele>
        <time>2015-05-02T14:52:15Z</time>
      </trkpt>
      <trkpt lat="43.5504" lon="3.30002">
        <ele>154</ele>
        <time>2015-05-02T14:52:25Z</time>
      </trkpt>
      <trkpt lat="43.55035" lon="3.29995">
        <ele>153</ele>
        <time>2015-05-02T14:52:49Z</time>
      </trkpt>
      <trkpt lat="43.55044" lon="3.30024">
        <ele>153</ele>
        <time>2015-05-02T14:52:59Z</time>
      </trkpt>
      <trkpt lat="43.55053" lon="3.29997">
        <ele>149</ele>
        <time>2015-05-02T14:53:06Z</time>
      </trkpt>
      <trkpt lat="43.55058" lon="3.29985">
        <ele>148</ele>
        <time>2015-05-02T14:53:08Z</time>
      </trkpt>
      <trkpt lat="43.55063" lon="3.29939">
        <ele>147</ele>
        <time>2015-05-02T14:53:15Z</time>
      </trkpt>
      <trkpt lat="43.5506" lon="3.29933">
        <ele>146</ele>
        <time>2015-05-02T14:53:16Z</time>
      </trkpt>
      <trkpt lat="43.55043" lon="3.29903">
        <ele>144</ele>
        <time>2015-05-02T14:53:20Z</time>
      </trkpt>
      <trkpt lat="43.55035" lon="3.29882">
        <ele>143</ele>
        <time>2015-05-02T14:53:23Z</time>
      </trkpt>
      <trkpt lat="43.55002" lon="3.2979">
        <ele>136</ele>
        <time>2015-05-02T14:53:34Z</time>
      </trkpt>
      <trkpt lat="43.54984" lon="3.29752">
        <ele>138</ele>
        <time>2015-05-02T14:53:39Z</time>
      </trkpt>
      <trkpt lat="43.54948" lon="3.29676">
        <ele>132</ele>
        <time>2015-05-02T14:53:53Z</time>
      </trkpt>
      <trkpt lat="43.54906" lon="3.29618">
        <ele>128</ele>
        <time>2015-05-02T14:54:06Z</time>
      </trkpt>
      <trkpt lat="43.54883" lon="3.296">
        <ele>128</ele>
        <time>2015-05-02T14:54:12Z</time>
      </trkpt>
      <trkpt lat="43.54814" lon="3.29566">
        <ele>128</ele>
        <time>2015-05-02T14:54:28Z</time>
      </trkpt>
      <trkpt lat="43.54761" lon="3.29544">
        <ele>130</ele>
        <time>2015-05-02T14:54:43Z</time>
      </trkpt>
      <trkpt lat="43.54727" lon="3.29544">
        <ele>134</ele>
        <time>2015-05-02T14:54:59Z</time>
      </trkpt>
      <trkpt lat="43.54686" lon="3.29538">
        <ele>136</ele>
        <time>2015-05-02T14:55:19Z</time>
      </trkpt>
      <trkpt lat="43.54663" lon="3.2953">
        <ele>142</ele>
        <time>2015-05-02T14:55:35Z</time>
      </trkpt>
      <trkpt lat="43.54641" lon="3.29517">
        <ele>143</ele>
        <time>2015-05-02T14:55:54Z</time>
      </trkpt>
      <trkpt lat="43.54643" lon="3.29517">
        <ele>143</ele>
        <time>2015-05-02T14:56:14Z</time>
      </trkpt>
      <trkpt lat="43.54643" lon="3.29516">
        <ele>143</ele>
        <time>2015-05-02T14:56:39Z</time>
      </trkpt>
      <trkpt lat="43.54642" lon="3.29518">
        <ele>143</ele>
        <time>2015-05-02T14:56:59Z</time>
      </trkpt>
      <trkpt lat="43.54643" lon="3.29518">
        <ele>143</ele>
        <time>2015-05-02T14:57:24Z</time>
      </trkpt>
      <trkpt lat="43.54642" lon="3.29514">
        <ele>143</ele>
        <time>2015-05-02T14:57:50Z</time>
      </trkpt>
      <trkpt lat="43.54643" lon="3.29517">
        <ele>143</ele>
        <time>2015-05-02T14:58:13Z</time>
      </trkpt>
      <trkpt lat="43.54641" lon="3.29518">
        <ele>143</ele>
        <time>2015-05-02T14:58:44Z</time>
      </trkpt>
      <trkpt lat="43.54642" lon="3.29517">
        <ele>143</ele>
        <time>2015-05-02T14:59:05Z</time>
      </trkpt>
      <trkpt lat="43.54643" lon="3.29518">
        <ele>143</ele>
        <time>2015-05-02T14:59:28Z</time>
      </trkpt>
      <trkpt lat="43.54646" lon="3.29518">
        <ele>143</ele>
        <time>2015-05-02T14:59:59Z</time>
      </trkpt>
      <trkpt lat="43.54643" lon="3.29517">
        <ele>143</ele>
        <time>2015-05-02T15:00:23Z</time>
      </trkpt>
      <trkpt lat="43.54643" lon="3.29519">
        <ele>143</ele>
        <time>2015-05-02T15:00:49Z</time>
      </trkpt>
      <trkpt lat="43.54643" lon="3.29517">
        <ele>143</ele>
        <time>2015-05-02T15:01:11Z</time>
      </trkpt>
      <trkpt lat="43.54642" lon="3.29518">
        <ele>143</ele>
        <time>2015-05-02T15:01:39Z</time>
      </trkpt>
      <trkpt lat="43.54643" lon="3.29518">
        <ele>143</ele>
        <time>2015-05-02T15:02:01Z</time>
      </trkpt>
      <trkpt lat="43.54643" lon="3.29518">
        <ele>143</ele>
        <time>2015-05-02T15:02:18Z</time>
      </trkpt>
      <trkpt lat="43.54633" lon="3.29513">
        <ele>143</ele>
        <time>2015-05-02T15:02:23Z</time>
      </trkpt>
      <trkpt lat="43.54597" lon="3.2949">
        <ele>150</ele>
        <time>2015-05-02T15:02:41Z</time>
      </trkpt>
      <trkpt lat="43.54572" lon="3.29477">
        <ele>151</ele>
        <time>2015-05-02T15:02:55Z</time>
      </trkpt>
      <trkpt lat="43.54547" lon="3.2946">
        <ele>151</ele>
        <time>2015-05-02T15:03:10Z</time>
      </trkpt>
      <trkpt lat="43.54524" lon="3.29423">
        <ele>151</ele>
        <time>2015-05-02T15:03:28Z</time>
      </trkpt>
      <trkpt lat="43.54528" lon="3.29368">
        <ele>151</ele>
        <time>2015-05-02T15:03:42Z</time>
      </trkpt>
      <trkpt lat="43.54538" lon="3.29298">
        <ele>152</ele>
        <time>2015-05-02T15:03:57Z</time>
      </trkpt>
      <trkpt lat="43.54574" lon="3.2923">
        <ele>153</ele>
        <time>2015-05-02T15:04:16Z</time>
      </trkpt>
      <trkpt lat="43.5461" lon="3.29177">
        <ele>157</ele>
        <time>2015-05-02T15:04:34Z</time>
      </trkpt>
      <trkpt lat="43.54652" lon="3.29134">
        <ele>157</ele>
        <time>2015-05-02T15:04:50Z</time>
      </trkpt>
      <trkpt lat="43.54667" lon="3.2911">
        <ele>160</ele>
        <time>2015-05-02T15:04:56Z</time>
      </trkpt>
      <trkpt lat="43.54685" lon="3.29059">
        <ele>162</ele>
        <time>2015-05-02T15:05:12Z</time>
      </trkpt>
      <trkpt lat="43.54702" lon="3.29001">
        <ele>165</ele>
        <time>2015-05-02T15:05:30Z</time>
      </trkpt>
      <trkpt lat="43.54701" lon="3.29011">
        <ele>164</ele>
        <time>2015-05-02T15:10:41Z</time>
      </trkpt>
      <trkpt lat="43.54716" lon="3.29058">
        <ele>165</ele>
        <time>2015-05-02T15:10:51Z</time>
      </trkpt>
      <trkpt lat="43.54738" lon="3.29096">
        <ele>166</ele>
        <time>2015-05-02T15:11:05Z</time>
      </trkpt>
      <trkpt lat="43.54762" lon="3.29135">
        <ele>176</ele>
        <time>2015-05-02T15:11:20Z</time>
      </trkpt>
      <trkpt lat="43.5478" lon="3.2918">
        <ele>171</ele>
        <time>2015-05-02T15:11:37Z</time>
      </trkpt>
      <trkpt lat="43.54799" lon="3.29199">
        <ele>172</ele>
        <time>2015-05-02T15:11:48Z</time>
      </trkpt>
      <trkpt lat="43.54794" lon="3.29182">
        <ele>172</ele>
        <time>2015-05-02T15:11:58Z</time>
      </trkpt>
      <trkpt lat="43.54789" lon="3.29173">
        <ele>172</ele>
        <time>2015-05-02T15:12:02Z</time>
      </trkpt>
      <trkpt lat="43.54786" lon="3.29127">
        <ele>179</ele>
        <time>2015-05-02T15:12:21Z</time>
      </trkpt>
      <trkpt lat="43.54784" lon="3.29091">
        <ele>180</ele>
        <time>2015-05-02T15:12:36Z</time>
      </trkpt>
      <trkpt lat="43.54782" lon="3.29048">
        <ele>184</ele>
        <time>2015-05-02T15:12:54Z</time>
      </trkpt>
      <trkpt lat="43.54782" lon="3.29008">
        <ele>185</ele>
        <time>2015-05-02T15:13:10Z</time>
      </trkpt>
      <trkpt lat="43.54786" lon="3.28965">
        <ele>187</ele>
        <time>2015-05-02T15:13:27Z</time>
      </trkpt>
      <trkpt lat="43.54797" lon="3.2892">
        <ele>189</ele>
        <time>2015-05-02T15:13:45Z</time>
      </trkpt>
      <trkpt lat="43.54814" lon="3.28874">
        <ele>187</ele>
        <time>2015-05-02T15:14:04Z</time>
      </trkpt>
      <trkpt lat="43.54833" lon="3.28828">
        <ele>190</ele>
        <time>2015-05-02T15:14:22Z</time>
      </trkpt>
      <trkpt lat="43.5486" lon="3.28779">
        <ele>195</ele>
        <time>2015-05-02T15:14:41Z</time>
      </trkpt>
      <trkpt lat="43.54892" lon="3.28747">
        <ele>192</ele>
        <time>2015-05-02T15:14:57Z</time>
      </trkpt>
      <trkpt lat="43.54938" lon="3.28724">
        <ele>198</ele>
        <time>2015-05-02T15:15:13Z</time>
      </trkpt>
      <trkpt lat="43.54994" lon="3.28684">
        <ele>195</ele>
        <time>2015-05-02T15:15:31Z</time>
      </trkpt>
      <trkpt lat="43.55057" lon="3.28689">
        <ele>201</ele>
        <time>2015-05-02T15:15:49Z</time>
      </trkpt>
      <trkpt lat="43.55097" lon="3.28676">
        <ele>202</ele>
        <time>2015-05-02T15:16:03Z</time>
      </trkpt>
      <trkpt lat="43.55126" lon="3.28689">
        <ele>206</ele>
        <time>2015-05-02T15:16:15Z</time>
      </trkpt>
      <trkpt lat="43.55131" lon="3.28662">
        <ele>206</ele>
        <time>2015-05-02T15:16:25Z</time>
      </trkpt>
      <trkpt lat="43.55104" lon="3.2861">
        <ele>204</ele>
        <time>2015-05-02T15:16:42Z</time>
      </trkpt>
      <trkpt lat="43.55078" lon="3.28551">
        <ele>199</ele>
        <time>2015-05-02T15:16:59Z</time>
      </trkpt>
      <trkpt lat="43.55078" lon="3.28539">
        <ele>199</ele>
        <time>2015-05-02T15:17:02Z</time>
      </trkpt>
      <trkpt lat="43.55086" lon="3.2855">
        <ele>207</ele>
        <time>2015-05-02T15:17:09Z</time>
      </trkpt>
      <trkpt lat="43.55104" lon="3.28591">
        <ele>204</ele>
        <time>2015-05-02T15:17:22Z</time>
      </trkpt>
      <trkpt lat="43.55136" lon="3.28614">
        <ele>207</ele>
        <time>2015-05-02T15:17:37Z</time>
      </trkpt>
      <trkpt lat="43.55169" lon="3.28645">
        <ele>216</ele>
        <time>2015-05-02T15:17:53Z</time>
      </trkpt>
      <trkpt lat="43.5519" lon="3.28689">
        <ele>217</ele>
        <time>2015-05-02T15:18:11Z</time>
      </trkpt>
      <trkpt lat="43.55202" lon="3.28737">
        <ele>218</ele>
        <time>2015-05-02T15:18:30Z</time>
      </trkpt>
      <trkpt lat="43.55224" lon="3.28772">
        <ele>222</ele>
        <time>2015-05-02T15:18:49Z</time>
      </trkpt>
      <trkpt lat="43.55237" lon="3.28794">
        <ele>223</ele>
        <time>2015-05-02T15:19:01Z</time>
      </trkpt>
      <trkpt lat="43.55232" lon="3.28805">
        <ele>223</ele>
        <time>2015-05-02T15:19:05Z</time>
      </trkpt>
      <trkpt lat="43.55206" lon="3.2884">
        <ele>229</ele>
        <time>2015-05-02T15:19:21Z</time>
      </trkpt>
      <trkpt lat="43.55175" lon="3.28851">
        <ele>228</ele>
        <time>2015-05-02T15:19:38Z</time>
      </trkpt>
      <trkpt lat="43.55146" lon="3.28844">
        <ele>229</ele>
        <time>2015-05-02T15:19:53Z</time>
      </trkpt>
      <trkpt lat="43.55145" lon="3.28843">
        <ele>229</ele>
        <time>2015-05-02T15:19:54Z</time>
      </trkpt>
      <trkpt lat="43.5514" lon="3.28851">
        <ele>230</ele>
        <time>2015-05-02T15:20:01Z</time>
      </trkpt>
      <trkpt lat="43.55166" lon="3.28873">
        <ele>232</ele>
        <time>2015-05-02T15:20:19Z</time>
      </trkpt>
      <trkpt lat="43.55186" lon="3.28885">
        <ele>233</ele>
        <time>2015-05-02T15:20:37Z</time>
      </trkpt>
      <trkpt lat="43.55205" lon="3.28892">
        <ele>233</ele>
        <time>2015-05-02T15:20:53Z</time>
      </trkpt>
      <trkpt lat="43.55225" lon="3.28901">
        <ele>234</ele>
        <time>2015-05-02T15:21:07Z</time>
      </trkpt>
      <trkpt lat="43.55246" lon="3.28908">
        <ele>237</ele>
        <time>2015-05-02T15:21:23Z</time>
      </trkpt>
      <trkpt lat="43.5527" lon="3.28909">
        <ele>239</ele>
        <time>2015-05-02T15:21:39Z</time>
      </trkpt>
      <trkpt lat="43.55276" lon="3.28909">
        <ele>239</ele>
        <time>2015-05-02T15:21:43Z</time>
      </trkpt>
      <trkpt lat="43.55279" lon="3.28908">
        <ele>239</ele>
        <time>2015-05-02T15:21:45Z</time>
      </trkpt>
      <trkpt lat="43.55306" lon="3.2891">
        <ele>242</ele>
        <time>2015-05-02T15:22:03Z</time>
      </trkpt>
      <trkpt lat="43.55333" lon="3.28912">
        <ele>246</ele>
        <time>2015-05-02T15:22:21Z</time>
      </trkpt>
      <trkpt lat="43.55353" lon="3.28906">
        <ele>249</ele>
        <time>2015-05-02T15:22:35Z</time>
      </trkpt>
      <trkpt lat="43.55362" lon="3.28901">
        <ele>250</ele>
        <time>2015-05-02T15:22:43Z</time>
      </trkpt>
      <trkpt lat="43.55371" lon="3.28893">
        <ele>250</ele>
        <time>2015-05-02T15:22:50Z</time>
      </trkpt>
      <trkpt lat="43.55385" lon="3.28878">
        <ele>251</ele>
        <time>2015-05-02T15:23:03Z</time>
      </trkpt>
      <trkpt lat="43.55396" lon="3.28861">
        <ele>251</ele>
        <time>2015-05-02T15:23:16Z</time>
      </trkpt>
      <trkpt lat="43.55399" lon="3.2885">
        <ele>251</ele>
        <time>2015-05-02T15:23:23Z</time>
      </trkpt>
      <trkpt lat="43.55395" lon="3.28828">
        <ele>250</ele>
        <time>2015-05-02T15:23:34Z</time>
      </trkpt>
      <trkpt lat="43.55393" lon="3.2881">
        <ele>250</ele>
        <time>2015-05-02T15:23:43Z</time>
      </trkpt>
      <trkpt lat="43.55395" lon="3.28793">
        <ele>250</ele>
        <time>2015-05-02T15:23:51Z</time>
      </trkpt>
      <trkpt lat="43.55408" lon="3.28767">
        <ele>252</ele>
        <time>2015-05-02T15:24:07Z</time>
      </trkpt>
      <trkpt lat="43.55418" lon="3.28762">
        <ele>255</ele>
        <time>2015-05-02T15:24:14Z</time>
      </trkpt>
      <trkpt lat="43.5545" lon="3.28767">
        <ele>254</ele>
        <time>2015-05-02T15:24:28Z</time>
      </trkpt>
      <trkpt lat="43.55496" lon="3.28782">
        <ele>254</ele>
        <time>2015-05-02T15:24:46Z</time>
      </trkpt>
      <trkpt lat="43.55535" lon="3.28795">
        <ele>251</ele>
        <time>2015-05-02T15:24:59Z</time>
      </trkpt>
      <trkpt lat="43.55537" lon="3.28799">
        <ele>251</ele>
        <time>2015-05-02T15:25:00Z</time>
      </trkpt>
      <trkpt lat="43.55573" lon="3.28854">
        <ele>253</ele>
        <time>2015-05-02T15:25:13Z</time>
      </trkpt>
      <trkpt lat="43.55585" lon="3.28866">
        <ele>251</ele>
        <time>2015-05-02T15:25:16Z</time>
      </trkpt>
      <trkpt lat="43.55594" lon="3.28874">
        <ele>252</ele>
        <time>2015-05-02T15:25:18Z</time>
      </trkpt>
      <trkpt lat="43.55608" lon="3.2888">
        <ele>252</ele>
        <time>2015-05-02T15:25:21Z</time>
      </trkpt>
      <trkpt lat="43.55641" lon="3.28882">
        <ele>253</ele>
        <time>2015-05-02T15:25:34Z</time>
      </trkpt>
      <trkpt lat="43.55644" lon="3.28881">
        <ele>253</ele>
        <time>2015-05-02T15:25:36Z</time>
      </trkpt>
      <trkpt lat="43.5565" lon="3.28872">
        <ele>253</ele>
        <time>2015-05-02T15:25:42Z</time>
      </trkpt>
      <trkpt lat="43.55666" lon="3.28865">
        <ele>252</ele>
        <time>2015-05-02T15:25:59Z</time>
      </trkpt>
      <trkpt lat="43.55675" lon="3.28865">
        <ele>254</ele>
        <time>2015-05-02T15:26:14Z</time>
      </trkpt>
      <trkpt lat="43.55687" lon="3.2886">
        <ele>254</ele>
        <time>2015-05-02T15:26:32Z</time>
      </trkpt>
      <trkpt lat="43.55698" lon="3.28859">
        <ele>254</ele>
        <time>2015-05-02T15:26:46Z</time>
      </trkpt>
      <trkpt lat="43.55706" lon="3.28862">
        <ele>255</ele>
        <time>2015-05-02T15:26:56Z</time>
      </trkpt>
      <trkpt lat="43.55713" lon="3.28868">
        <ele>255</ele>
        <time>2015-05-02T15:27:01Z</time>
      </trkpt>
      <trkpt lat="43.55744" lon="3.28883">
        <ele>256</ele>
        <time>2015-05-02T15:27:12Z</time>
      </trkpt>
      <trkpt lat="43.55755" lon="3.28904">
        <ele>254</ele>
        <time>2015-05-02T15:27:17Z</time>
      </trkpt>
      <trkpt lat="43.5576" lon="3.28945">
        <ele>250</ele>
        <time>2015-05-02T15:27:25Z</time>
      </trkpt>
      <trkpt lat="43.55769" lon="3.28947">
        <ele>250</ele>
        <time>2015-05-02T15:27:30Z</time>
      </trkpt>
      <trkpt lat="43.5578" lon="3.28928">
        <ele>250</ele>
        <time>2015-05-02T15:27:34Z</time>
      </trkpt>
      <trkpt lat="43.558" lon="3.28911">
        <ele>249</ele>
        <time>2015-05-02T15:27:39Z</time>
      </trkpt>
      <trkpt lat="43.55826" lon="3.28888">
        <ele>247</ele>
        <time>2015-05-02T15:27:46Z</time>
      </trkpt>
      <trkpt lat="43.55849" lon="3.28877">
        <ele>242</ele>
        <time>2015-05-02T15:27:51Z</time>
      </trkpt>
      <trkpt lat="43.55855" lon="3.28878">
        <ele>241</ele>
        <time>2015-05-02T15:27:52Z</time>
      </trkpt>
      <trkpt lat="43.55866" lon="3.28881">
        <ele>241</ele>
        <time>2015-05-02T15:27:54Z</time>
      </trkpt>
      <trkpt lat="43.55883" lon="3.28887">
        <ele>241</ele>
        <time>2015-05-02T15:27:57Z</time>
      </trkpt>
      <trkpt lat="43.55907" lon="3.28914">
        <ele>242</ele>
        <time>2015-05-02T15:28:03Z</time>
      </trkpt>
      <trkpt lat="43.55932" lon="3.28951">
        <ele>246</ele>
        <time>2015-05-02T15:28:19Z</time>
      </trkpt>
      <trkpt lat="43.55954" lon="3.28977">
        <ele>248</ele>
        <time>2015-05-02T15:28:39Z</time>
      </trkpt>
      <trkpt lat="43.55973" lon="3.28986">
        <ele>249</ele>
        <time>2015-05-02T15:28:57Z</time>
      </trkpt>
      <trkpt lat="43.55986" lon="3.2899">
        <ele>251</ele>
        <time>2015-05-02T15:29:12Z</time>
      </trkpt>
      <trkpt lat="43.55994" lon="3.28992">
        <ele>252</ele>
        <time>2015-05-02T15:29:18Z</time>
      </trkpt>
      <trkpt lat="43.56007" lon="3.28994">
        <ele>255</ele>
        <time>2015-05-02T15:29:30Z</time>
      </trkpt>
      <trkpt lat="43.56017" lon="3.28992">
        <ele>254</ele>
        <time>2015-05-02T15:29:39Z</time>
      </trkpt>
      <trkpt lat="43.56041" lon="3.28988">
        <ele>255</ele>
        <time>2015-05-02T15:29:56Z</time>
      </trkpt>
      <trkpt lat="43.56061" lon="3.28979">
        <ele>256</ele>
        <time>2015-05-02T15:30:11Z</time>
      </trkpt>
      <trkpt lat="43.56087" lon="3.28988">
        <ele>259</ele>
        <time>2015-05-02T15:30:25Z</time>
      </trkpt>
      <trkpt lat="43.56113" lon="3.29001">
        <ele>261</ele>
        <time>2015-05-02T15:30:40Z</time>
      </trkpt>
      <trkpt lat="43.56151" lon="3.29006">
        <ele>261</ele>
        <time>2015-05-02T15:30:56Z</time>
      </trkpt>
      <trkpt lat="43.56175" lon="3.28997">
        <ele>259</ele>
        <time>2015-05-02T15:31:08Z</time>
      </trkpt>
      <trkpt lat="43.56205" lon="3.28982">
        <ele>257</ele>
        <time>2015-05-02T15:31:23Z</time>
      </trkpt>
      <trkpt lat="43.56243" lon="3.29003">
        <ele>261</ele>
        <time>2015-05-02T15:31:34Z</time>
      </trkpt>
      <trkpt lat="43.56273" lon="3.29007">
        <ele>257</ele>
        <time>2015-05-02T15:31:42Z</time>
      </trkpt>
      <trkpt lat="43.56295" lon="3.28997">
        <ele>256</ele>
        <time>2015-05-02T15:31:46Z</time>
      </trkpt>
      <trkpt lat="43.56344" lon="3.28964">
        <ele>253</ele>
        <time>2015-05-02T15:31:57Z</time>
      </trkpt>
      <trkpt lat="43.56388" lon="3.28936">
        <ele>252</ele>
        <time>2015-05-02T15:32:11Z</time>
      </trkpt>
      <trkpt lat="43.56425" lon="3.28904">
        <ele>254</ele>
        <time>2015-05-02T15:32:18Z</time>
      </trkpt>
      <trkpt lat="43.56444" lon="3.2888">
        <ele>254</ele>
        <time>2015-05-02T15:32:22Z</time>
      </trkpt>
      <trkpt lat="43.5646" lon="3.28843">
        <ele>255</ele>
        <time>2015-05-02T15:32:33Z</time>
      </trkpt>
      <trkpt lat="43.56491" lon="3.28825">
        <ele>258</ele>
        <time>2015-05-02T15:32:49Z</time>
      </trkpt>
      <trkpt lat="43.56496" lon="3.28813">
        <ele>258</ele>
        <time>2015-05-02T15:32:55Z</time>
      </trkpt>
      <trkpt lat="43.56497" lon="3.28801">
        <ele>258</ele>
        <time>2015-05-02T15:33:00Z</time>
      </trkpt>
      <trkpt lat="43.56518" lon="3.2877">
        <ele>262</ele>
        <time>2015-05-02T15:33:15Z</time>
      </trkpt>
      <trkpt lat="43.56521" lon="3.2876">
        <ele>262</ele>
        <time>2015-05-02T15:33:19Z</time>
      </trkpt>
      <trkpt lat="43.56538" lon="3.28724">
        <ele>260</ele>
        <time>2015-05-02T15:33:35Z</time>
      </trkpt>
      <trkpt lat="43.56554" lon="3.28698">
        <ele>260</ele>
        <time>2015-05-02T15:33:42Z</time>
      </trkpt>
      <trkpt lat="43.56569" lon="3.28678">
        <ele>259</ele>
        <time>2015-05-02T15:33:46Z</time>
      </trkpt>
      <trkpt lat="43.56584" lon="3.28653">
        <ele>256</ele>
        <time>2015-05-02T15:33:51Z</time>
      </trkpt>
      <trkpt lat="43.56615" lon="3.28628">
        <ele>254</ele>
        <time>2015-05-02T15:33:57Z</time>
      </trkpt>
      <trkpt lat="43.56628" lon="3.28621">
        <ele>254</ele>
        <time>2015-05-02T15:33:59Z</time>
      </trkpt>
      <trkpt lat="43.56674" lon="3.28574">
        <ele>254</ele>
        <time>2015-05-02T15:34:08Z</time>
      </trkpt>
      <trkpt lat="43.567" lon="3.28525">
        <ele>255</ele>
        <time>2015-05-02T15:34:21Z</time>
      </trkpt>
      <trkpt lat="43.56717" lon="3.2848">
        <ele>257</ele>
        <time>2015-05-02T15:34:37Z</time>
      </trkpt>
      <trkpt lat="43.56733" lon="3.28509">
        <ele>256</ele>
        <time>2015-05-02T15:34:48Z</time>
      </trkpt>
      <trkpt lat="43.56737" lon="3.28514">
        <ele>256</ele>
        <time>2015-05-02T15:35:00Z</time>
      </trkpt>
      <trkpt lat="43.56736" lon="3.28514">
        <ele>256</ele>
        <time>2015-05-02T15:35:25Z</time>
      </trkpt>
      <trkpt lat="43.56736" lon="3.28514">
        <ele>256</ele>
        <time>2015-05-02T15:35:52Z</time>
      </trkpt>
      <trkpt lat="43.56737" lon="3.28512">
        <ele>257</ele>
        <time>2015-05-02T15:36:16Z</time>
      </trkpt>
      <trkpt lat="43.56736" lon="3.28513">
        <ele>256</ele>
        <time>2015-05-02T15:36:40Z</time>
      </trkpt>
      <trkpt lat="43.56737" lon="3.28513">
        <ele>256</ele>
        <time>2015-05-02T15:37:03Z</time>
      </trkpt>
      <trkpt lat="43.56746" lon="3.28527">
        <ele>256</ele>
        <time>2015-05-02T15:37:19Z</time>
      </trkpt>
      <trkpt lat="43.56765" lon="3.28553">
        <ele>250</ele>
        <time>2015-05-02T15:37:26Z</time>
      </trkpt>
      <trkpt lat="43.56784" lon="3.28577">
        <ele>249</ele>
        <time>2015-05-02T15:37:31Z</time>
      </trkpt>
      <trkpt lat="43.56811" lon="3.28611">
        <ele>241</ele>
        <time>2015-05-02T15:37:37Z</time>
      </trkpt>
      <trkpt lat="43.56815" lon="3.28616">
        <ele>241</ele>
        <time>2015-05-02T15:37:38Z</time>
      </trkpt>
      <trkpt lat="43.56833" lon="3.28645">
        <ele>238</ele>
        <time>2015-05-02T15:37:43Z</time>
      </trkpt>
      <trkpt lat="43.56851" lon="3.2865">
        <ele>228</ele>
        <time>2015-05-02T15:37:49Z</time>
      </trkpt>
      <trkpt lat="43.56856" lon="3.28641">
        <ele>227</ele>
        <time>2015-05-02T15:37:51Z</time>
      </trkpt>
      <trkpt lat="43.56856" lon="3.28617">
        <ele>227</ele>
        <time>2015-05-02T15:37:56Z</time>
      </trkpt>
      <trkpt lat="43.56868" lon="3.28624">
        <ele>225</ele>
        <time>2015-05-02T15:38:01Z</time>
      </trkpt>
      <trkpt lat="43.56881" lon="3.28668">
        <ele>219</ele>
        <time>2015-05-02T15:38:08Z</time>
      </trkpt>
      <trkpt lat="43.56884" lon="3.28681">
        <ele>218</ele>
        <time>2015-05-02T15:38:10Z</time>
      </trkpt>
      <trkpt lat="43.56879" lon="3.28698">
        <ele>218</ele>
        <time>2015-05-02T15:38:13Z</time>
      </trkpt>
      <trkpt lat="43.5686" lon="3.28701">
        <ele>220</ele>
        <time>2015-05-02T15:38:17Z</time>
      </trkpt>
      <trkpt lat="43.56842" lon="3.28695">
        <ele>222</ele>
        <time>2015-05-02T15:38:20Z</time>
      </trkpt>
      <trkpt lat="43.56802" lon="3.28687">
        <ele>231</ele>
        <time>2015-05-02T15:38:26Z</time>
      </trkpt>
      <trkpt lat="43.56789" lon="3.28686">
        <ele>232</ele>
        <time>2015-05-02T15:38:28Z</time>
      </trkpt>
      <trkpt lat="43.56765" lon="3.28724">
        <ele>231</ele>
        <time>2015-05-02T15:38:35Z</time>
      </trkpt>
      <trkpt lat="43.56771" lon="3.28747">
        <ele>230</ele>
        <time>2015-05-02T15:38:38Z</time>
      </trkpt>
      <trkpt lat="43.5678" lon="3.2878">
        <ele>219</ele>
        <time>2015-05-02T15:38:42Z</time>
      </trkpt>
      <trkpt lat="43.56782" lon="3.28797">
        <ele>217</ele>
        <time>2015-05-02T15:38:44Z</time>
      </trkpt>
      <trkpt lat="43.56783" lon="3.28813">
        <ele>216</ele>
        <time>2015-05-02T15:38:46Z</time>
      </trkpt>
      <trkpt lat="43.56775" lon="3.2885">
        <ele>209</ele>
        <time>2015-05-02T15:38:51Z</time>
      </trkpt>
      <trkpt lat="43.56771" lon="3.28866">
        <ele>208</ele>
        <time>2015-05-02T15:38:54Z</time>
      </trkpt>
      <trkpt lat="43.56781" lon="3.28864">
        <ele>206</ele>
        <time>2015-05-02T15:38:58Z</time>
      </trkpt>
      <trkpt lat="43.56786" lon="3.28852">
        <ele>206</ele>
        <time>2015-05-02T15:39:00Z</time>
      </trkpt>
      <trkpt lat="43.56791" lon="3.2884">
        <ele>205</ele>
        <time>2015-05-02T15:39:02Z</time>
      </trkpt>
      <trkpt lat="43.56801" lon="3.28824">
        <ele>211</ele>
        <time>2015-05-02T15:39:05Z</time>
      </trkpt>
      <trkpt lat="43.56807" lon="3.28802">
        <ele>213</ele>
        <time>2015-05-02T15:39:09Z</time>
      </trkpt>
      <trkpt lat="43.56809" lon="3.28793">
        <ele>214</ele>
        <time>2015-05-02T15:39:11Z</time>
      </trkpt>
      <trkpt lat="43.5682" lon="3.2881">
        <ele>209</ele>
        <time>2015-05-02T15:39:19Z</time>
      </trkpt>
      <trkpt lat="43.56816" lon="3.28839">
        <ele>199</ele>
        <time>2015-05-02T15:39:24Z</time>
      </trkpt>
      <trkpt lat="43.56813" lon="3.28851">
        <ele>200</ele>
        <time>2015-05-02T15:39:26Z</time>
      </trkpt>
      <trkpt lat="43.568" lon="3.28887">
        <ele>201</ele>
        <time>2015-05-02T15:39:31Z</time>
      </trkpt>
      <trkpt lat="43.56797" lon="3.28895">
        <ele>201</ele>
        <time>2015-05-02T15:39:32Z</time>
      </trkpt>
      <trkpt lat="43.5679" lon="3.28921">
        <ele>195</ele>
        <time>2015-05-02T15:39:35Z</time>
      </trkpt>
      <trkpt lat="43.56783" lon="3.28952">
        <ele>194</ele>
        <time>2015-05-02T15:39:38Z</time>
      </trkpt>
      <trkpt lat="43.56779" lon="3.28999">
        <ele>194</ele>
        <time>2015-05-02T15:39:42Z</time>
      </trkpt>
      <trkpt lat="43.56777" lon="3.29062">
        <ele>186</ele>
        <time>2015-05-02T15:39:47Z</time>
      </trkpt>
      <trkpt lat="43.5678" lon="3.29087">
        <ele>185</ele>
        <time>2015-05-02T15:39:49Z</time>
      </trkpt>
      <trkpt lat="43.56788" lon="3.29134">
        <ele>183</ele>
        <time>2015-05-02T15:39:53Z</time>
      </trkpt>
      <trkpt lat="43.568" lon="3.29195">
        <ele>183</ele>
        <time>2015-05-02T15:40:00Z</time>
      </trkpt>
      <trkpt lat="43.56822" lon="3.29237">
        <ele>180</ele>
        <time>2015-05-02T15:40:07Z</time>
      </trkpt>
      <trkpt lat="43.56827" lon="3.29254">
        <ele>177</ele>
        <time>2015-05-02T15:40:10Z</time>
      </trkpt>
      <trkpt lat="43.56814" lon="3.29313">
        <ele>175</ele>
        <time>2015-05-02T15:40:23Z</time>
      </trkpt>
      <trkpt lat="43.56779" lon="3.29345">
        <ele>172</ele>
        <time>2015-05-02T15:40:35Z</time>
      </trkpt>
      <trkpt lat="43.56724" lon="3.29352">
        <ele>177</ele>
        <time>2015-05-02T15:40:50Z</time>
      </trkpt>
      <trkpt lat="43.56645" lon="3.29346">
        <ele>177</ele>
        <time>2015-05-02T15:41:08Z</time>
      </trkpt>
      <trkpt lat="43.56598" lon="3.29348">
        <ele>176</ele>
        <time>2015-05-02T15:41:18Z</time>
      </trkpt>
      <trkpt lat="43.56573" lon="3.29323">
        <ele>182</ele>
        <time>2015-05-02T15:41:26Z</time>
      </trkpt>
      <trkpt lat="43.56567" lon="3.29283">
        <ele>187</ele>
        <time>2015-05-02T15:41:33Z</time>
      </trkpt>
      <trkpt lat="43.56557" lon="3.29263">
        <ele>188</ele>
        <time>2015-05-02T15:41:37Z</time>
      </trkpt>
      <trkpt lat="43.56544" lon="3.29258">
        <ele>188</ele>
        <time>2015-05-02T15:41:41Z</time>
      </trkpt>
      <trkpt lat="43.56538" lon="3.29272">
        <ele>188</ele>
        <time>2015-05-02T15:41:45Z</time>
      </trkpt>
      <trkpt lat="43.56528" lon="3.29342">
        <ele>178</ele>
        <time>2015-05-02T15:41:59Z</time>
      </trkpt>
      <trkpt lat="43.56509" lon="3.29369">
        <ele>176</ele>
        <time>2015-05-02T15:42:06Z</time>
      </trkpt>
      <trkpt lat="43.56433" lon="3.29391">
        <ele>178</ele>
        <time>2015-05-02T15:42:23Z</time>
      </trkpt>
      <trkpt lat="43.56396" lon="3.29391">
        <ele>181</ele>
        <time>2015-05-02T15:42:31Z</time>
      </trkpt>
      <trkpt lat="43.56356" lon="3.29401">
        <ele>180</ele>
        <time>2015-05-02T15:42:42Z</time>
      </trkpt>
      <trkpt lat="43.56349" lon="3.29393">
        <ele>181</ele>
        <time>2015-05-02T15:42:44Z</time>
      </trkpt>
      <trkpt lat="43.56307" lon="3.29375">
        <ele>190</ele>
        <time>2015-05-02T15:42:54Z</time>
      </trkpt>
      <trkpt lat="43.56303" lon="3.294">
        <ele>188</ele>
        <time>2015-05-02T15:43:00Z</time>
      </trkpt>
      <trkpt lat="43.56309" lon="3.2941">
        <ele>186</ele>
        <time>2015-05-02T15:43:02Z</time>
      </trkpt>
      <trkpt lat="43.56302" lon="3.29467">
        <ele>179</ele>
        <time>2015-05-02T15:43:12Z</time>
      </trkpt>
      <trkpt lat="43.56295" lon="3.29476">
        <ele>179</ele>
        <time>2015-05-02T15:43:14Z</time>
      </trkpt>
      <trkpt lat="43.56269" lon="3.29501">
        <ele>178</ele>
        <time>2015-05-02T15:43:21Z</time>
      </trkpt>
      <trkpt lat="43.56243" lon="3.29575">
        <ele>175</ele>
        <time>2015-05-02T15:43:34Z</time>
      </trkpt>
      <trkpt lat="43.56226" lon="3.29612">
        <ele>179</ele>
        <time>2015-05-02T15:43:41Z</time>
      </trkpt>
      <trkpt lat="43.56202" lon="3.29702">
        <ele>178</ele>
        <time>2015-05-02T15:43:56Z</time>
      </trkpt>
      <trkpt lat="43.56203" lon="3.2979">
        <ele>175</ele>
        <time>2015-05-02T15:44:10Z</time>
      </trkpt>
      <trkpt lat="43.56209" lon="3.29888">
        <ele>173</ele>
        <time>2015-05-02T15:44:26Z</time>
      </trkpt>
      <trkpt lat="43.56199" lon="3.29953">
        <ele>170</ele>
        <time>2015-05-02T15:44:39Z</time>
      </trkpt>
      <trkpt lat="43.56169" lon="3.29946">
        <ele>171</ele>
        <time>2015-05-02T15:44:49Z</time>
      </trkpt>
      <trkpt lat="43.56136" lon="3.29911">
        <ele>178</ele>
        <time>2015-05-02T15:45:03Z</time>
      </trkpt>
      <trkpt lat="43.5609" lon="3.2987">
        <ele>179</ele>
        <time>2015-05-02T15:45:21Z</time>
      </trkpt>
      <trkpt lat="43.56068" lon="3.29821">
        <ele>179</ele>
        <time>2015-05-02T15:45:35Z</time>
      </trkpt>
      <trkpt lat="43.56058" lon="3.29806">
        <ele>178</ele>
        <time>2015-05-02T15:45:40Z</time>
      </trkpt>
      <trkpt lat="43.56064" lon="3.29768">
        <ele>181</ele>
        <time>2015-05-02T15:45:50Z</time>
      </trkpt>
      <trkpt lat="43.56062" lon="3.29734">
        <ele>188</ele>
        <time>2015-05-02T15:46:01Z</time>
      </trkpt>
      <trkpt lat="43.56022" lon="3.2971">
        <ele>184</ele>
        <time>2015-05-02T15:46:16Z</time>
      </trkpt>
      <trkpt lat="43.55997" lon="3.29662">
        <ele>178</ele>
        <time>2015-05-02T15:46:31Z</time>
      </trkpt>
      <trkpt lat="43.55985" lon="3.29637">
        <ele>175</ele>
        <time>2015-05-02T15:46:45Z</time>
      </trkpt>
      <trkpt lat="43.55983" lon="3.29632">
        <ele>175</ele>
        <time>2015-05-02T15:47:00Z</time>
      </trkpt>
      <trkpt lat="43.55984" lon="3.29637">
        <ele>175</ele>
        <time>2015-05-02T15:47:11Z</time>
      </trkpt>
      <trkpt lat="43.55985" lon="3.29636">
        <ele>175</ele>
        <time>2015-05-02T15:47:34Z</time>
      </trkpt>
      <trkpt lat="43.55983" lon="3.29637">
        <ele>175</ele>
        <time>2015-05-02T15:48:15Z</time>
      </trkpt>
      <trkpt lat="43.55982" lon="3.29636">
        <ele>174</ele>
        <time>2015-05-02T15:48:58Z</time>
      </trkpt>
      <trkpt lat="43.55984" lon="3.29635">
        <ele>175</ele>
        <time>2015-05-02T15:49:02Z</time>
      </trkpt>
      <trkpt lat="43.55984" lon="3.2963">
        <ele>175</ele>
        <time>2015-05-02T15:49:11Z</time>
      </trkpt>
      <trkpt lat="43.55979" lon="3.29586">
        <ele>179</ele>
        <time>2015-05-02T15:49:23Z</time>
      </trkpt>
      <trkpt lat="43.55978" lon="3.29556">
        <ele>180</ele>
        <time>2015-05-02T15:49:28Z</time>
      </trkpt>
      <trkpt lat="43.55987" lon="3.29504">
        <ele>182</ele>
        <time>2015-05-02T15:49:34Z</time>
      </trkpt>
      <trkpt lat="43.55992" lon="3.29486">
        <ele>186</ele>
        <time>2015-05-02T15:49:36Z</time>
      </trkpt>
      <trkpt lat="43.55994" lon="3.29457">
        <ele>187</ele>
        <time>2015-05-02T15:49:41Z</time>
      </trkpt>
      <trkpt lat="43.5598" lon="3.29457">
        <ele>187</ele>
        <time>2015-05-02T15:49:45Z</time>
      </trkpt>
      <trkpt lat="43.55945" lon="3.29491">
        <ele>182</ele>
        <time>2015-05-02T15:49:52Z</time>
      </trkpt>
      <trkpt lat="43.55929" lon="3.29509">
        <ele>174</ele>
        <time>2015-05-02T15:49:54Z</time>
      </trkpt>
      <trkpt lat="43.55911" lon="3.29527">
        <ele>165</ele>
        <time>2015-05-02T15:49:57Z</time>
      </trkpt>
      <trkpt lat="43.55897" lon="3.29536">
        <ele>163</ele>
        <time>2015-05-02T15:49:59Z</time>
      </trkpt>
      <trkpt lat="43.55867" lon="3.29553">
        <ele>159</ele>
        <time>2015-05-02T15:50:03Z</time>
      </trkpt>
      <trkpt lat="43.5586" lon="3.29556">
        <ele>158</ele>
        <time>2015-05-02T15:50:04Z</time>
      </trkpt>
      <trkpt lat="43.55843" lon="3.29561">
        <ele>155</ele>
        <time>2015-05-02T15:50:06Z</time>
      </trkpt>
      <trkpt lat="43.55827" lon="3.29556">
        <ele>149</ele>
        <time>2015-05-02T15:50:09Z</time>
      </trkpt>
      <trkpt lat="43.55815" lon="3.29567">
        <ele>148</ele>
        <time>2015-05-02T15:50:15Z</time>
      </trkpt>
      <trkpt lat="43.55819" lon="3.2957">
        <ele>148</ele>
        <time>2015-05-02T15:50:16Z</time>
      </trkpt>
      <trkpt lat="43.5584" lon="3.29591">
        <ele>148</ele>
        <time>2015-05-02T15:50:22Z</time>
      </trkpt>
      <trkpt lat="43.55843" lon="3.29601">
        <ele>149</ele>
        <time>2015-05-02T15:50:25Z</time>
      </trkpt>
      <trkpt lat="43.55829" lon="3.29607">
        <ele>143</ele>
        <time>2015-05-02T15:50:32Z</time>
      </trkpt>
      <trkpt lat="43.55824" lon="3.29609">
        <ele>143</ele>
        <time>2015-05-02T15:50:43Z</time>
      </trkpt>
      <trkpt lat="43.55808" lon="3.29597">
        <ele>142</ele>
        <time>2015-05-02T15:50:51Z</time>
      </trkpt>
      <trkpt lat="43.55771" lon="3.29581">
        <ele>145</ele>
        <time>2015-05-02T15:51:03Z</time>
      </trkpt>
      <trkpt lat="43.55753" lon="3.29576">
        <ele>141</ele>
        <time>2015-05-02T15:52:24Z</time>
      </trkpt>
      <trkpt lat="43.5575" lon="3.29576">
        <ele>140</ele>
        <time>2015-05-02T15:52:41Z</time>
      </trkpt>
      <trkpt lat="43.5575" lon="3.29576">
        <ele>141</ele>
        <time>2015-05-02T15:53:14Z</time>
      </trkpt>
      <trkpt lat="43.5575" lon="3.29578">
        <ele>140</ele>
        <time>2015-05-02T15:53:23Z</time>
      </trkpt>
      <trkpt lat="43.55715" lon="3.2958">
        <ele>143</ele>
        <time>2015-05-02T15:53:36Z</time>
      </trkpt>
      <trkpt lat="43.55699" lon="3.29574">
        <ele>143</ele>
        <time>2015-05-02T15:53:43Z</time>
      </trkpt>
      <trkpt lat="43.5566" lon="3.2956">
        <ele>142</ele>
        <time>2015-05-02T15:53:59Z</time>
      </trkpt>
      <trkpt lat="43.55627" lon="3.29553">
        <ele>143</ele>
        <time>2015-05-02T15:54:11Z</time>
      </trkpt>
      <trkpt lat="43.55601" lon="3.29546">
        <ele>143</ele>
        <time>2015-05-02T15:54:19Z</time>
      </trkpt>
      <trkpt lat="43.55575" lon="3.29585">
        <ele>140</ele>
        <time>2015-05-02T15:54:29Z</time>
      </trkpt>
      <trkpt lat="43.55572" lon="3.29587">
        <ele>141</ele>
        <time>2015-05-02T15:56:30Z</time>
      </trkpt>
      <trkpt lat="43.55575" lon="3.29585">
        <ele>140</ele>
        <time>2015-05-02T15:57:05Z</time>
      </trkpt>
      <trkpt lat="43.55573" lon="3.29589">
        <ele>141</ele>
        <time>2015-05-02T15:57:36Z</time>
      </trkpt>
      <trkpt lat="43.55573" lon="3.29586">
        <ele>141</ele>
        <time>2015-05-02T15:58:14Z</time>
      </trkpt>
      <trkpt lat="43.5557" lon="3.29589">
        <ele>141</ele>
        <time>2015-05-02T15:59:34Z</time>
      </trkpt>
      <trkpt lat="43.55569" lon="3.29587">
        <ele>141</ele>
        <time>2015-05-02T16:00:01Z</time>
      </trkpt>
      <trkpt lat="43.55571" lon="3.29587">
        <ele>141</ele>
        <time>2015-05-02T16:00:51Z</time>
      </trkpt>
      <trkpt lat="43.55571" lon="3.29587">
        <ele>141</ele>
        <time>2015-05-02T16:01:25Z</time>
      </trkpt>
      <trkpt lat="43.55569" lon="3.29587">
        <ele>141</ele>
        <time>2015-05-02T16:01:52Z</time>
      </trkpt>
      <trkpt lat="43.55568" lon="3.29586">
        <ele>141</ele>
        <time>2015-05-02T16:02:01Z</time>
      </trkpt>
      <trkpt lat="43.55552" lon="3.29587">
        <ele>141</ele>
        <time>2015-05-02T16:02:12Z</time>
      </trkpt>
      <trkpt lat="43.55548" lon="3.2958">
        <ele>143</ele>
        <time>2015-05-02T16:02:17Z</time>
      </trkpt>
      <trkpt lat="43.55539" lon="3.29561">
        <ele>143</ele>
        <time>2015-05-02T16:02:31Z</time>
      </trkpt>
      <trkpt lat="43.55535" lon="3.29549">
        <ele>144</ele>
        <time>2015-05-02T16:02:38Z</time>
      </trkpt>
      <trkpt lat="43.55534" lon="3.29546">
        <ele>144</ele>
        <time>2015-05-02T16:02:40Z</time>
      </trkpt>
      <trkpt lat="43.55525" lon="3.29543">
        <ele>144</ele>
        <time>2015-05-02T16:02:48Z</time>
      </trkpt>
      <trkpt lat="43.55503" lon="3.29544">
        <ele>144</ele>
        <time>2015-05-02T16:03:06Z</time>
      </trkpt>
      <trkpt lat="43.55472" lon="3.29546">
        <ele>145</ele>
        <time>2015-05-02T16:03:24Z</time>
      </trkpt>
      <trkpt lat="43.55464" lon="3.2956">
        <ele>145</ele>
        <time>2015-05-02T16:03:28Z</time>
      </trkpt>
      <trkpt lat="43.55464" lon="3.29619">
        <ele>141</ele>
        <time>2015-05-02T16:03:36Z</time>
      </trkpt>
      <trkpt lat="43.55444" lon="3.29661">
        <ele>140</ele>
        <time>2015-05-02T16:03:42Z</time>
      </trkpt>
      <trkpt lat="43.55436" lon="3.29668">
        <ele>139</ele>
        <time>2015-05-02T16:03:43Z</time>
      </trkpt>
      <trkpt lat="43.55428" lon="3.29674">
        <ele>138</ele>
        <time>2015-05-02T16:03:44Z</time>
      </trkpt>
      <trkpt lat="43.554" lon="3.29702">
        <ele>137</ele>
        <time>2015-05-02T16:03:49Z</time>
      </trkpt>
      <trkpt lat="43.5538" lon="3.29715">
        <ele>137</ele>
        <time>2015-05-02T16:03:54Z</time>
      </trkpt>
      <trkpt lat="43.55364" lon="3.29731">
        <ele>136</ele>
        <time>2015-05-02T16:03:58Z</time>
      </trkpt>
      <trkpt lat="43.55348" lon="3.29746">
        <ele>135</ele>
        <time>2015-05-02T16:04:18Z</time>
      </trkpt>
      <trkpt lat="43.55374" lon="3.29754">
        <ele>138</ele>
        <time>2015-05-02T16:07:39Z</time>
      </trkpt>
      <trkpt lat="43.554" lon="3.29762">
        <ele>139</ele>
        <time>2015-05-03T06:25:38Z</time>
      </trkpt>
      <trkpt lat="43.55437" lon="3.29776">
        <ele>143</ele>
        <time>2015-05-03T06:25:53Z</time>
      </trkpt>
      <trkpt lat="43.55481" lon="3.2978">
        <ele>144</ele>
        <time>2015-05-03T06:26:10Z</time>
      </trkpt>
      <trkpt lat="43.55527" lon="3.29787">
        <ele>146</ele>
        <time>2015-05-03T06:26:29Z</time>
      </trkpt>
      <trkpt lat="43.55544" lon="3.29796">
        <ele>147</ele>
        <time>2015-05-03T06:26:42Z</time>
      </trkpt>
      <trkpt lat="43.55564" lon="3.29806">
        <ele>148</ele>
        <time>2015-05-03T06:26:57Z</time>
      </trkpt>
      <trkpt lat="43.55578" lon="3.29815">
        <ele>149</ele>
        <time>2015-05-03T06:27:09Z</time>
      </trkpt>
      <trkpt lat="43.55594" lon="3.2982">
        <ele>152</ele>
        <time>2015-05-03T06:27:22Z</time>
      </trkpt>
      <trkpt lat="43.55598" lon="3.29821">
        <ele>152</ele>
        <time>2015-05-03T06:27:26Z</time>
      </trkpt>
      <trkpt lat="43.55602" lon="3.29822">
        <ele>152</ele>
        <time>2015-05-03T06:27:29Z</time>
      </trkpt>
      <trkpt lat="43.55613" lon="3.29823">
        <ele>153</ele>
        <time>2015-05-03T06:27:38Z</time>
      </trkpt>
      <trkpt lat="43.55635" lon="3.29817">
        <ele>154</ele>
        <time>2015-05-03T06:27:57Z</time>
      </trkpt>
      <trkpt lat="43.55657" lon="3.29811">
        <ele>156</ele>
        <time>2015-05-03T06:28:15Z</time>
      </trkpt>
      <trkpt lat="43.55679" lon="3.29809">
        <ele>161</ele>
        <time>2015-05-03T06:28:32Z</time>
      </trkpt>
      <trkpt lat="43.55704" lon="3.29801">
        <ele>161</ele>
        <time>2015-05-03T06:28:50Z</time>
      </trkpt>
      <trkpt lat="43.55733" lon="3.29799">
        <ele>163</ele>
        <time>2015-05-03T06:29:09Z</time>
      </trkpt>
      <trkpt lat="43.55756" lon="3.29805">
        <ele>163</ele>
        <time>2015-05-03T06:29:26Z</time>
      </trkpt>
      <trkpt lat="43.55777" lon="3.29833">
        <ele>164</ele>
        <time>2015-05-03T06:29:44Z</time>
      </trkpt>
      <trkpt lat="43.55771" lon="3.29836">
        <ele>172</ele>
        <time>2015-05-03T06:30:40Z</time>
      </trkpt>
      <trkpt lat="43.55744" lon="3.29826">
        <ele>168</ele>
        <time>2015-05-03T06:30:46Z</time>
      </trkpt>
      <trkpt lat="43.55653" lon="3.29857">
        <ele>166</ele>
        <time>2015-05-03T06:31:02Z</time>
      </trkpt>
      <trkpt lat="43.55595" lon="3.29881">
        <ele>167</ele>
        <time>2015-05-03T06:31:16Z</time>
      </trkpt>
      <trkpt lat="43.55531" lon="3.29906">
        <ele>163</ele>
        <time>2015-05-03T06:31:35Z</time>
      </trkpt>
      <trkpt lat="43.5553" lon="3.29907">
        <ele>163</ele>
        <time>2015-05-03T06:31:36Z</time>
      </trkpt>
      <trkpt lat="43.55536" lon="3.29923">
        <ele>172</ele>
        <time>2015-05-03T06:31:45Z</time>
      </trkpt>
      <trkpt lat="43.55542" lon="3.29933">
        <ele>173</ele>
        <time>2015-05-03T06:31:53Z</time>
      </trkpt>
      <trkpt lat="43.55547" lon="3.29935">
        <ele>173</ele>
        <time>2015-05-03T06:31:57Z</time>
      </trkpt>
      <trkpt lat="43.5556" lon="3.29938">
        <ele>174</ele>
        <time>2015-05-03T06:32:10Z</time>
      </trkpt>
      <trkpt lat="43.55571" lon="3.29939">
        <ele>175</ele>
        <time>2015-05-03T06:32:22Z</time>
      </trkpt>
      <trkpt lat="43.55583" lon="3.29939">
        <ele>182</ele>
        <time>2015-05-03T06:32:35Z</time>
      </trkpt>
      <trkpt lat="43.55586" lon="3.2994">
        <ele>182</ele>
        <time>2015-05-03T06:32:38Z</time>
      </trkpt>
      <trkpt lat="43.55591" lon="3.29937">
        <ele>182</ele>
        <time>2015-05-03T06:32:53Z</time>
      </trkpt>
      <trkpt lat="43.55605" lon="3.29936">
        <ele>183</ele>
        <time>2015-05-03T06:33:12Z</time>
      </trkpt>
      <trkpt lat="43.55617" lon="3.29937">
        <ele>184</ele>
        <time>2015-05-03T06:33:29Z</time>
      </trkpt>
      <trkpt lat="43.55629" lon="3.29945">
        <ele>186</ele>
        <time>2015-05-03T06:33:46Z</time>
      </trkpt>
      <trkpt lat="43.5564" lon="3.29946">
        <ele>187</ele>
        <time>2015-05-03T06:34:02Z</time>
      </trkpt>
      <trkpt lat="43.55652" lon="3.29952">
        <ele>188</ele>
        <time>2015-05-03T06:34:20Z</time>
      </trkpt>
      <trkpt lat="43.55663" lon="3.29954">
        <ele>188</ele>
        <time>2015-05-03T06:34:37Z</time>
      </trkpt>
      <trkpt lat="43.55683" lon="3.29956">
        <ele>194</ele>
        <time>2015-05-03T06:34:58Z</time>
      </trkpt>
      <trkpt lat="43.55696" lon="3.29965">
        <ele>195</ele>
        <time>2015-05-03T06:35:13Z</time>
      </trkpt>
      <trkpt lat="43.5571" lon="3.29974">
        <ele>196</ele>
        <time>2015-05-03T06:35:30Z</time>
      </trkpt>
      <trkpt lat="43.55729" lon="3.29981">
        <ele>198</ele>
        <time>2015-05-03T06:35:49Z</time>
      </trkpt>
      <trkpt lat="43.55744" lon="3.29985">
        <ele>200</ele>
        <time>2015-05-03T06:36:04Z</time>
      </trkpt>
      <trkpt lat="43.55781" lon="3.3002">
        <ele>207</ele>
        <time>2015-05-03T06:36:18Z</time>
      </trkpt>
      <trkpt lat="43.55812" lon="3.30058">
        <ele>208</ele>
        <time>2015-05-03T06:36:33Z</time>
      </trkpt>
      <trkpt lat="43.55828" lon="3.30092">
        <ele>216</ele>
        <time>2015-05-03T06:36:48Z</time>
      </trkpt>
      <trkpt lat="43.55839" lon="3.30124">
        <ele>207</ele>
        <time>2015-05-03T06:37:01Z</time>
      </trkpt>
      <trkpt lat="43.55853" lon="3.30158">
        <ele>212</ele>
        <time>2015-05-03T06:37:16Z</time>
      </trkpt>
      <trkpt lat="43.55867" lon="3.30187">
        <ele>220</ele>
        <time>2015-05-03T06:37:32Z</time>
      </trkpt>
      <trkpt lat="43.55887" lon="3.30221">
        <ele>219</ele>
        <time>2015-05-03T06:37:48Z</time>
      </trkpt>
      <trkpt lat="43.55902" lon="3.30268">
        <ele>224</ele>
        <time>2015-05-03T06:38:05Z</time>
      </trkpt>
      <trkpt lat="43.55907" lon="3.30285">
        <ele>226</ele>
        <time>2015-05-03T06:38:08Z</time>
      </trkpt>
      <trkpt lat="43.55907" lon="3.303">
        <ele>227</ele>
        <time>2015-05-03T06:38:10Z</time>
      </trkpt>
      <trkpt lat="43.55907" lon="3.30317">
        <ele>226</ele>
        <time>2015-05-03T06:38:12Z</time>
      </trkpt>
      <trkpt lat="43.55914" lon="3.3035">
        <ele>229</ele>
        <time>2015-05-03T06:38:16Z</time>
      </trkpt>
      <trkpt lat="43.55916" lon="3.30366">
        <ele>234</ele>
        <time>2015-05-03T06:38:18Z</time>
      </trkpt>
      <trkpt lat="43.55921" lon="3.30414">
        <ele>223</ele>
        <time>2015-05-03T06:38:31Z</time>
      </trkpt>
      <trkpt lat="43.55927" lon="3.30462">
        <ele>221</ele>
        <time>2015-05-03T06:38:48Z</time>
      </trkpt>
      <trkpt lat="43.55931" lon="3.30515">
        <ele>228</ele>
        <time>2015-05-03T06:39:09Z</time>
      </trkpt>
      <trkpt lat="43.55928" lon="3.30544">
        <ele>230</ele>
        <time>2015-05-03T06:39:24Z</time>
      </trkpt>
      <trkpt lat="43.55926" lon="3.30573">
        <ele>234</ele>
        <time>2015-05-03T06:39:39Z</time>
      </trkpt>
      <trkpt lat="43.55929" lon="3.30613">
        <ele>237</ele>
        <time>2015-05-03T06:39:56Z</time>
      </trkpt>
      <trkpt lat="43.55933" lon="3.30649">
        <ele>239</ele>
        <time>2015-05-03T06:40:14Z</time>
      </trkpt>
      <trkpt lat="43.55932" lon="3.30662">
        <ele>239</ele>
        <time>2015-05-03T06:40:28Z</time>
      </trkpt>
      <trkpt lat="43.55929" lon="3.30679">
        <ele>244</ele>
        <time>2015-05-03T06:40:44Z</time>
      </trkpt>
      <trkpt lat="43.55925" lon="3.30696">
        <ele>245</ele>
        <time>2015-05-03T06:41:03Z</time>
      </trkpt>
      <trkpt lat="43.55921" lon="3.30711">
        <ele>246</ele>
        <time>2015-05-03T06:41:17Z</time>
      </trkpt>
      <trkpt lat="43.55919" lon="3.30735">
        <ele>249</ele>
        <time>2015-05-03T06:41:38Z</time>
      </trkpt>
      <trkpt lat="43.55918" lon="3.30746">
        <ele>251</ele>
        <time>2015-05-03T06:41:53Z</time>
      </trkpt>
      <trkpt lat="43.5592" lon="3.30769">
        <ele>254</ele>
        <time>2015-05-03T06:42:05Z</time>
      </trkpt>
      <trkpt lat="43.55921" lon="3.30773">
        <ele>254</ele>
        <time>2015-05-03T06:42:07Z</time>
      </trkpt>
      <trkpt lat="43.55921" lon="3.30775">
        <ele>254</ele>
        <time>2015-05-03T06:42:08Z</time>
      </trkpt>
      <trkpt lat="43.55921" lon="3.30776">
        <ele>254</ele>
        <time>2015-05-03T06:42:09Z</time>
      </trkpt>
      <trkpt lat="43.55923" lon="3.30782">
        <ele>254</ele>
        <time>2015-05-03T06:42:12Z</time>
      </trkpt>
      <trkpt lat="43.55922" lon="3.30808">
        <ele>256</ele>
        <time>2015-05-03T06:42:28Z</time>
      </trkpt>
      <trkpt lat="43.55923" lon="3.30815">
        <ele>256</ele>
        <time>2015-05-03T06:42:32Z</time>
      </trkpt>
      <trkpt lat="43.55923" lon="3.30823">
        <ele>256</ele>
        <time>2015-05-03T06:42:36Z</time>
      </trkpt>
      <trkpt lat="43.55925" lon="3.30839">
        <ele>259</ele>
        <time>2015-05-03T06:42:45Z</time>
      </trkpt>
      <trkpt lat="43.55934" lon="3.30871">
        <ele>262</ele>
        <time>2015-05-03T06:43:04Z</time>
      </trkpt>
      <trkpt lat="43.55949" lon="3.30889">
        <ele>263</ele>
        <time>2015-05-03T06:43:16Z</time>
      </trkpt>
      <trkpt lat="43.55958" lon="3.30912">
        <ele>264</ele>
        <time>2015-05-03T06:43:31Z</time>
      </trkpt>
      <trkpt lat="43.55954" lon="3.3092">
        <ele>269</ele>
        <time>2015-05-03T06:43:51Z</time>
      </trkpt>
      <trkpt lat="43.5595" lon="3.30933">
        <ele>269</ele>
        <time>2015-05-03T06:44:07Z</time>
      </trkpt>
      <trkpt lat="43.55943" lon="3.30939">
        <ele>269</ele>
        <time>2015-05-03T06:44:22Z</time>
      </trkpt>
      <trkpt lat="43.5594" lon="3.3095">
        <ele>270</ele>
        <time>2015-05-03T06:44:38Z</time>
      </trkpt>
      <trkpt lat="43.55945" lon="3.30963">
        <ele>272</ele>
        <time>2015-05-03T06:44:56Z</time>
      </trkpt>
      <trkpt lat="43.5595" lon="3.30965">
        <ele>272</ele>
        <time>2015-05-03T06:45:08Z</time>
      </trkpt>
      <trkpt lat="43.55964" lon="3.30978">
        <ele>272</ele>
        <time>2015-05-03T06:45:21Z</time>
      </trkpt>
      <trkpt lat="43.55964" lon="3.3099">
        <ele>273</ele>
        <time>2015-05-03T06:45:36Z</time>
      </trkpt>
      <trkpt lat="43.55967" lon="3.31">
        <ele>277</ele>
        <time>2015-05-03T06:45:52Z</time>
      </trkpt>
      <trkpt lat="43.55972" lon="3.3101">
        <ele>277</ele>
        <time>2015-05-03T06:46:07Z</time>
      </trkpt>
      <trkpt lat="43.55982" lon="3.31013">
        <ele>277</ele>
        <time>2015-05-03T06:46:24Z</time>
      </trkpt>
      <trkpt lat="43.55986" lon="3.31019">
        <ele>277</ele>
        <time>2015-05-03T06:46:28Z</time>
      </trkpt>
      <trkpt lat="43.55993" lon="3.31042">
        <ele>277</ele>
        <time>2015-05-03T06:46:41Z</time>
      </trkpt>
      <trkpt lat="43.55997" lon="3.3104">
        <ele>277</ele>
        <time>2015-05-03T06:46:45Z</time>
      </trkpt>
      <trkpt lat="43.56004" lon="3.31039">
        <ele>273</ele>
        <time>2015-05-03T06:46:49Z</time>
      </trkpt>
      <trkpt lat="43.56009" lon="3.31041">
        <ele>273</ele>
        <time>2015-05-03T06:46:52Z</time>
      </trkpt>
      <trkpt lat="43.56017" lon="3.31047">
        <ele>272</ele>
        <time>2015-05-03T06:46:57Z</time>
      </trkpt>
      <trkpt lat="43.5603" lon="3.31045">
        <ele>272</ele>
        <time>2015-05-03T06:47:03Z</time>
      </trkpt>
      <trkpt lat="43.56059" lon="3.31038">
        <ele>272</ele>
        <time>2015-05-03T06:47:13Z</time>
      </trkpt>
      <trkpt lat="43.56065" lon="3.31032">
        <ele>272</ele>
        <time>2015-05-03T06:47:17Z</time>
      </trkpt>
      <trkpt lat="43.56094" lon="3.31023">
        <ele>275</ele>
        <time>2015-05-03T06:47:28Z</time>
      </trkpt>
      <trkpt lat="43.56097" lon="3.31024">
        <ele>275</ele>
        <time>2015-05-03T06:47:29Z</time>
      </trkpt>
      <trkpt lat="43.56125" lon="3.31022">
        <ele>277</ele>
        <time>2015-05-03T06:47:39Z</time>
      </trkpt>
      <trkpt lat="43.56147" lon="3.31058">
        <ele>276</ele>
        <time>2015-05-03T06:47:53Z</time>
      </trkpt>
      <trkpt lat="43.56163" lon="3.31088">
        <ele>274</ele>
        <time>2015-05-03T06:48:06Z</time>
      </trkpt>
      <trkpt lat="43.56188" lon="3.31137">
        <ele>274</ele>
        <time>2015-05-03T06:48:23Z</time>
      </trkpt>
      <trkpt lat="43.56193" lon="3.31146">
        <ele>274</ele>
        <time>2015-05-03T06:48:27Z</time>
      </trkpt>
      <trkpt lat="43.56205" lon="3.31173">
        <ele>270</ele>
        <time>2015-05-03T06:48:40Z</time>
      </trkpt>
      <trkpt lat="43.56207" lon="3.31174">
        <ele>270</ele>
        <time>2015-05-03T06:48:41Z</time>
      </trkpt>
      <trkpt lat="43.56227" lon="3.31196">
        <ele>272</ele>
        <time>2015-05-03T06:48:56Z</time>
      </trkpt>
      <trkpt lat="43.56238" lon="3.31208">
        <ele>272</ele>
        <time>2015-05-03T06:49:05Z</time>
      </trkpt>
      <trkpt lat="43.56252" lon="3.31227">
        <ele>278</ele>
        <time>2015-05-03T06:49:21Z</time>
      </trkpt>
      <trkpt lat="43.56266" lon="3.31242">
        <ele>278</ele>
        <time>2015-05-03T06:49:34Z</time>
      </trkpt>
      <trkpt lat="43.56282" lon="3.3126">
        <ele>278</ele>
        <time>2015-05-03T06:49:49Z</time>
      </trkpt>
      <trkpt lat="43.56296" lon="3.31269">
        <ele>279</ele>
        <time>2015-05-03T06:50:04Z</time>
      </trkpt>
      <trkpt lat="43.56314" lon="3.31277">
        <ele>280</ele>
        <time>2015-05-03T06:50:20Z</time>
      </trkpt>
      <trkpt lat="43.56336" lon="3.31294">
        <ele>279</ele>
        <time>2015-05-03T06:50:33Z</time>
      </trkpt>
      <trkpt lat="43.56358" lon="3.31322">
        <ele>279</ele>
        <time>2015-05-03T06:50:45Z</time>
      </trkpt>
      <trkpt lat="43.56359" lon="3.31324">
        <ele>279</ele>
        <time>2015-05-03T06:50:46Z</time>
      </trkpt>
      <trkpt lat="43.56367" lon="3.31329">
        <ele>278</ele>
        <time>2015-05-03T06:50:50Z</time>
      </trkpt>
      <trkpt lat="43.56387" lon="3.31355">
        <ele>281</ele>
        <time>2015-05-03T06:51:03Z</time>
      </trkpt>
      <trkpt lat="43.56421" lon="3.3137">
        <ele>276</ele>
        <time>2015-05-03T06:51:17Z</time>
      </trkpt>
      <trkpt lat="43.56469" lon="3.3138">
        <ele>275</ele>
        <time>2015-05-03T06:51:31Z</time>
      </trkpt>
      <trkpt lat="43.56521" lon="3.31388">
        <ele>274</ele>
        <time>2015-05-03T06:51:45Z</time>
      </trkpt>
      <trkpt lat="43.56561" lon="3.31399">
        <ele>275</ele>
        <time>2015-05-03T06:51:56Z</time>
      </trkpt>
      <trkpt lat="43.56569" lon="3.31402">
        <ele>276</ele>
        <time>2015-05-03T06:52:01Z</time>
      </trkpt>
      <trkpt lat="43.56602" lon="3.31406">
        <ele>279</ele>
        <time>2015-05-03T06:52:18Z</time>
      </trkpt>
      <trkpt lat="43.56606" lon="3.31408">
        <ele>279</ele>
        <time>2015-05-03T06:52:20Z</time>
      </trkpt>
      <trkpt lat="43.56611" lon="3.31414">
        <ele>279</ele>
        <time>2015-05-03T06:52:23Z</time>
      </trkpt>
      <trkpt lat="43.56623" lon="3.31417">
        <ele>278</ele>
        <time>2015-05-03T06:52:31Z</time>
      </trkpt>
      <trkpt lat="43.56626" lon="3.3142">
        <ele>278</ele>
        <time>2015-05-03T06:52:33Z</time>
      </trkpt>
      <trkpt lat="43.56634" lon="3.31416">
        <ele>281</ele>
        <time>2015-05-03T06:52:38Z</time>
      </trkpt>
      <trkpt lat="43.56637" lon="3.31415">
        <ele>281</ele>
        <time>2015-05-03T06:52:40Z</time>
      </trkpt>
      <trkpt lat="43.56643" lon="3.31409">
        <ele>281</ele>
        <time>2015-05-03T06:52:45Z</time>
      </trkpt>
      <trkpt lat="43.56659" lon="3.31402">
        <ele>282</ele>
        <time>2015-05-03T06:52:58Z</time>
      </trkpt>
      <trkpt lat="43.56673" lon="3.31402">
        <ele>286</ele>
        <time>2015-05-03T06:53:14Z</time>
      </trkpt>
      <trkpt lat="43.56688" lon="3.31399">
        <ele>287</ele>
        <time>2015-05-03T06:53:29Z</time>
      </trkpt>
      <trkpt lat="43.56707" lon="3.31399">
        <ele>288</ele>
        <time>2015-05-03T06:53:43Z</time>
      </trkpt>
      <trkpt lat="43.56735" lon="3.31405">
        <ele>290</ele>
        <time>2015-05-03T06:54:00Z</time>
      </trkpt>
      <trkpt lat="43.56748" lon="3.31413">
        <ele>292</ele>
        <time>2015-05-03T06:54:18Z</time>
      </trkpt>
      <trkpt lat="43.56757" lon="3.3141">
        <ele>294</ele>
        <time>2015-05-03T06:54:41Z</time>
      </trkpt>
      <trkpt lat="43.56763" lon="3.31404">
        <ele>294</ele>
        <time>2015-05-03T06:54:49Z</time>
      </trkpt>
      <trkpt lat="43.56774" lon="3.31398">
        <ele>295</ele>
        <time>2015-05-03T06:55:03Z</time>
      </trkpt>
      <trkpt lat="43.56786" lon="3.31391">
        <ele>296</ele>
        <time>2015-05-03T06:55:18Z</time>
      </trkpt>
      <trkpt lat="43.56792" lon="3.31388">
        <ele>296</ele>
        <time>2015-05-03T06:55:31Z</time>
      </trkpt>
      <trkpt lat="43.568" lon="3.3138">
        <ele>296</ele>
        <time>2015-05-03T06:55:44Z</time>
      </trkpt>
      <trkpt lat="43.56805" lon="3.31379">
        <ele>296</ele>
        <time>2015-05-03T06:55:48Z</time>
      </trkpt>
      <trkpt lat="43.56825" lon="3.31381">
        <ele>297</ele>
        <time>2015-05-03T06:56:04Z</time>
      </trkpt>
      <trkpt lat="43.56848" lon="3.31379">
        <ele>298</ele>
        <time>2015-05-03T06:56:18Z</time>
      </trkpt>
      <trkpt lat="43.56879" lon="3.31381">
        <ele>298</ele>
        <time>2015-05-03T06:56:30Z</time>
      </trkpt>
      <trkpt lat="43.5692" lon="3.31368">
        <ele>297</ele>
        <time>2015-05-03T06:56:46Z</time>
      </trkpt>
      <trkpt lat="43.5695" lon="3.31341">
        <ele>297</ele>
        <time>2015-05-03T06:57:00Z</time>
      </trkpt>
      <trkpt lat="43.5698" lon="3.31318">
        <ele>293</ele>
        <time>2015-05-03T06:57:15Z</time>
      </trkpt>
      <trkpt lat="43.57002" lon="3.31307">
        <ele>299</ele>
        <time>2015-05-03T06:57:30Z</time>
      </trkpt>
      <trkpt lat="43.57016" lon="3.31301">
        <ele>299</ele>
        <time>2015-05-03T06:57:50Z</time>
      </trkpt>
      <trkpt lat="43.57028" lon="3.313">
        <ele>300</ele>
        <time>2015-05-03T06:58:01Z</time>
      </trkpt>
      <trkpt lat="43.57052" lon="3.31286">
        <ele>300</ele>
        <time>2015-05-03T06:58:17Z</time>
      </trkpt>
      <trkpt lat="43.57065" lon="3.31283">
        <ele>301</ele>
        <time>2015-05-03T06:58:26Z</time>
      </trkpt>
      <trkpt lat="43.57081" lon="3.31309">
        <ele>304</ele>
        <time>2015-05-03T06:58:42Z</time>
      </trkpt>
      <trkpt lat="43.57091" lon="3.31328">
        <ele>310</ele>
        <time>2015-05-03T06:58:57Z</time>
      </trkpt>
      <trkpt lat="43.571" lon="3.31337">
        <ele>311</ele>
        <time>2015-05-03T06:59:12Z</time>
      </trkpt>
      <trkpt lat="43.57108" lon="3.31343">
        <ele>312</ele>
        <time>2015-05-03T06:59:26Z</time>
      </trkpt>
      <trkpt lat="43.57115" lon="3.31348">
        <ele>312</ele>
        <time>2015-05-03T06:59:39Z</time>
      </trkpt>
      <trkpt lat="43.57123" lon="3.31354">
        <ele>312</ele>
        <time>2015-05-03T06:59:54Z</time>
      </trkpt>
      <trkpt lat="43.57134" lon="3.31368">
        <ele>313</ele>
        <time>2015-05-03T07:00:11Z</time>
      </trkpt>
      <trkpt lat="43.57149" lon="3.31374">
        <ele>313</ele>
        <time>2015-05-03T07:00:30Z</time>
      </trkpt>
      <trkpt lat="43.57165" lon="3.31386">
        <ele>313</ele>
        <time>2015-05-03T07:00:49Z</time>
      </trkpt>
      <trkpt lat="43.57177" lon="3.3139">
        <ele>320</ele>
        <time>2015-05-03T07:01:06Z</time>
      </trkpt>
      <trkpt lat="43.57191" lon="3.31396">
        <ele>320</ele>
        <time>2015-05-03T07:01:24Z</time>
      </trkpt>
      <trkpt lat="43.57198" lon="3.31397">
        <ele>320</ele>
        <time>2015-05-03T07:01:45Z</time>
      </trkpt>
      <trkpt lat="43.57225" lon="3.31394">
        <ele>321</ele>
        <time>2015-05-03T07:02:00Z</time>
      </trkpt>
      <trkpt lat="43.57261" lon="3.31397">
        <ele>325</ele>
        <time>2015-05-03T07:02:14Z</time>
      </trkpt>
      <trkpt lat="43.5729" lon="3.31392">
        <ele>327</ele>
        <time>2015-05-03T07:02:29Z</time>
      </trkpt>
      <trkpt lat="43.5732" lon="3.31391">
        <ele>327</ele>
        <time>2015-05-03T07:02:44Z</time>
      </trkpt>
      <trkpt lat="43.57339" lon="3.31393">
        <ele>330</ele>
        <time>2015-05-03T07:02:56Z</time>
      </trkpt>
      <trkpt lat="43.57355" lon="3.31399">
        <ele>331</ele>
        <time>2015-05-03T07:03:05Z</time>
      </trkpt>
      <trkpt lat="43.5736" lon="3.31399">
        <ele>331</ele>
        <time>2015-05-03T07:03:08Z</time>
      </trkpt>
      <trkpt lat="43.57364" lon="3.31402">
        <ele>331</ele>
        <time>2015-05-03T07:03:11Z</time>
      </trkpt>
      <trkpt lat="43.5737" lon="3.31402">
        <ele>332</ele>
        <time>2015-05-03T07:03:26Z</time>
      </trkpt>
      <trkpt lat="43.57371" lon="3.31401">
        <ele>332</ele>
        <time>2015-05-03T07:03:58Z</time>
      </trkpt>
      <trkpt lat="43.57374" lon="3.31402">
        <ele>332</ele>
        <time>2015-05-03T07:04:26Z</time>
      </trkpt>
      <trkpt lat="43.57374" lon="3.31401">
        <ele>332</ele>
        <time>2015-05-03T07:04:50Z</time>
      </trkpt>
      <trkpt lat="43.57375" lon="3.31404">
        <ele>332</ele>
        <time>2015-05-03T07:05:21Z</time>
      </trkpt>
      <trkpt lat="43.57373" lon="3.314">
        <ele>332</ele>
        <time>2015-05-03T07:05:51Z</time>
      </trkpt>
      <trkpt lat="43.57373" lon="3.31402">
        <ele>332</ele>
        <time>2015-05-03T07:06:13Z</time>
      </trkpt>
      <trkpt lat="43.57374" lon="3.31405">
        <ele>332</ele>
        <time>2015-05-03T07:06:38Z</time>
      </trkpt>
      <trkpt lat="43.57371" lon="3.31406">
        <ele>332</ele>
        <time>2015-05-03T07:07:03Z</time>
      </trkpt>
      <trkpt lat="43.5737" lon="3.31402">
        <ele>332</ele>
        <time>2015-05-03T07:07:39Z</time>
      </trkpt>
      <trkpt lat="43.57373" lon="3.31401">
        <ele>332</ele>
        <time>2015-05-03T07:08:22Z</time>
      </trkpt>
      <trkpt lat="43.57373" lon="3.31404">
        <ele>332</ele>
        <time>2015-05-03T07:08:26Z</time>
      </trkpt>
      <trkpt lat="43.57374" lon="3.31408">
        <ele>332</ele>
        <time>2015-05-03T07:08:29Z</time>
      </trkpt>
      <trkpt lat="43.57377" lon="3.31417">
        <ele>333</ele>
        <time>2015-05-03T07:08:35Z</time>
      </trkpt>
      <trkpt lat="43.57389" lon="3.31442">
        <ele>334</ele>
        <time>2015-05-03T07:08:50Z</time>
      </trkpt>
      <trkpt lat="43.57396" lon="3.31469">
        <ele>335</ele>
        <time>2015-05-03T07:09:05Z</time>
      </trkpt>
      <trkpt lat="43.57396" lon="3.31471">
        <ele>335</ele>
        <time>2015-05-03T07:09:06Z</time>
      </trkpt>
      <trkpt lat="43.57397" lon="3.31492">
        <ele>337</ele>
        <time>2015-05-03T07:09:17Z</time>
      </trkpt>
      <trkpt lat="43.57396" lon="3.31522">
        <ele>340</ele>
        <time>2015-05-03T07:09:32Z</time>
      </trkpt>
      <trkpt lat="43.57384" lon="3.31545">
        <ele>340</ele>
        <time>2015-05-03T07:09:45Z</time>
      </trkpt>
      <trkpt lat="43.57378" lon="3.31561">
        <ele>341</ele>
        <time>2015-05-03T07:10:00Z</time>
      </trkpt>
      <trkpt lat="43.57368" lon="3.31597">
        <ele>345</ele>
        <time>2015-05-03T07:10:15Z</time>
      </trkpt>
      <trkpt lat="43.5738" lon="3.31645">
        <ele>347</ele>
        <time>2015-05-03T07:10:31Z</time>
      </trkpt>
      <trkpt lat="43.57389" lon="3.31688">
        <ele>347</ele>
        <time>2015-05-03T07:10:49Z</time>
      </trkpt>
      <trkpt lat="43.57388" lon="3.31746">
        <ele>345</ele>
        <time>2015-05-03T07:11:04Z</time>
      </trkpt>
      <trkpt lat="43.57414" lon="3.31806">
        <ele>339</ele>
        <time>2015-05-03T07:11:14Z</time>
      </trkpt>
      <trkpt lat="43.57423" lon="3.31831">
        <ele>338</ele>
        <time>2015-05-03T07:11:17Z</time>
      </trkpt>
      <trkpt lat="43.57444" lon="3.31852">
        <ele>329</ele>
        <time>2015-05-03T07:11:22Z</time>
      </trkpt>
      <trkpt lat="43.57461" lon="3.31839">
        <ele>328</ele>
        <time>2015-05-03T07:11:25Z</time>
      </trkpt>
      <trkpt lat="43.57507" lon="3.31771">
        <ele>330</ele>
        <time>2015-05-03T07:11:36Z</time>
      </trkpt>
      <trkpt lat="43.57546" lon="3.31706">
        <ele>335</ele>
        <time>2015-05-03T07:11:43Z</time>
      </trkpt>
      <trkpt lat="43.57564" lon="3.31678">
        <ele>334</ele>
        <time>2015-05-03T07:11:47Z</time>
      </trkpt>
      <trkpt lat="43.57567" lon="3.31673">
        <ele>333</ele>
        <time>2015-05-03T07:11:49Z</time>
      </trkpt>
      <trkpt lat="43.5757" lon="3.31666">
        <ele>338</ele>
        <time>2015-05-03T07:12:01Z</time>
      </trkpt>
      <trkpt lat="43.57574" lon="3.31657">
        <ele>338</ele>
        <time>2015-05-03T07:12:05Z</time>
      </trkpt>
      <trkpt lat="43.57578" lon="3.31671">
        <ele>332</ele>
        <time>2015-05-03T07:12:11Z</time>
      </trkpt>
      <trkpt lat="43.57573" lon="3.31679">
        <ele>333</ele>
        <time>2015-05-03T07:12:13Z</time>
      </trkpt>
      <trkpt lat="43.57567" lon="3.31692">
        <ele>333</ele>
        <time>2015-05-03T07:12:15Z</time>
      </trkpt>
      <trkpt lat="43.57545" lon="3.3176">
        <ele>326</ele>
        <time>2015-05-03T07:12:22Z</time>
      </trkpt>
      <trkpt lat="43.57543" lon="3.31771">
        <ele>326</ele>
        <time>2015-05-03T07:12:23Z</time>
      </trkpt>
      <trkpt lat="43.57531" lon="3.31841">
        <ele>319</ele>
        <time>2015-05-03T07:12:29Z</time>
      </trkpt>
      <trkpt lat="43.57522" lon="3.31893">
        <ele>317</ele>
        <time>2015-05-03T07:12:33Z</time>
      </trkpt>
      <trkpt lat="43.57513" lon="3.31956">
        <ele>311</ele>
        <time>2015-05-03T07:12:38Z</time>
      </trkpt>
      <trkpt lat="43.57514" lon="3.32013">
        <ele>306</ele>
        <time>2015-05-03T07:12:43Z</time>
      </trkpt>
      <trkpt lat="43.57515" lon="3.32021">
        <ele>305</ele>
        <time>2015-05-03T07:12:44Z</time>
      </trkpt>
      <trkpt lat="43.5752" lon="3.32046">
        <ele>304</ele>
        <time>2015-05-03T07:12:48Z</time>
      </trkpt>
      <trkpt lat="43.57521" lon="3.32051">
        <ele>304</ele>
        <time>2015-05-03T07:12:49Z</time>
      </trkpt>
      <trkpt lat="43.57522" lon="3.32058">
        <ele>304</ele>
        <time>2015-05-03T07:12:51Z</time>
      </trkpt>
      <trkpt lat="43.5753" lon="3.32106">
        <ele>298</ele>
        <time>2015-05-03T07:13:04Z</time>
      </trkpt>
      <trkpt lat="43.57525" lon="3.32147">
        <ele>296</ele>
        <time>2015-05-03T07:13:13Z</time>
      </trkpt>
      <trkpt lat="43.57521" lon="3.32161">
        <ele>295</ele>
        <time>2015-05-03T07:13:15Z</time>
      </trkpt>
      <trkpt lat="43.57505" lon="3.32199">
        <ele>286</ele>
        <time>2015-05-03T07:13:20Z</time>
      </trkpt>
      <trkpt lat="43.57485" lon="3.32224">
        <ele>291</ele>
        <time>2015-05-03T07:13:24Z</time>
      </trkpt>
      <trkpt lat="43.57469" lon="3.32236">
        <ele>292</ele>
        <time>2015-05-03T07:13:28Z</time>
      </trkpt>
      <trkpt lat="43.57466" lon="3.32239">
        <ele>292</ele>
        <time>2015-05-03T07:13:39Z</time>
      </trkpt>
      <trkpt lat="43.57469" lon="3.32233">
        <ele>292</ele>
        <time>2015-05-03T07:14:02Z</time>
      </trkpt>
      <trkpt lat="43.57464" lon="3.32232">
        <ele>293</ele>
        <time>2015-05-03T07:14:16Z</time>
      </trkpt>
      <trkpt lat="43.57467" lon="3.32233">
        <ele>293</ele>
        <time>2015-05-03T07:14:33Z</time>
      </trkpt>
      <trkpt lat="43.57467" lon="3.32232">
        <ele>293</ele>
        <time>2015-05-03T07:14:46Z</time>
      </trkpt>
      <trkpt lat="43.57471" lon="3.32232">
        <ele>292</ele>
        <time>2015-05-03T07:14:59Z</time>
      </trkpt>
      <trkpt lat="43.57495" lon="3.32206">
        <ele>294</ele>
        <time>2015-05-03T07:15:15Z</time>
      </trkpt>
      <trkpt lat="43.57502" lon="3.32192">
        <ele>287</ele>
        <time>2015-05-03T07:15:24Z</time>
      </trkpt>
      <trkpt lat="43.57501" lon="3.32185">
        <ele>289</ele>
        <time>2015-05-03T07:15:30Z</time>
      </trkpt>
      <trkpt lat="43.57488" lon="3.32198">
        <ele>295</ele>
        <time>2015-05-03T07:15:42Z</time>
      </trkpt>
      <trkpt lat="43.57487" lon="3.32199">
        <ele>295</ele>
        <time>2015-05-03T07:15:43Z</time>
      </trkpt>
      <trkpt lat="43.57475" lon="3.32205">
        <ele>295</ele>
        <time>2015-05-03T07:15:53Z</time>
      </trkpt>
      <trkpt lat="43.57449" lon="3.32213">
        <ele>297</ele>
        <time>2015-05-03T07:16:07Z</time>
      </trkpt>
      <trkpt lat="43.57421" lon="3.3222">
        <ele>297</ele>
        <time>2015-05-03T07:16:23Z</time>
      </trkpt>
      <trkpt lat="43.57401" lon="3.32216">
        <ele>302</ele>
        <time>2015-05-03T07:16:37Z</time>
      </trkpt>
      <trkpt lat="43.57388" lon="3.32216">
        <ele>302</ele>
        <time>2015-05-03T07:16:47Z</time>
      </trkpt>
      <trkpt lat="43.57378" lon="3.32219">
        <ele>302</ele>
        <time>2015-05-03T07:16:52Z</time>
      </trkpt>
      <trkpt lat="43.57346" lon="3.32234">
        <ele>299</ele>
        <time>2015-05-03T07:17:05Z</time>
      </trkpt>
      <trkpt lat="43.57343" lon="3.32236">
        <ele>299</ele>
        <time>2015-05-03T07:17:06Z</time>
      </trkpt>
      <trkpt lat="43.57323" lon="3.32234">
        <ele>295</ele>
        <time>2015-05-03T07:17:10Z</time>
      </trkpt>
      <trkpt lat="43.57308" lon="3.32229">
        <ele>294</ele>
        <time>2015-05-03T07:17:13Z</time>
      </trkpt>
      <trkpt lat="43.57298" lon="3.32227">
        <ele>294</ele>
        <time>2015-05-03T07:17:15Z</time>
      </trkpt>
      <trkpt lat="43.5729" lon="3.32226">
        <ele>293</ele>
        <time>2015-05-03T07:17:17Z</time>
      </trkpt>
      <trkpt lat="43.57277" lon="3.3222">
        <ele>292</ele>
        <time>2015-05-03T07:17:28Z</time>
      </trkpt>
      <trkpt lat="43.5728" lon="3.32224">
        <ele>292</ele>
        <time>2015-05-03T07:17:41Z</time>
      </trkpt>
      <trkpt lat="43.57276" lon="3.32225">
        <ele>292</ele>
        <time>2015-05-03T07:17:57Z</time>
      </trkpt>
      <trkpt lat="43.57274" lon="3.32224">
        <ele>292</ele>
        <time>2015-05-03T07:17:59Z</time>
      </trkpt>
      <trkpt lat="43.57264" lon="3.32227">
        <ele>291</ele>
        <time>2015-05-03T07:18:05Z</time>
      </trkpt>
      <trkpt lat="43.5725" lon="3.32228">
        <ele>290</ele>
        <time>2015-05-03T07:18:11Z</time>
      </trkpt>
      <trkpt lat="43.57246" lon="3.3223">
        <ele>282</ele>
        <time>2015-05-03T07:18:13Z</time>
      </trkpt>
      <trkpt lat="43.5724" lon="3.32231">
        <ele>281</ele>
        <time>2015-05-03T07:18:16Z</time>
      </trkpt>
      <trkpt lat="43.57225" lon="3.32235">
        <ele>280</ele>
        <time>2015-05-03T07:18:22Z</time>
      </trkpt>
      <trkpt lat="43.57213" lon="3.3224">
        <ele>279</ele>
        <time>2015-05-03T07:18:28Z</time>
      </trkpt>
      <trkpt lat="43.57204" lon="3.32241">
        <ele>278</ele>
        <time>2015-05-03T07:18:33Z</time>
      </trkpt>
      <trkpt lat="43.57199" lon="3.32239">
        <ele>277</ele>
        <time>2015-05-03T07:18:36Z</time>
      </trkpt>
      <trkpt lat="43.57189" lon="3.32238">
        <ele>276</ele>
        <time>2015-05-03T07:18:40Z</time>
      </trkpt>
      <trkpt lat="43.57178" lon="3.32237">
        <ele>274</ele>
        <time>2015-05-03T07:18:59Z</time>
      </trkpt>
      <trkpt lat="43.57173" lon="3.32234">
        <ele>274</ele>
        <time>2015-05-03T07:19:10Z</time>
      </trkpt>
      <trkpt lat="43.57166" lon="3.32235">
        <ele>267</ele>
        <time>2015-05-03T07:19:25Z</time>
      </trkpt>
      <trkpt lat="43.57164" lon="3.32236">
        <ele>267</ele>
        <time>2015-05-03T07:19:28Z</time>
      </trkpt>
      <trkpt lat="43.5715" lon="3.32241">
        <ele>266</ele>
        <time>2015-05-03T07:19:35Z</time>
      </trkpt>
      <trkpt lat="43.57131" lon="3.32253">
        <ele>261</ele>
        <time>2015-05-03T07:19:41Z</time>
      </trkpt>
      <trkpt lat="43.57126" lon="3.32255">
        <ele>260</ele>
        <time>2015-05-03T07:19:42Z</time>
      </trkpt>
      <trkpt lat="43.57116" lon="3.32262">
        <ele>258</ele>
        <time>2015-05-03T07:19:45Z</time>
      </trkpt>
      <trkpt lat="43.571" lon="3.32268">
        <ele>256</ele>
        <time>2015-05-03T07:19:50Z</time>
      </trkpt>
      <trkpt lat="43.57082" lon="3.32276">
        <ele>249</ele>
        <time>2015-05-03T07:19:55Z</time>
      </trkpt>
      <trkpt lat="43.57062" lon="3.32285">
        <ele>248</ele>
        <time>2015-05-03T07:20:03Z</time>
      </trkpt>
      <trkpt lat="43.57048" lon="3.32294">
        <ele>247</ele>
        <time>2015-05-03T07:20:07Z</time>
      </trkpt>
      <trkpt lat="43.57011" lon="3.32318">
        <ele>244</ele>
        <time>2015-05-03T07:20:16Z</time>
      </trkpt>
      <trkpt lat="43.57007" lon="3.32319">
        <ele>244</ele>
        <time>2015-05-03T07:20:17Z</time>
      </trkpt>
      <trkpt lat="43.56994" lon="3.32326">
        <ele>240</ele>
        <time>2015-05-03T07:20:22Z</time>
      </trkpt>
      <trkpt lat="43.56987" lon="3.32331">
        <ele>239</ele>
        <time>2015-05-03T07:20:25Z</time>
      </trkpt>
      <trkpt lat="43.56985" lon="3.32332">
        <ele>239</ele>
        <time>2015-05-03T07:20:26Z</time>
      </trkpt>
      <trkpt lat="43.56978" lon="3.32336">
        <ele>235</ele>
        <time>2015-05-03T07:20:28Z</time>
      </trkpt>
      <trkpt lat="43.56964" lon="3.32347">
        <ele>233</ele>
        <time>2015-05-03T07:20:34Z</time>
      </trkpt>
      <trkpt lat="43.56962" lon="3.32349">
        <ele>233</ele>
        <time>2015-05-03T07:20:35Z</time>
      </trkpt>
      <trkpt lat="43.56956" lon="3.3236">
        <ele>232</ele>
        <time>2015-05-03T07:20:48Z</time>
      </trkpt>
      <trkpt lat="43.56948" lon="3.32369">
        <ele>231</ele>
        <time>2015-05-03T07:21:04Z</time>
      </trkpt>
      <trkpt lat="43.5694" lon="3.32376">
        <ele>230</ele>
        <time>2015-05-03T07:21:15Z</time>
      </trkpt>
      <trkpt lat="43.56931" lon="3.32381">
        <ele>229</ele>
        <time>2015-05-03T07:21:28Z</time>
      </trkpt>
      <trkpt lat="43.56916" lon="3.32399">
        <ele>223</ele>
        <time>2015-05-03T07:21:42Z</time>
      </trkpt>
      <trkpt lat="43.56907" lon="3.32407">
        <ele>223</ele>
        <time>2015-05-03T07:21:46Z</time>
      </trkpt>
      <trkpt lat="43.56887" lon="3.32417">
        <ele>217</ele>
        <time>2015-05-03T07:21:53Z</time>
      </trkpt>
      <trkpt lat="43.5688" lon="3.32427">
        <ele>216</ele>
        <time>2015-05-03T07:22:06Z</time>
      </trkpt>
      <trkpt lat="43.56876" lon="3.32429">
        <ele>215</ele>
        <time>2015-05-03T07:22:31Z</time>
      </trkpt>
      <trkpt lat="43.56878" lon="3.32431">
        <ele>215</ele>
        <time>2015-05-03T07:23:06Z</time>
      </trkpt>
      <trkpt lat="43.56881" lon="3.32429">
        <ele>216</ele>
        <time>2015-05-03T07:23:31Z</time>
      </trkpt>
      <trkpt lat="43.5689" lon="3.3244">
        <ele>216</ele>
        <time>2015-05-03T07:23:42Z</time>
      </trkpt>
      <trkpt lat="43.56897" lon="3.32448">
        <ele>215</ele>
        <time>2015-05-03T07:23:46Z</time>
      </trkpt>
      <trkpt lat="43.56914" lon="3.32465">
        <ele>213</ele>
        <time>2015-05-03T07:23:54Z</time>
      </trkpt>
      <trkpt lat="43.56918" lon="3.32468">
        <ele>215</ele>
        <time>2015-05-03T07:23:56Z</time>
      </trkpt>
      <trkpt lat="43.56926" lon="3.32471">
        <ele>215</ele>
        <time>2015-05-03T07:23:59Z</time>
      </trkpt>
      <trkpt lat="43.56937" lon="3.32475">
        <ele>215</ele>
        <time>2015-05-03T07:24:03Z</time>
      </trkpt>
      <trkpt lat="43.56947" lon="3.32483">
        <ele>214</ele>
        <time>2015-05-03T07:24:14Z</time>
      </trkpt>
      <trkpt lat="43.56955" lon="3.32485">
        <ele>214</ele>
        <time>2015-05-03T07:24:29Z</time>
      </trkpt>
      <trkpt lat="43.56961" lon="3.32488">
        <ele>214</ele>
        <time>2015-05-03T07:24:33Z</time>
      </trkpt>
      <trkpt lat="43.56972" lon="3.32492">
        <ele>214</ele>
        <time>2015-05-03T07:24:38Z</time>
      </trkpt>
      <trkpt lat="43.5698" lon="3.32493">
        <ele>213</ele>
        <time>2015-05-03T07:24:41Z</time>
      </trkpt>
      <trkpt lat="43.56995" lon="3.32495">
        <ele>210</ele>
        <time>2015-05-03T07:24:58Z</time>
      </trkpt>
      <trkpt lat="43.57007" lon="3.32498">
        <ele>210</ele>
        <time>2015-05-03T07:25:17Z</time>
      </trkpt>
      <trkpt lat="43.57018" lon="3.32506">
        <ele>209</ele>
        <time>2015-05-03T07:25:33Z</time>
      </trkpt>
      <trkpt lat="43.57019" lon="3.32515">
        <ele>209</ele>
        <time>2015-05-03T07:25:53Z</time>
      </trkpt>
      <trkpt lat="43.57018" lon="3.32519">
        <ele>209</ele>
        <time>2015-05-03T07:26:00Z</time>
      </trkpt>
      <trkpt lat="43.57013" lon="3.32528">
        <ele>209</ele>
        <time>2015-05-03T07:26:06Z</time>
      </trkpt>
      <trkpt lat="43.56992" lon="3.32554">
        <ele>205</ele>
        <time>2015-05-03T07:26:22Z</time>
      </trkpt>
      <trkpt lat="43.56972" lon="3.3257">
        <ele>205</ele>
        <time>2015-05-03T07:26:36Z</time>
      </trkpt>
      <trkpt lat="43.56947" lon="3.32589">
        <ele>209</ele>
        <time>2015-05-03T07:26:54Z</time>
      </trkpt>
      <trkpt lat="43.56946" lon="3.3259">
        <ele>209</ele>
        <time>2015-05-03T07:26:55Z</time>
      </trkpt>
      <trkpt lat="43.56945" lon="3.32593">
        <ele>209</ele>
        <time>2015-05-03T07:26:57Z</time>
      </trkpt>
      <trkpt lat="43.56953" lon="3.32592">
        <ele>210</ele>
        <time>2015-05-03T07:27:03Z</time>
      </trkpt>
      <trkpt lat="43.56974" lon="3.32589">
        <ele>210</ele>
        <time>2015-05-03T07:27:21Z</time>
      </trkpt>
      <trkpt lat="43.56993" lon="3.3258">
        <ele>206</ele>
        <time>2015-05-03T07:27:37Z</time>
      </trkpt>
      <trkpt lat="43.57007" lon="3.32581">
        <ele>207</ele>
        <time>2015-05-03T07:27:48Z</time>
      </trkpt>
      <trkpt lat="43.57022" lon="3.3259">
        <ele>215</ele>
        <time>2015-05-03T07:28:02Z</time>
      </trkpt>
      <trkpt lat="43.57037" lon="3.32602">
        <ele>219</ele>
        <time>2015-05-03T07:28:17Z</time>
      </trkpt>
      <trkpt lat="43.5705" lon="3.32613">
        <ele>221</ele>
        <time>2015-05-03T07:28:30Z</time>
      </trkpt>
      <trkpt lat="43.57056" lon="3.32606">
        <ele>220</ele>
        <time>2015-05-03T07:28:40Z</time>
      </trkpt>
      <trkpt lat="43.57056" lon="3.32599">
        <ele>220</ele>
        <time>2015-05-03T07:28:44Z</time>
      </trkpt>
      <trkpt lat="43.57057" lon="3.32591">
        <ele>219</ele>
        <time>2015-05-03T07:28:49Z</time>
      </trkpt>
      <trkpt lat="43.5707" lon="3.3257">
        <ele>214</ele>
        <time>2015-05-03T07:29:07Z</time>
      </trkpt>
      <trkpt lat="43.57089" lon="3.32563">
        <ele>220</ele>
        <time>2015-05-03T07:29:22Z</time>
      </trkpt>
      <trkpt lat="43.5711" lon="3.32553">
        <ele>222</ele>
        <time>2015-05-03T07:29:39Z</time>
      </trkpt>
      <trkpt lat="43.57132" lon="3.32542">
        <ele>223</ele>
        <time>2015-05-03T07:29:58Z</time>
      </trkpt>
      <trkpt lat="43.57159" lon="3.32534">
        <ele>224</ele>
        <time>2015-05-03T07:30:18Z</time>
      </trkpt>
      <trkpt lat="43.57168" lon="3.3253">
        <ele>233</ele>
        <time>2015-05-03T07:30:26Z</time>
      </trkpt>
      <trkpt lat="43.57172" lon="3.32534">
        <ele>234</ele>
        <time>2015-05-03T07:30:31Z</time>
      </trkpt>
      <trkpt lat="43.57173" lon="3.32537">
        <ele>235</ele>
        <time>2015-05-03T07:30:33Z</time>
      </trkpt>
      <trkpt lat="43.57166" lon="3.32546">
        <ele>226</ele>
        <time>2015-05-03T07:30:40Z</time>
      </trkpt>
      <trkpt lat="43.57145" lon="3.32563">
        <ele>228</ele>
        <time>2015-05-03T07:30:58Z</time>
      </trkpt>
      <trkpt lat="43.5713" lon="3.3258">
        <ele>226</ele>
        <time>2015-05-03T07:31:15Z</time>
      </trkpt>
      <trkpt lat="43.57115" lon="3.32603">
        <ele>234</ele>
        <time>2015-05-03T07:31:33Z</time>
      </trkpt>
      <trkpt lat="43.57107" lon="3.32619">
        <ele>235</ele>
        <time>2015-05-03T07:31:43Z</time>
      </trkpt>
      <trkpt lat="43.57107" lon="3.32649">
        <ele>237</ele>
        <time>2015-05-03T07:31:59Z</time>
      </trkpt>
      <trkpt lat="43.57112" lon="3.32681">
        <ele>245</ele>
        <time>2015-05-03T07:32:16Z</time>
      </trkpt>
      <trkpt lat="43.57115" lon="3.32708">
        <ele>247</ele>
        <time>2015-05-03T07:32:31Z</time>
      </trkpt>
      <trkpt lat="43.57116" lon="3.32728">
        <ele>248</ele>
        <time>2015-05-03T07:32:41Z</time>
      </trkpt>
      <trkpt lat="43.57113" lon="3.32742">
        <ele>248</ele>
        <time>2015-05-03T07:32:47Z</time>
      </trkpt>
      <trkpt lat="43.57108" lon="3.32772">
        <ele>249</ele>
        <time>2015-05-03T07:33:02Z</time>
      </trkpt>
      <trkpt lat="43.57102" lon="3.32803">
        <ele>249</ele>
        <time>2015-05-03T07:33:17Z</time>
      </trkpt>
      <trkpt lat="43.57097" lon="3.32843">
        <ele>247</ele>
        <time>2015-05-03T07:33:36Z</time>
      </trkpt>
      <trkpt lat="43.57095" lon="3.32856">
        <ele>247</ele>
        <time>2015-05-03T07:33:44Z</time>
      </trkpt>
      <trkpt lat="43.57093" lon="3.32869">
        <ele>247</ele>
        <time>2015-05-03T07:33:51Z</time>
      </trkpt>
      <trkpt lat="43.57095" lon="3.32884">
        <ele>247</ele>
        <time>2015-05-03T07:33:58Z</time>
      </trkpt>
      <trkpt lat="43.57103" lon="3.32882">
        <ele>247</ele>
        <time>2015-05-03T07:34:05Z</time>
      </trkpt>
      <trkpt lat="43.57117" lon="3.3285">
        <ele>248</ele>
        <time>2015-05-03T07:34:24Z</time>
      </trkpt>
      <trkpt lat="43.57119" lon="3.32837">
        <ele>248</ele>
        <time>2015-05-03T07:34:32Z</time>
      </trkpt>
      <trkpt lat="43.5712" lon="3.3283">
        <ele>250</ele>
        <time>2015-05-03T07:34:36Z</time>
      </trkpt>
      <trkpt lat="43.57123" lon="3.32819">
        <ele>250</ele>
        <time>2015-05-03T07:34:42Z</time>
      </trkpt>
      <trkpt lat="43.57135" lon="3.3279">
        <ele>251</ele>
        <time>2015-05-03T07:35:00Z</time>
      </trkpt>
      <trkpt lat="43.57136" lon="3.32789">
        <ele>251</ele>
        <time>2015-05-03T07:35:01Z</time>
      </trkpt>
      <trkpt lat="43.57138" lon="3.32779">
        <ele>252</ele>
        <time>2015-05-03T07:35:08Z</time>
      </trkpt>
      <trkpt lat="43.57141" lon="3.32757">
        <ele>253</ele>
        <time>2015-05-03T07:35:24Z</time>
      </trkpt>
      <trkpt lat="43.57143" lon="3.32755">
        <ele>254</ele>
        <time>2015-05-03T07:35:27Z</time>
      </trkpt>
      <trkpt lat="43.5714" lon="3.32765">
        <ele>253</ele>
        <time>2015-05-03T07:35:35Z</time>
      </trkpt>
      <trkpt lat="43.57134" lon="3.32795">
        <ele>251</ele>
        <time>2015-05-03T07:35:46Z</time>
      </trkpt>
      <trkpt lat="43.57123" lon="3.32823">
        <ele>250</ele>
        <time>2015-05-03T07:35:57Z</time>
      </trkpt>
      <trkpt lat="43.57122" lon="3.32829">
        <ele>250</ele>
        <time>2015-05-03T07:36:12Z</time>
      </trkpt>
      <trkpt lat="43.57124" lon="3.32826">
        <ele>250</ele>
        <time>2015-05-03T07:36:36Z</time>
      </trkpt>
      <trkpt lat="43.57126" lon="3.32819">
        <ele>250</ele>
        <time>2015-05-03T07:36:53Z</time>
      </trkpt>
      <trkpt lat="43.57126" lon="3.32815">
        <ele>250</ele>
        <time>2015-05-03T07:37:15Z</time>
      </trkpt>
      <trkpt lat="43.57126" lon="3.32815">
        <ele>250</ele>
        <time>2015-05-03T07:37:16Z</time>
      </trkpt>
      <trkpt lat="43.57135" lon="3.32789">
        <ele>251</ele>
        <time>2015-05-03T07:37:31Z</time>
      </trkpt>
      <trkpt lat="43.57137" lon="3.32781">
        <ele>252</ele>
        <time>2015-05-03T07:37:36Z</time>
      </trkpt>
      <trkpt lat="43.57138" lon="3.32776">
        <ele>252</ele>
        <time>2015-05-03T07:37:40Z</time>
      </trkpt>
      <trkpt lat="43.57146" lon="3.32789">
        <ele>252</ele>
        <time>2015-05-03T07:37:48Z</time>
      </trkpt>
      <trkpt lat="43.57165" lon="3.32809">
        <ele>252</ele>
        <time>2015-05-03T07:38:01Z</time>
      </trkpt>
      <trkpt lat="43.57198" lon="3.32792">
        <ele>262</ele>
        <time>2015-05-03T07:38:14Z</time>
      </trkpt>
      <trkpt lat="43.57222" lon="3.32783">
        <ele>264</ele>
        <time>2015-05-03T07:38:21Z</time>
      </trkpt>
      <trkpt lat="43.57231" lon="3.32816">
        <ele>264</ele>
        <time>2015-05-03T07:38:29Z</time>
      </trkpt>
      <trkpt lat="43.57211" lon="3.32873">
        <ele>259</ele>
        <time>2015-05-03T07:38:41Z</time>
      </trkpt>
      <trkpt lat="43.57201" lon="3.32899">
        <ele>257</ele>
        <time>2015-05-03T07:38:46Z</time>
      </trkpt>
      <trkpt lat="43.57193" lon="3.32979">
        <ele>252</ele>
        <time>2015-05-03T07:38:57Z</time>
      </trkpt>
      <trkpt lat="43.57197" lon="3.33069">
        <ele>248</ele>
        <time>2015-05-03T07:39:12Z</time>
      </trkpt>
      <trkpt lat="43.57209" lon="3.3312">
        <ele>246</ele>
        <time>2015-05-03T07:39:25Z</time>
      </trkpt>
      <trkpt lat="43.57253" lon="3.33152">
        <ele>258</ele>
        <time>2015-05-03T07:39:40Z</time>
      </trkpt>
      <trkpt lat="43.5726" lon="3.33214">
        <ele>258</ele>
        <time>2015-05-03T07:39:54Z</time>
      </trkpt>
      <trkpt lat="43.57263" lon="3.33274">
        <ele>257</ele>
        <time>2015-05-03T07:40:03Z</time>
      </trkpt>
      <trkpt lat="43.57257" lon="3.33306">
        <ele>257</ele>
        <time>2015-05-03T07:40:07Z</time>
      </trkpt>
      <trkpt lat="43.57238" lon="3.33364">
        <ele>246</ele>
        <time>2015-05-03T07:40:19Z</time>
      </trkpt>
      <trkpt lat="43.5723" lon="3.33404">
        <ele>247</ele>
        <time>2015-05-03T07:40:26Z</time>
      </trkpt>
      <trkpt lat="43.57229" lon="3.33459">
        <ele>245</ele>
        <time>2015-05-03T07:40:35Z</time>
      </trkpt>
      <trkpt lat="43.57229" lon="3.33472">
        <ele>245</ele>
        <time>2015-05-03T07:40:37Z</time>
      </trkpt>
      <trkpt lat="43.57214" lon="3.33523">
        <ele>242</ele>
        <time>2015-05-03T07:40:43Z</time>
      </trkpt>
      <trkpt lat="43.57188" lon="3.33571">
        <ele>236</ele>
        <time>2015-05-03T07:40:48Z</time>
      </trkpt>
      <trkpt lat="43.57184" lon="3.33632">
        <ele>232</ele>
        <time>2015-05-03T07:40:53Z</time>
      </trkpt>
      <trkpt lat="43.572" lon="3.33691">
        <ele>225</ele>
        <time>2015-05-03T07:40:58Z</time>
      </trkpt>
      <trkpt lat="43.57225" lon="3.33755">
        <ele>218</ele>
        <time>2015-05-03T07:41:04Z</time>
      </trkpt>
      <trkpt lat="43.57246" lon="3.33797">
        <ele>215</ele>
        <time>2015-05-03T07:41:08Z</time>
      </trkpt>
      <trkpt lat="43.5725" lon="3.33807">
        <ele>221</ele>
        <time>2015-05-03T07:41:09Z</time>
      </trkpt>
      <trkpt lat="43.57266" lon="3.33844">
        <ele>214</ele>
        <time>2015-05-03T07:41:13Z</time>
      </trkpt>
      <trkpt lat="43.57261" lon="3.33893">
        <ele>213</ele>
        <time>2015-05-03T07:41:19Z</time>
      </trkpt>
      <trkpt lat="43.57244" lon="3.33904">
        <ele>209</ele>
        <time>2015-05-03T07:41:22Z</time>
      </trkpt>
      <trkpt lat="43.57218" lon="3.33917">
        <ele>209</ele>
        <time>2015-05-03T07:41:28Z</time>
      </trkpt>
      <trkpt lat="43.57207" lon="3.33921">
        <ele>212</ele>
        <time>2015-05-03T07:41:34Z</time>
      </trkpt>
      <trkpt lat="43.5717" lon="3.33936">
        <ele>213</ele>
        <time>2015-05-03T07:41:50Z</time>
      </trkpt>
      <trkpt lat="43.57135" lon="3.33943">
        <ele>216</ele>
        <time>2015-05-03T07:42:03Z</time>
      </trkpt>
      <trkpt lat="43.57101" lon="3.33948">
        <ele>216</ele>
        <time>2015-05-03T07:42:17Z</time>
      </trkpt>
      <trkpt lat="43.57063" lon="3.33969">
        <ele>213</ele>
        <time>2015-05-03T07:42:36Z</time>
      </trkpt>
      <trkpt lat="43.5703" lon="3.33997">
        <ele>211</ele>
        <time>2015-05-03T07:42:51Z</time>
      </trkpt>
      <trkpt lat="43.57013" lon="3.34037">
        <ele>221</ele>
        <time>2015-05-03T07:43:02Z</time>
      </trkpt>
      <trkpt lat="43.57006" lon="3.34063">
        <ele>221</ele>
        <time>2015-05-03T07:43:13Z</time>
      </trkpt>
      <trkpt lat="43.57005" lon="3.34101">
        <ele>226</ele>
        <time>2015-05-03T07:43:29Z</time>
      </trkpt>
      <trkpt lat="43.56997" lon="3.34141">
        <ele>212</ele>
        <time>2015-05-03T07:43:41Z</time>
      </trkpt>
      <trkpt lat="43.56998" lon="3.34166">
        <ele>220</ele>
        <time>2015-05-03T07:43:47Z</time>
      </trkpt>
      <trkpt lat="43.5699" lon="3.34215">
        <ele>212</ele>
        <time>2015-05-03T07:43:54Z</time>
      </trkpt>
      <trkpt lat="43.56986" lon="3.34254">
        <ele>216</ele>
        <time>2015-05-03T07:43:59Z</time>
      </trkpt>
      <trkpt lat="43.5698" lon="3.34281">
        <ele>213</ele>
        <time>2015-05-03T07:44:04Z</time>
      </trkpt>
      <trkpt lat="43.56975" lon="3.34298">
        <ele>212</ele>
        <time>2015-05-03T07:44:13Z</time>
      </trkpt>
      <trkpt lat="43.56976" lon="3.34309">
        <ele>213</ele>
        <time>2015-05-03T07:44:29Z</time>
      </trkpt>
      <trkpt lat="43.56979" lon="3.3431">
        <ele>213</ele>
        <time>2015-05-03T07:44:44Z</time>
      </trkpt>
      <trkpt lat="43.5698" lon="3.34313">
        <ele>213</ele>
        <time>2015-05-03T07:44:50Z</time>
      </trkpt>
      <trkpt lat="43.56984" lon="3.34324">
        <ele>215</ele>
        <time>2015-05-03T07:44:56Z</time>
      </trkpt>
      <trkpt lat="43.56997" lon="3.34348">
        <ele>219</ele>
        <time>2015-05-03T07:45:12Z</time>
      </trkpt>
      <trkpt lat="43.56998" lon="3.34354">
        <ele>218</ele>
        <time>2015-05-03T07:45:16Z</time>
      </trkpt>
      <trkpt lat="43.56992" lon="3.34384">
        <ele>219</ele>
        <time>2015-05-03T07:45:31Z</time>
      </trkpt>
      <trkpt lat="43.56991" lon="3.34391">
        <ele>219</ele>
        <time>2015-05-03T07:45:35Z</time>
      </trkpt>
      <trkpt lat="43.56982" lon="3.34417">
        <ele>224</ele>
        <time>2015-05-03T07:45:51Z</time>
      </trkpt>
      <trkpt lat="43.56962" lon="3.34429">
        <ele>221</ele>
        <time>2015-05-03T07:46:07Z</time>
      </trkpt>
      <trkpt lat="43.56943" lon="3.34441">
        <ele>220</ele>
        <time>2015-05-03T07:46:23Z</time>
      </trkpt>
      <trkpt lat="43.56944" lon="3.34448">
        <ele>220</ele>
        <time>2015-05-03T07:46:27Z</time>
      </trkpt>
      <trkpt lat="43.56937" lon="3.34488">
        <ele>220</ele>
        <time>2015-05-03T07:46:43Z</time>
      </trkpt>
      <trkpt lat="43.56929" lon="3.34526">
        <ele>222</ele>
        <time>2015-05-03T07:46:59Z</time>
      </trkpt>
      <trkpt lat="43.56925" lon="3.34562">
        <ele>225</ele>
        <time>2015-05-03T07:47:14Z</time>
      </trkpt>
      <trkpt lat="43.56938" lon="3.34558">
        <ele>224</ele>
        <time>2015-05-03T07:47:24Z</time>
      </trkpt>
      <trkpt lat="43.56929" lon="3.34565">
        <ele>225</ele>
        <time>2015-05-03T07:47:33Z</time>
      </trkpt>
      <trkpt lat="43.5693" lon="3.34566">
        <ele>225</ele>
        <time>2015-05-03T07:47:34Z</time>
      </trkpt>
      <trkpt lat="43.56948" lon="3.34563">
        <ele>224</ele>
        <time>2015-05-03T07:47:46Z</time>
      </trkpt>
      <trkpt lat="43.56952" lon="3.34563">
        <ele>224</ele>
        <time>2015-05-03T07:48:04Z</time>
      </trkpt>
      <trkpt lat="43.56935" lon="3.34565">
        <ele>224</ele>
        <time>2015-05-03T07:48:22Z</time>
      </trkpt>
      <trkpt lat="43.56928" lon="3.34567">
        <ele>225</ele>
        <time>2015-05-03T07:48:30Z</time>
      </trkpt>
      <trkpt lat="43.56922" lon="3.34571">
        <ele>225</ele>
        <time>2015-05-03T07:48:45Z</time>
      </trkpt>
      <trkpt lat="43.56914" lon="3.34576">
        <ele>225</ele>
        <time>2015-05-03T07:48:52Z</time>
      </trkpt>
      <trkpt lat="43.56912" lon="3.34579">
        <ele>225</ele>
        <time>2015-05-03T07:48:55Z</time>
      </trkpt>
      <trkpt lat="43.56914" lon="3.34587">
        <ele>228</ele>
        <time>2015-05-03T07:49:00Z</time>
      </trkpt>
      <trkpt lat="43.5692" lon="3.34607">
        <ele>226</ele>
        <time>2015-05-03T07:49:11Z</time>
      </trkpt>
      <trkpt lat="43.56921" lon="3.34613">
        <ele>226</ele>
        <time>2015-05-03T07:49:14Z</time>
      </trkpt>
      <trkpt lat="43.56917" lon="3.34625">
        <ele>227</ele>
        <time>2015-05-03T07:49:20Z</time>
      </trkpt>
      <trkpt lat="43.56918" lon="3.34643">
        <ele>229</ele>
        <time>2015-05-03T07:49:29Z</time>
      </trkpt>
      <trkpt lat="43.56918" lon="3.34647">
        <ele>230</ele>
        <time>2015-05-03T07:49:31Z</time>
      </trkpt>
      <trkpt lat="43.56928" lon="3.34676">
        <ele>233</ele>
        <time>2015-05-03T07:49:48Z</time>
      </trkpt>
      <trkpt lat="43.56931" lon="3.34685">
        <ele>232</ele>
        <time>2015-05-03T07:49:53Z</time>
      </trkpt>
      <trkpt lat="43.56934" lon="3.34696">
        <ele>231</ele>
        <time>2015-05-03T07:50:06Z</time>
      </trkpt>
      <trkpt lat="43.56935" lon="3.34701">
        <ele>231</ele>
        <time>2015-05-03T07:50:22Z</time>
      </trkpt>
      <trkpt lat="43.56937" lon="3.34711">
        <ele>232</ele>
        <time>2015-05-03T07:50:36Z</time>
      </trkpt>
      <trkpt lat="43.56938" lon="3.34728">
        <ele>234</ele>
        <time>2015-05-03T07:50:49Z</time>
      </trkpt>
      <trkpt lat="43.56938" lon="3.34741">
        <ele>236</ele>
        <time>2015-05-03T07:51:05Z</time>
      </trkpt>
      <trkpt lat="43.56939" lon="3.34747">
        <ele>236</ele>
        <time>2015-05-03T07:51:08Z</time>
      </trkpt>
      <trkpt lat="43.56936" lon="3.3477">
        <ele>236</ele>
        <time>2015-05-03T07:51:20Z</time>
      </trkpt>
      <trkpt lat="43.56936" lon="3.34772">
        <ele>236</ele>
        <time>2015-05-03T07:51:21Z</time>
      </trkpt>
      <trkpt lat="43.56934" lon="3.34779">
        <ele>236</ele>
        <time>2015-05-03T07:51:25Z</time>
      </trkpt>
      <trkpt lat="43.56935" lon="3.34822">
        <ele>237</ele>
        <time>2015-05-03T07:51:36Z</time>
      </trkpt>
      <trkpt lat="43.5694" lon="3.34849">
        <ele>236</ele>
        <time>2015-05-03T07:51:45Z</time>
      </trkpt>
      <trkpt lat="43.56943" lon="3.34867">
        <ele>234</ele>
        <time>2015-05-03T07:51:49Z</time>
      </trkpt>
      <trkpt lat="43.56943" lon="3.34875">
        <ele>234</ele>
        <time>2015-05-03T07:51:52Z</time>
      </trkpt>
      <trkpt lat="43.56951" lon="3.34882">
        <ele>232</ele>
        <time>2015-05-03T07:51:57Z</time>
      </trkpt>
      <trkpt lat="43.56953" lon="3.34884">
        <ele>232</ele>
        <time>2015-05-03T07:51:58Z</time>
      </trkpt>
      <trkpt lat="43.56963" lon="3.34922">
        <ele>227</ele>
        <time>2015-05-03T07:52:07Z</time>
      </trkpt>
      <trkpt lat="43.56971" lon="3.34954">
        <ele>224</ele>
        <time>2015-05-03T07:52:15Z</time>
      </trkpt>
      <trkpt lat="43.56974" lon="3.34969">
        <ele>223</ele>
        <time>2015-05-03T07:52:18Z</time>
      </trkpt>
      <trkpt lat="43.56974" lon="3.34986">
        <ele>221</ele>
        <time>2015-05-03T07:52:21Z</time>
      </trkpt>
      <trkpt lat="43.56972" lon="3.34998">
        <ele>221</ele>
        <time>2015-05-03T07:52:24Z</time>
      </trkpt>
      <trkpt lat="43.56969" lon="3.35022">
        <ele>213</ele>
        <time>2015-05-03T07:52:29Z</time>
      </trkpt>
      <trkpt lat="43.56965" lon="3.35034">
        <ele>213</ele>
        <time>2015-05-03T07:52:31Z</time>
      </trkpt>
      <trkpt lat="43.56955" lon="3.35064">
        <ele>211</ele>
        <time>2015-05-03T07:52:37Z</time>
      </trkpt>
      <trkpt lat="43.56953" lon="3.35081">
        <ele>210</ele>
        <time>2015-05-03T07:52:43Z</time>
      </trkpt>
      <trkpt lat="43.56951" lon="3.35087">
        <ele>204</ele>
        <time>2015-05-03T07:52:45Z</time>
      </trkpt>
      <trkpt lat="43.56969" lon="3.3511">
        <ele>203</ele>
        <time>2015-05-03T07:52:55Z</time>
      </trkpt>
      <trkpt lat="43.56987" lon="3.35111">
        <ele>202</ele>
        <time>2015-05-03T07:53:02Z</time>
      </trkpt>
      <trkpt lat="43.57009" lon="3.3514">
        <ele>196</ele>
        <time>2015-05-03T07:53:13Z</time>
      </trkpt>
      <trkpt lat="43.57033" lon="3.35169">
        <ele>200</ele>
        <time>2015-05-03T07:53:20Z</time>
      </trkpt>
      <trkpt lat="43.57057" lon="3.35189">
        <ele>198</ele>
        <time>2015-05-03T07:53:26Z</time>
      </trkpt>
      <trkpt lat="43.57069" lon="3.35194">
        <ele>197</ele>
        <time>2015-05-03T07:53:31Z</time>
      </trkpt>
      <trkpt lat="43.57071" lon="3.35195">
        <ele>197</ele>
        <time>2015-05-03T07:53:32Z</time>
      </trkpt>
      <trkpt lat="43.57079" lon="3.35199">
        <ele>197</ele>
        <time>2015-05-03T07:53:45Z</time>
      </trkpt>
      <trkpt lat="43.57085" lon="3.352">
        <ele>188</ele>
        <time>2015-05-03T07:53:56Z</time>
      </trkpt>
      <trkpt lat="43.57101" lon="3.35216">
        <ele>189</ele>
        <time>2015-05-03T07:54:04Z</time>
      </trkpt>
      <trkpt lat="43.57104" lon="3.35219">
        <ele>190</ele>
        <time>2015-05-03T07:54:05Z</time>
      </trkpt>
      <trkpt lat="43.57117" lon="3.35234">
        <ele>190</ele>
        <time>2015-05-03T07:54:09Z</time>
      </trkpt>
      <trkpt lat="43.57143" lon="3.35255">
        <ele>191</ele>
        <time>2015-05-03T07:54:19Z</time>
      </trkpt>
      <trkpt lat="43.57157" lon="3.35272">
        <ele>190</ele>
        <time>2015-05-03T07:54:25Z</time>
      </trkpt>
      <trkpt lat="43.57164" lon="3.35283">
        <ele>191</ele>
        <time>2015-05-03T07:54:30Z</time>
      </trkpt>
      <trkpt lat="43.57172" lon="3.35297">
        <ele>178</ele>
        <time>2015-05-03T07:54:42Z</time>
      </trkpt>
      <trkpt lat="43.57178" lon="3.35309">
        <ele>178</ele>
        <time>2015-05-03T07:54:55Z</time>
      </trkpt>
      <trkpt lat="43.57181" lon="3.35322">
        <ele>179</ele>
        <time>2015-05-03T07:55:11Z</time>
      </trkpt>
      <trkpt lat="43.57188" lon="3.35323">
        <ele>178</ele>
        <time>2015-05-03T07:55:26Z</time>
      </trkpt>
      <trkpt lat="43.57188" lon="3.35326">
        <ele>178</ele>
        <time>2015-05-03T07:55:45Z</time>
      </trkpt>
      <trkpt lat="43.57199" lon="3.35343">
        <ele>175</ele>
        <time>2015-05-03T07:55:55Z</time>
      </trkpt>
      <trkpt lat="43.572" lon="3.35345">
        <ele>174</ele>
        <time>2015-05-03T07:55:56Z</time>
      </trkpt>
      <trkpt lat="43.57212" lon="3.35374">
        <ele>172</ele>
        <time>2015-05-03T07:56:05Z</time>
      </trkpt>
      <trkpt lat="43.57217" lon="3.35386">
        <ele>171</ele>
        <time>2015-05-03T07:56:08Z</time>
      </trkpt>
      <trkpt lat="43.57224" lon="3.35403">
        <ele>169</ele>
        <time>2015-05-03T07:56:12Z</time>
      </trkpt>
      <trkpt lat="43.57224" lon="3.35422">
        <ele>170</ele>
        <time>2015-05-03T07:56:18Z</time>
      </trkpt>
      <trkpt lat="43.57233" lon="3.3543">
        <ele>169</ele>
        <time>2015-05-03T07:56:21Z</time>
      </trkpt>
      <trkpt lat="43.57267" lon="3.35454">
        <ele>161</ele>
        <time>2015-05-03T07:56:29Z</time>
      </trkpt>
      <trkpt lat="43.57314" lon="3.35466">
        <ele>158</ele>
        <time>2015-05-03T07:56:42Z</time>
      </trkpt>
      <trkpt lat="43.57343" lon="3.35468">
        <ele>149</ele>
        <time>2015-05-03T07:56:50Z</time>
      </trkpt>
      <trkpt lat="43.57347" lon="3.35467">
        <ele>149</ele>
        <time>2015-05-03T07:56:51Z</time>
      </trkpt>
      <trkpt lat="43.57379" lon="3.35472">
        <ele>146</ele>
        <time>2015-05-03T07:57:02Z</time>
      </trkpt>
      <trkpt lat="43.574" lon="3.35477">
        <ele>144</ele>
        <time>2015-05-03T07:57:10Z</time>
      </trkpt>
      <trkpt lat="43.57428" lon="3.35497">
        <ele>139</ele>
        <time>2015-05-03T07:57:20Z</time>
      </trkpt>
      <trkpt lat="43.5744" lon="3.35506">
        <ele>139</ele>
        <time>2015-05-03T07:57:26Z</time>
      </trkpt>
      <trkpt lat="43.57454" lon="3.35525">
        <ele>138</ele>
        <time>2015-05-03T07:57:34Z</time>
      </trkpt>
      <trkpt lat="43.57458" lon="3.35534">
        <ele>137</ele>
        <time>2015-05-03T07:57:37Z</time>
      </trkpt>
      <trkpt lat="43.57473" lon="3.3555">
        <ele>136</ele>
        <time>2015-05-03T07:57:48Z</time>
      </trkpt>
      <trkpt lat="43.57475" lon="3.35552">
        <ele>136</ele>
        <time>2015-05-03T07:57:49Z</time>
      </trkpt>
      <trkpt lat="43.57482" lon="3.35564">
        <ele>134</ele>
        <time>2015-05-03T07:58:01Z</time>
      </trkpt>
      <trkpt lat="43.57485" lon="3.35558">
        <ele>134</ele>
        <time>2015-05-03T07:58:16Z</time>
      </trkpt>
      <trkpt lat="43.57487" lon="3.35557">
        <ele>134</ele>
        <time>2015-05-03T07:58:39Z</time>
      </trkpt>
      <trkpt lat="43.5749" lon="3.35558">
        <ele>134</ele>
        <time>2015-05-03T07:58:52Z</time>
      </trkpt>
      <trkpt lat="43.57507" lon="3.35587">
        <ele>128</ele>
        <time>2015-05-03T07:59:01Z</time>
      </trkpt>
      <trkpt lat="43.57508" lon="3.35592">
        <ele>128</ele>
        <time>2015-05-03T07:59:02Z</time>
      </trkpt>
      <trkpt lat="43.57507" lon="3.35623">
        <ele>128</ele>
        <time>2015-05-03T07:59:10Z</time>
      </trkpt>
      <trkpt lat="43.5753" lon="3.35659">
        <ele>128</ele>
        <time>2015-05-03T07:59:25Z</time>
      </trkpt>
      <trkpt lat="43.57539" lon="3.35666">
        <ele>129</ele>
        <time>2015-05-03T07:59:28Z</time>
      </trkpt>
      <trkpt lat="43.57543" lon="3.35668">
        <ele>128</ele>
        <time>2015-05-03T07:59:29Z</time>
      </trkpt>
      <trkpt lat="43.57559" lon="3.35694">
        <ele>129</ele>
        <time>2015-05-03T07:59:35Z</time>
      </trkpt>
      <trkpt lat="43.5758" lon="3.35742">
        <ele>127</ele>
        <time>2015-05-03T07:59:53Z</time>
      </trkpt>
      <trkpt lat="43.57594" lon="3.3578">
        <ele>131</ele>
        <time>2015-05-03T08:00:07Z</time>
      </trkpt>
      <trkpt lat="43.57601" lon="3.35847">
        <ele>125</ele>
        <time>2015-05-03T08:00:21Z</time>
      </trkpt>
      <trkpt lat="43.57606" lon="3.35901">
        <ele>124</ele>
        <time>2015-05-03T08:00:31Z</time>
      </trkpt>
      <trkpt lat="43.57607" lon="3.35912">
        <ele>124</ele>
        <time>2015-05-03T08:00:33Z</time>
      </trkpt>
      <trkpt lat="43.57623" lon="3.35988">
        <ele>124</ele>
        <time>2015-05-03T08:00:49Z</time>
      </trkpt>
      <trkpt lat="43.57655" lon="3.36071">
        <ele>123</ele>
        <time>2015-05-03T08:01:07Z</time>
      </trkpt>
      <trkpt lat="43.57671" lon="3.3615">
        <ele>125</ele>
        <time>2015-05-03T08:01:24Z</time>
      </trkpt>
      <trkpt lat="43.57675" lon="3.36181">
        <ele>123</ele>
        <time>2015-05-03T08:01:34Z</time>
      </trkpt>
      <trkpt lat="43.57673" lon="3.36184">
        <ele>123</ele>
        <time>2015-05-03T08:01:36Z</time>
      </trkpt>
      <trkpt lat="43.57633" lon="3.36221">
        <ele>121</ele>
        <time>2015-05-03T08:01:49Z</time>
      </trkpt>
      <trkpt lat="43.57607" lon="3.36252">
        <ele>118</ele>
        <time>2015-05-03T08:01:57Z</time>
      </trkpt>
      <trkpt lat="43.57587" lon="3.3628">
        <ele>118</ele>
        <time>2015-05-03T08:02:04Z</time>
      </trkpt>
      <trkpt lat="43.57581" lon="3.36304">
        <ele>114</ele>
        <time>2015-05-03T08:02:08Z</time>
      </trkpt>
      <trkpt lat="43.57581" lon="3.36323">
        <ele>113</ele>
        <time>2015-05-03T08:02:11Z</time>
      </trkpt>
      <trkpt lat="43.57579" lon="3.3637">
        <ele>111</ele>
        <time>2015-05-03T08:02:20Z</time>
      </trkpt>
      <trkpt lat="43.57578" lon="3.36372">
        <ele>111</ele>
        <time>2015-05-03T08:02:22Z</time>
      </trkpt>
      <trkpt lat="43.57553" lon="3.36371">
        <ele>110</ele>
        <time>2015-05-03T08:02:30Z</time>
      </trkpt>
      <trkpt lat="43.57463" lon="3.36356">
        <ele>108</ele>
        <time>2015-05-03T08:02:50Z</time>
      </trkpt>
      <trkpt lat="43.57438" lon="3.36353">
        <ele>108</ele>
        <time>2015-05-03T08:02:55Z</time>
      </trkpt>
      <trkpt lat="43.57368" lon="3.36371">
        <ele>108</ele>
        <time>2015-05-03T08:03:08Z</time>
      </trkpt>
      <trkpt lat="43.57342" lon="3.36369">
        <ele>108</ele>
        <time>2015-05-03T08:03:13Z</time>
      </trkpt>
      <trkpt lat="43.57298" lon="3.36353">
        <ele>107</ele>
        <time>2015-05-03T08:03:26Z</time>
      </trkpt>
      <trkpt lat="43.57305" lon="3.36359">
        <ele>107</ele>
        <time>2015-05-03T08:03:33Z</time>
      </trkpt>
      <trkpt lat="43.57334" lon="3.36357">
        <ele>108</ele>
        <time>2015-05-03T08:03:42Z</time>
      </trkpt>
      <trkpt lat="43.57336" lon="3.36329">
        <ele>109</ele>
        <time>2015-05-03T08:03:50Z</time>
      </trkpt>
      <trkpt lat="43.57335" lon="3.36316">
        <ele>110</ele>
        <time>2015-05-03T08:03:56Z</time>
      </trkpt>
      <trkpt lat="43.57337" lon="3.36308">
        <ele>110</ele>
        <time>2015-05-03T08:04:05Z</time>
      </trkpt>
      <trkpt lat="43.5734" lon="3.36307">
        <ele>110</ele>
        <time>2015-05-03T08:04:21Z</time>
      </trkpt>
      <trkpt lat="43.5734" lon="3.36303">
        <ele>110</ele>
        <time>2015-05-03T08:04:47Z</time>
      </trkpt>
      <trkpt lat="43.5734" lon="3.36302">
        <ele>110</ele>
        <time>2015-05-03T08:05:23Z</time>
      </trkpt>
      <trkpt lat="43.57339" lon="3.36304">
        <ele>110</ele>
        <time>2015-05-03T08:05:57Z</time>
      </trkpt>
      <trkpt lat="43.57341" lon="3.36305">
        <ele>110</ele>
        <time>2015-05-03T08:06:20Z</time>
      </trkpt>
      <trkpt lat="43.57342" lon="3.36306">
        <ele>110</ele>
        <time>2015-05-03T08:06:52Z</time>
      </trkpt>
      <trkpt lat="43.57344" lon="3.36307">
        <ele>110</ele>
        <time>2015-05-03T08:07:20Z</time>
      </trkpt>
      <trkpt lat="43.57345" lon="3.36308">
        <ele>110</ele>
        <time>2015-05-03T08:07:53Z</time>
      </trkpt>
      <trkpt lat="43.57348" lon="3.36307">
        <ele>110</ele>
        <time>2015-05-03T08:08:25Z</time>
      </trkpt>
      <trkpt lat="43.57349" lon="3.36306">
        <ele>110</ele>
        <time>2015-05-03T08:08:55Z</time>
      </trkpt>
      <trkpt lat="43.57349" lon="3.36307">
        <ele>110</ele>
        <time>2015-05-03T08:09:18Z</time>
      </trkpt>
      <trkpt lat="43.57348" lon="3.36306">
        <ele>110</ele>
        <time>2015-05-03T08:09:46Z</time>
      </trkpt>
      <trkpt lat="43.57345" lon="3.36307">
        <ele>110</ele>
        <time>2015-05-03T08:10:12Z</time>
      </trkpt>
      <trkpt lat="43.57342" lon="3.36304">
        <ele>110</ele>
        <time>2015-05-03T08:10:45Z</time>
      </trkpt>
      <trkpt lat="43.57339" lon="3.36302">
        <ele>110</ele>
        <time>2015-05-03T08:11:14Z</time>
      </trkpt>
      <trkpt lat="43.57337" lon="3.363">
        <ele>110</ele>
        <time>2015-05-03T08:11:41Z</time>
      </trkpt>
      <trkpt lat="43.5734" lon="3.36301">
        <ele>110</ele>
        <time>2015-05-03T08:12:07Z</time>
      </trkpt>
      <trkpt lat="43.57339" lon="3.363">
        <ele>110</ele>
        <time>2015-05-03T08:12:35Z</time>
      </trkpt>
      <trkpt lat="43.57342" lon="3.363">
        <ele>110</ele>
        <time>2015-05-03T08:13:00Z</time>
      </trkpt>
      <trkpt lat="43.57343" lon="3.36301">
        <ele>110</ele>
        <time>2015-05-03T08:13:21Z</time>
      </trkpt>
      <trkpt lat="43.5734" lon="3.36301">
        <ele>110</ele>
        <time>2015-05-03T08:13:45Z</time>
      </trkpt>
      <trkpt lat="43.57341" lon="3.36299">
        <ele>110</ele>
        <time>2015-05-03T08:14:05Z</time>
      </trkpt>
      <trkpt lat="43.57343" lon="3.36303">
        <ele>110</ele>
        <time>2015-05-03T08:14:34Z</time>
      </trkpt>
      <trkpt lat="43.57341" lon="3.36304">
        <ele>110</ele>
        <time>2015-05-03T08:14:55Z</time>
      </trkpt>
      <trkpt lat="43.57343" lon="3.36304">
        <ele>110</ele>
        <time>2015-05-03T08:15:13Z</time>
      </trkpt>
      <trkpt lat="43.57343" lon="3.36304">
        <ele>110</ele>
        <time>2015-05-03T08:15:35Z</time>
      </trkpt>
      <trkpt lat="43.57342" lon="3.36304">
        <ele>110</ele>
        <time>2015-05-03T08:16:03Z</time>
      </trkpt>
      <trkpt lat="43.57343" lon="3.36302">
        <ele>110</ele>
        <time>2015-05-03T08:16:30Z</time>
      </trkpt>
      <trkpt lat="43.57343" lon="3.36302">
        <ele>110</ele>
        <time>2015-05-03T08:16:49Z</time>
      </trkpt>
      <trkpt lat="43.57345" lon="3.36301">
        <ele>110</ele>
        <time>2015-05-03T08:17:18Z</time>
      </trkpt>
      <trkpt lat="43.57343" lon="3.36302">
        <ele>110</ele>
        <time>2015-05-03T08:17:48Z</time>
      </trkpt>
      <trkpt lat="43.57342" lon="3.36303">
        <ele>110</ele>
        <time>2015-05-03T08:18:15Z</time>
      </trkpt>
      <trkpt lat="43.57341" lon="3.36302">
        <ele>110</ele>
        <time>2015-05-03T08:18:45Z</time>
      </trkpt>
      <trkpt lat="43.57342" lon="3.36302">
        <ele>110</ele>
        <time>2015-05-03T08:19:12Z</time>
      </trkpt>
      <trkpt lat="43.57344" lon="3.36303">
        <ele>110</ele>
        <time>2015-05-03T08:19:45Z</time>
      </trkpt>
      <trkpt lat="43.57346" lon="3.36304">
        <ele>110</ele>
        <time>2015-05-03T08:20:05Z</time>
      </trkpt>
      <trkpt lat="43.57345" lon="3.36302">
        <ele>110</ele>
        <time>2015-05-03T08:20:30Z</time>
      </trkpt>
      <trkpt lat="43.57342" lon="3.36301">
        <ele>110</ele>
        <time>2015-05-03T08:20:59Z</time>
      </trkpt>
      <trkpt lat="43.57346" lon="3.363">
        <ele>110</ele>
        <time>2015-05-03T08:21:28Z</time>
      </trkpt>
      <trkpt lat="43.57342" lon="3.36298">
        <ele>110</ele>
        <time>2015-05-03T08:21:57Z</time>
      </trkpt>
      <trkpt lat="43.5734" lon="3.36298">
        <ele>110</ele>
        <time>2015-05-03T08:22:33Z</time>
      </trkpt>
      <trkpt lat="43.57341" lon="3.36299">
        <ele>110</ele>
        <time>2015-05-03T08:22:57Z</time>
      </trkpt>
      <trkpt lat="43.57337" lon="3.36301">
        <ele>110</ele>
        <time>2015-05-03T08:23:31Z</time>
      </trkpt>
      <trkpt lat="43.57338" lon="3.36303">
        <ele>110</ele>
        <time>2015-05-03T08:23:57Z</time>
      </trkpt>
      <trkpt lat="43.57339" lon="3.36307">
        <ele>110</ele>
        <time>2015-05-03T08:24:29Z</time>
      </trkpt>
      <trkpt lat="43.57338" lon="3.36319">
        <ele>110</ele>
        <time>2015-05-03T08:24:42Z</time>
      </trkpt>
      <trkpt lat="43.57338" lon="3.36333">
        <ele>109</ele>
        <time>2015-05-03T08:24:51Z</time>
      </trkpt>
      <trkpt lat="43.57339" lon="3.36352">
        <ele>108</ele>
        <time>2015-05-03T08:25:05Z</time>
      </trkpt>
      <trkpt lat="43.57336" lon="3.36361">
        <ele>108</ele>
        <time>2015-05-03T08:25:11Z</time>
      </trkpt>
      <trkpt lat="43.57313" lon="3.36358">
        <ele>107</ele>
        <time>2015-05-03T08:25:29Z</time>
      </trkpt>
      <trkpt lat="43.57294" lon="3.3636">
        <ele>106</ele>
        <time>2015-05-03T08:25:45Z</time>
      </trkpt>
      <trkpt lat="43.57286" lon="3.36361">
        <ele>106</ele>
        <time>2015-05-03T08:25:50Z</time>
      </trkpt>
      <trkpt lat="43.5727" lon="3.36355">
        <ele>106</ele>
        <time>2015-05-03T08:26:06Z</time>
      </trkpt>
      <trkpt lat="43.57261" lon="3.3636">
        <ele>106</ele>
        <time>2015-05-03T08:26:22Z</time>
      </trkpt>
      <trkpt lat="43.57261" lon="3.3636">
        <ele>106</ele>
        <time>2015-05-03T08:26:51Z</time>
      </trkpt>
      <trkpt lat="43.57259" lon="3.3636">
        <ele>106</ele>
        <time>2015-05-03T08:27:25Z</time>
      </trkpt>
      <trkpt lat="43.57261" lon="3.36361">
        <ele>106</ele>
        <time>2015-05-03T08:27:52Z</time>
      </trkpt>
      <trkpt lat="43.57262" lon="3.36361">
        <ele>106</ele>
        <time>2015-05-03T08:27:53Z</time>
      </trkpt>
    </trkseg>
  </trk>
</gpx>